[[{"header":{"parameterUnit":"m.s-1","parameterCategory":1,"la1":31.0,"la2":29.5877,"lo1":-88.7671,"lo2":-86.6584,"dy":0.0162,"dx":0.0185,"nx":115,"ny":88,"refTime":"2024-08-18T06:00:00:Z","depth":0,"parameterNumber":2,"parameterNumberName":"U-component_of_WINDS"},"data":[0.0,0.0,0.0,0.0,0.0,0.0,0.0,0.0,0.0,0.0,0.0,0.0,0.0,0.0,0.0,0.0,0.0,0.0,0.0,0.0,0.0,0.0,0.0,0.0,0.0,0.0,0.0,0.0,0.0,0.0,0.0,0.0,0.0,0.0,0.0,0.0,0.0,0.0,0.0,0.0,0.0,0.0,0.0,0.0,0.0,0.0,0.0,0.0,0.0,0.0,0.0,0.0,0.0,0.0,0.0,0.0,0.0,0.0,0.0,0.0,0.0,0.0,0.0,0.0,0.0,0.0,0.0,0.0,0.0,0.0,0.0,0.0,0.0,0.0,0.0,0.0,0.0,0.0,0.0,0.0,0.0,0.0,0.0,0.0,0.0,0.0,0.0,0.0,0.0,0.0,0.0,0.0,0.0,0.0,0.0,0.0,0.0,0.0,0.0,0.0,0.0,0.0,0.0,0.0,0.0,0.0,0.0,0.0,0.0,0.0,0.0,0.0,0.0,0.0,0.0,0.0,0.0,0.0,0.0,0.0,0.0,0.0,0.0,0.0,0.0,0.0,0.0,0.0,0.0,0.0,0.0,0.0,0.0,0.0,0.0,0.0,0.0,0.0,0.0,0.0,0.0,0.0,0.0,0.0,0.0,0.0,0.0,0.0,0.0,0.0,0.0,0.0,0.0,0.0,0.0,0.0,0.0,0.0,0.0,0.0,0.0,0.0,0.0,0.0,0.0,0.0,0.0,0.0,0.0,0.0,0.0,0.0,0.0,0.0,0.0,0.0,0.0,0.0,0.0,0.0,0.0,0.0,0.0,0.0,0.0,0.0,0.0,0.0,0.0,0.0,0.0,0.0,0.0,0.0,0.0,0.0,0.0,0.0,0.0,0.0,0.0,0.0,0.0,0.0,0.0,0.0,0.0,0.0,0.0,0.0,0.0,0.0,0.0,0.0,0.0,0.0,0.0,0.0,0.0,0.0,0.0,0.0,0.0,0.0,0.0,0.0,0.0,0.0,0.0,0.0,0.0,0.0,0.0,0.0,0.0,0.0,0.0,0.0,0.0,0.0,0.0,0.0,0.0,0.0,0.0,0.0,0.0,0.0,0.0,0.0,0.0,0.0,0.0,0.0,0.0,0.0,0.0,0.0,0.0,0.0,0.0,0.0,0.0,0.0,0.0,0.0,0.0,0.0,0.0,0.0,0.0,0.0,0.0,0.0,0.0,0.0,0.0,0.0,0.0,0.0,0.0,0.0,0.0,0.0,0.0,0.0,0.0,0.0,0.0,0.0,0.0,0.0,0.0,0.0,0.0,0.0,0.0,0.0,0.0,0.0,0.0,0.0,0.0,0.0,0.0,0.0,0.0,0.0,0.0,0.0,0.0,0.0,0.0,0.0,0.0,0.0,0.0,0.0,0.0,0.0,0.0,0.0,0.0,0.0,0.0,0.0,0.0,0.0,0.0,0.0,0.0,0.0,0.0,0.0,0.0,0.0,0.0,0.0,0.0,0.0,0.0,0.0,0.0,0.0,0.0,0.0,0.0,0.0,0.0,0.0,0.0,0.0,0.0,0.0,0.0,0.0,0.0,0.0,0.0,0.0,0.0,0.0,0.0,0.0,0.0,0.0,0.0,0.0,0.0,0.0,0.0,0.0,0.0,0.0,0.0,0.0,0.0,0.0,0.0,0.0,0.0,0.0,0.0,0.0,0.0,0.0,0.0,0.0,0.0,0.0,0.0,0.0,0.0,0.0,0.0,0.0,0.0,0.0,0.0,0.0,0.0,0.0,0.0,0.0,0.0,0.0,0.0,0.0,0.0,0.0,0.0,0.0,0.0,0.0,0.0,0.0,0.0,0.0,0.0,0.0,0.0,0.0,0.0,0.0,0.0,0.0,0.0,0.0,0.0,0.0,0.0,0.0,0.0,0.0,0.0,0.0,0.0,0.0,0.0,0.0,0.0,0.0,0.0,0.0,0.0,0.0,0.0,0.0,0.0,0.0,0.0,0.0,0.0,0.0,0.0,0.0,0.0,0.0,0.0,0.0,0.0,0.0,0.0,0.0,0.0,0.0,0.0,0.0,0.0,0.0,0.0,0.0,0.0,0.0,0.0,0.0,0.0,0.0,0.0,0.0,0.0,0.0,0.0,0.0,0.0,0.0,0.0,0.0,0.0,0.0,0.0,0.0,0.0,0.0,0.0,0.0,0.0,0.0,0.0,0.0,0.0,0.0,0.0,0.0,0.0,0.0,0.0,0.0,0.0,0.0,0.0,0.0,0.0,0.0,0.0,0.0,0.0,0.0,0.0,0.0,0.0,0.0,0.0,0.0,0.0,0.0,0.0,0.0,0.0,0.0,0.0,0.0,0.0,0.0,0.0,0.0,0.0,0.0,0.0,0.0,0.0,0.0,0.0,0.0,0.0,0.0,0.0,0.0,0.0,0.0,0.0,0.0,0.0,0.0,0.0,0.0,0.0,0.0,0.0,0.0,0.0,0.0,0.0,0.0,0.0,0.0,0.0,0.0,0.0,0.0,0.0,0.0,0.0,0.0,0.0,0.0,0.0,0.0,0.0,0.0,0.0,0.0,0.0,0.0,0.0,0.0,0.0,0.0,0.0,0.0,0.0,0.0,0.0,0.0,0.0,0.0,0.0,0.0,0.0,0.0,0.0,0.0,0.0,0.0,0.0,0.0,0.0,0.0,0.0,0.0,0.0,0.0,0.0,0.0,0.0,0.0,0.0,0.0,0.0,0.0,0.0,0.0,0.0,0.0,0.0,0.0,0.0,0.0,0.0,0.0,0.0,0.0,0.0,0.0,0.0,0.0,0.0,0.0,0.0,0.0,0.0,0.0,0.0,0.0,0.0,0.0,0.0,0.0,0.0,0.0,0.0,0.0,0.0,0.0,0.0,0.0,0.0,0.0,0.0,0.0,0.0,0.0,0.0,0.0,0.0,0.0,0.0,0.0,0.0,0.0,0.0,0.0,0.0,0.0,0.0,0.0,0.0,0.0,0.0,0.0,0.0,0.0,0.0,0.0,0.0,0.0,0.0,0.0,0.0,0.0,0.0,0.0,0.0,0.0,0.0,0.0,0.0,0.0,0.0,0.0,0.0,0.0,0.0,0.0,0.0,0.0,0.0,0.0,0.0,0.0,0.0,0.0,0.0,0.0,0.0,0.0,0.0,0.0,0.0,0.0,0.0,0.0,0.0,0.0,0.0,0.0,0.0,0.0,0.0,0.0,0.0,0.0,0.0,0.0,0.0,0.0,0.0,0.0,0.0,0.0,0.0,0.0,0.0,0.0,0.0,0.0,0.0,0.0,0.0,0.0,0.0,0.0,0.0,0.0,0.0,0.0,0.0,0.0,0.0,0.0,0.0,0.0,0.0,0.0,0.0,0.0,0.0,0.0,0.0,0.0,0.0,0.0,0.0,0.0,0.0,0.0,0.0,0.0,0.0,0.0,0.0,0.0,0.0,0.0,0.0,0.0,0.0,0.0,0.0,0.0,0.0,0.0,0.0,0.0,0.0,0.0,0.0,0.0,0.0,0.0,0.0,0.0,0.0,0.0,0.0,0.0,0.0,0.0,0.0,0.0,0.0,0.0,0.0,0.0,0.0,0.0,0.0,0.0,0.0,0.0,0.0,0.0,0.0,0.0,0.0,0.0,0.0,0.0,0.0,0.0,0.0,0.0,0.0,0.0,0.0,0.0,0.0,0.0,0.0,0.0,0.0,0.0,0.0,0.0,0.0,0.0,0.0,0.0,0.0,0.0,0.0,0.0,0.0,0.0,0.0,0.0,0.0,0.0,0.0,0.0,0.0,0.0,0.0,0.0,0.0,0.0,0.0,0.0,0.0,0.0,0.0,0.0,0.0,0.0,0.0,0.0,0.0,0.0,0.0,0.0,0.0,0.0,0.0,0.0,0.0,0.0,0.0,0.0,0.0,0.0,0.0,0.0,0.0,0.0,0.0,0.0,0.0,0.0,0.0,0.0,0.0,0.0,0.0,0.0,0.0,0.0,0.0,0.0,0.0,0.0,0.0,0.0,0.0,0.0,0.0,0.0,0.0,0.0,0.0,0.0,0.0,0.0,0.0,0.0,0.0,0.0,0.0,0.0,0.0,0.0,0.0,0.0,0.0,0.0,0.0,0.0,0.0,0.0,0.0,0.0,0.0,0.0,0.0,0.0,0.0,0.0,0.0,0.0,0.0,0.0,0.0,0.0,0.0,0.0,0.0,0.0,0.0,0.0,0.0,0.0,0.0,0.0,0.0,0.0,0.0,0.0,0.5311,0.0,0.0,0.0,0.0,0.0,0.0,0.0,0.0,0.0,0.0,0.0,0.0,0.0,0.0,0.0,0.0,0.0,0.0,0.0,0.0,0.0,0.0,0.0,0.0,0.0,0.0,0.0,0.0,0.0,0.0,0.0,0.0,0.0,0.0,0.0,0.0,0.0,0.0,0.0,0.0,0.0,0.0,0.0,0.0,0.0,0.0,0.0,0.0,0.0,0.0,0.0,0.0,0.0,0.0,0.0,0.0,0.0,0.0,0.0,0.0,0.0,0.0,0.0,0.0,0.0,0.0,0.0,0.0,0.0,0.0,0.0,0.0,0.0,0.0,0.0,0.0,0.0,0.0,0.0,0.0,0.0,0.0,0.0,0.0,0.0,0.0,0.0,0.0,0.0,0.0,0.0,0.0,0.0,0.0,0.0,0.0,0.0,0.0,0.0,0.0,0.0,0.0,0.0,0.0,0.0,0.0,0.0,0.0,0.0,0.0,0.5311,0.5311,0.5311,0.5311,0.5311,0.0,0.0,0.0,0.0,0.0,0.0,0.0,0.0,0.0,0.0,0.0,0.0,0.0,0.0,0.0,0.0,0.0,0.0,0.0,0.0,0.0,0.0,0.0,0.0,0.0,0.0,0.0,0.0,0.0,0.0,0.0,0.0,0.0,0.0,0.0,0.0,0.0,0.0,0.0,0.0,0.0,0.0,0.0,0.0,0.0,0.0,0.0,0.0,0.0,0.0,0.0,0.0,0.0,0.0,0.0,0.0,0.0,0.0,0.0,0.0,0.0,0.0,0.0,0.0,0.0,0.0,0.0,0.0,0.0,0.0,0.0,0.0,0.0,0.0,0.0,0.0,0.0,0.0,0.0,0.0,0.0,0.0,0.0,0.0,0.0,0.0,0.0,0.0,0.0,0.0,0.0,0.0,0.0,0.0,0.0,0.0,0.0,0.0,0.0,0.0,0.0,0.0,0.0,0.0,0.0,0.0,0.0,0.0,0.0,0.0,0.0,0.0,0.5538,0.5553,0.5538,0.0,0.0,0.0,0.0,0.0,0.0,0.0,0.0,0.0,0.0,0.0,0.0,0.0,0.0,0.0,0.0,0.0,0.0,0.0,0.0,0.0,0.0,0.0,0.0,0.0,0.0,0.0,0.0,0.0,0.0,0.0,0.0,0.0,0.0,0.0,0.0,0.0,0.0,0.0,0.0,0.0,0.0,0.0,0.0,0.0,0.0,0.0,0.0,0.0,0.0,0.0,0.0,0.0,0.0,0.0,0.0,0.0,0.0,0.0,0.0,0.0,0.0,0.0,0.0,0.0,0.0,0.0,0.0,0.0,0.0,0.0,0.0,0.0,0.0,0.0,0.0,0.0,0.0,0.0,0.0,0.0,0.0,0.0,0.0,0.0,0.0,0.0,0.0,0.0,0.0,0.0,0.0,0.0,0.0,0.0,0.0,0.0,0.0,0.0,0.0,0.0,0.0,0.0,0.0,0.0,0.0,0.0,0.0,0.0,0.0,0.5617,0.627,0.6302,0.0,0.631,0.0,0.0,0.0,0.0,0.0,0.0,0.0,0.0,0.0,0.0,0.0,0.0,0.0,0.0,0.0,0.0,0.0,0.0,0.0,0.0,0.0,0.0,0.0,0.0,0.0,0.0,0.0,0.0,0.0,0.0,0.0,0.0,0.0,0.0,0.0,0.0,0.0,0.0,0.0,0.0,0.0,0.0,0.0,0.0,0.0,0.0,0.0,0.0,0.0,0.0,0.0,0.0,0.0,0.0,0.0,0.0,0.0,0.0,0.0,0.0,0.0,0.0,0.0,0.0,0.0,0.0,0.0,0.0,0.0,0.0,0.0,0.0,0.0,0.0,0.0,0.0,0.0,0.0,0.0,0.0,0.0,0.0,0.0,0.0,0.0,0.0,0.0,0.0,0.0,0.0,0.0,0.0,0.0,0.0,0.0,0.0,0.0,0.0,0.0,0.0,0.0,0.0,0.0,0.0,0.0,0.0,0.0,0.0,0.0,0.0,0.6108,0.6408,0.6408,0.6351,0.0,0.0,0.0,0.0,0.0,0.0,0.0,0.0,0.0,0.0,0.0,0.0,0.0,0.0,0.0,0.0,0.0,0.0,0.0,0.0,0.0,0.0,0.0,0.0,0.0,0.0,0.0,0.0,0.0,0.0,0.0,0.0,0.0,0.0,0.0,0.0,0.0,0.0,0.0,0.0,0.0,0.0,0.0,0.0,0.0,0.0,0.0,0.0,0.0,0.0,0.0,0.0,0.0,0.0,0.0,0.0,0.0,0.0,0.0,0.0,0.0,0.0,0.0,0.0,0.0,0.0,0.0,0.0,0.0,0.0,0.0,0.0,0.0,0.0,0.0,0.0,0.0,0.0,0.0,0.0,0.0,0.0,0.0,0.0,0.0,0.0,0.0,0.0,0.0,0.0,0.0,0.0,0.0,0.0,0.0,0.0,0.0,0.0,0.0,0.0,0.0,0.0,0.0,0.0,0.0,0.0,0.0,0.0,0.0,0.0,0.6366,0.0,0.67,0.6691,0.653,0.6172,0.0,0.0,0.0,0.0,0.0,0.0,0.0,0.0,0.0,0.0,0.0,0.0,0.0,0.0,0.0,0.0,0.0,0.0,0.0,0.0,0.0,0.0,0.0,0.0,0.0,0.0,0.0,0.0,0.0,0.0,0.0,0.0,0.0,0.0,0.0,0.0,0.0,0.0,0.0,0.0,0.0,0.0,0.0,0.0,0.0,0.0,0.0,0.0,0.0,0.0,0.0,0.0,0.0,0.0,0.0,0.0,0.0,0.0,0.0,0.0,0.0,0.0,0.0,0.0,0.0,0.0,0.0,0.0,0.0,0.0,0.0,0.0,0.0,0.0,0.0,0.0,0.0,0.0,0.0,0.0,0.0,0.0,0.0,0.0,0.0,0.0,0.0,0.0,0.0,0.0,0.0,0.0,0.0,0.0,0.0,0.0,0.0,0.0,0.0,0.0,0.0,0.0,0.0,0.0,0.0,0.0,0.0,0.0,0.0,0.7216,0.6749,0.7426,0.745,0.7025,0.0,0.0,0.0,0.0,0.0,0.0,0.0,0.0,0.0,0.0,0.0,0.0,0.0,0.0,0.0,0.0,0.0,0.0,0.0,0.0,0.0,0.0,0.0,0.0,0.0,0.0,0.0,0.0,0.0,0.0,0.0,0.0,0.0,0.0,0.0,0.0,0.0,0.0,0.0,0.0,0.0,0.0,0.0,0.0,0.0,0.0,0.0,0.0,0.0,0.0,0.0,0.0,0.0,0.0,0.0,0.0,0.0,0.0,0.0,0.0,0.0,0.0,0.0,0.0,0.0,0.0,0.0,0.0,0.0,0.0,0.0,0.0,0.0,0.0,0.0,0.0,0.0,0.0,0.0,0.0,0.0,0.0,0.0,0.0,0.0,0.0,0.0,0.0,0.0,0.0,0.0,0.0,0.0,0.0,0.0,0.0,0.0,0.0,0.0,0.0,0.0,0.0,0.0,0.0,0.0,0.0,0.0,0.0,0.0,0.6575,0.6472,0.6985,0.811,0.7216,0.6669,0.0,0.0,0.0,0.0,0.0,0.0,0.0,0.0,0.0,0.0,0.0,0.0,0.0,0.0,0.0,0.0,0.0,0.0,0.0,0.0,0.0,0.0,0.0,0.0,0.0,0.0,0.0,0.0,0.0,0.0,0.0,0.0,0.0,0.0,0.0,0.0,0.0,0.0,0.0,0.0,0.0,0.0,0.0,0.0,0.0,0.0,0.0,0.0,0.0,0.0,0.0,0.0,0.0,0.0,0.0,0.0,0.0,0.0,0.0,0.0,0.0,0.0,0.0,0.0,0.0,0.0,0.0,0.0,0.0,0.0,0.0,0.0,0.0,0.0,0.0,0.0,0.0,0.0,0.0,0.0,0.0,0.0,0.0,0.0,0.0,0.0,0.0,0.0,0.0,0.0,0.0,0.0,0.0,0.0,0.0,0.0,0.0,0.0,0.0,0.0,0.0,0.0,0.0,0.0,0.0,0.0,0.0,0.0,0.0,0.6027,0.0,0.7808,0.0,0.72,0.6514,0.0,0.0,0.0,0.0,0.0,0.0,0.0,0.0,0.0,0.0,0.0,0.0,0.0,0.0,0.0,0.0,0.0,0.0,0.0,0.0,0.0,0.0,0.0,0.0,0.0,0.0,0.0,0.0,0.0,0.0,0.0,0.0,0.0,0.0,0.0,0.0,0.0,0.0,0.0,0.0,0.0,0.0,0.0,0.0,0.0,0.0,0.0,0.0,0.0,0.0,0.0,0.0,0.0,0.0,0.0,0.0,0.0,0.0,0.0,0.0,0.0,0.0,0.0,0.0,0.0,0.0,0.0,0.0,0.0,0.0,0.0,0.0,0.0,0.0,0.0,0.0,0.0,0.0,0.0,0.0,0.0,0.0,0.0,0.0,0.0,0.0,0.0,0.0,0.0,0.0,0.0,0.0,0.0,0.0,0.0,0.0,0.0,0.0,0.0,0.0,0.0,0.0,0.0,0.0,0.0,0.0,0.0,0.0,0.6035,0.7466,0.9082,0.9128,0.7614,0.7486,0.6619,0.0,0.0,0.0,0.0,0.0,0.0,0.0,0.0,0.0,0.0,0.0,0.0,0.0,0.0,0.0,0.0,0.0,0.0,0.0,0.0,0.0,0.0,0.0,0.0,0.0,0.0,0.0,0.0,0.0,0.0,0.0,0.0,0.0,0.0,0.0,0.0,0.0,0.0,0.0,0.0,0.0,0.0,0.0,0.0,0.0,0.0,0.0,0.0,0.0,0.0,0.0,0.0,0.0,0.0,0.0,0.0,0.0,0.0,0.0,0.0,0.0,0.0,0.0,0.0,0.0,0.0,0.0,0.0,0.0,0.0,0.0,0.0,0.0,0.0,0.0,0.0,0.0,0.0,0.0,0.0,0.0,0.0,0.0,0.0,0.0,0.0,0.0,0.0,0.0,0.0,0.0,0.0,0.0,0.0,0.0,0.0,0.0,0.0,0.0,0.0,0.0,0.0,0.0,0.0,0.0,0.0,0.0,0.0,0.0,0.7809,0.8011,0.8544,0.9389,0.749,0.6481,0.0,0.0,0.0,0.0,0.0,0.0,0.0,0.0,0.0,0.0,0.0,0.0,0.0,0.0,0.0,0.0,0.0,0.0,0.0,0.0,0.0,0.0,0.0,0.0,0.0,0.0,0.0,0.0,0.0,0.0,0.0,0.0,0.0,0.0,0.0,0.0,0.0,0.0,0.0,0.0,0.0,0.0,0.0,0.0,0.0,0.0,0.0,0.0,0.0,0.0,0.0,0.0,0.0,0.0,0.0,0.0,0.0,0.0,0.0,0.0,0.0,0.0,0.0,0.0,0.0,0.0,0.0,0.0,0.0,0.0,0.0,0.0,0.0,0.0,0.0,0.0,0.0,0.0,0.0,0.0,0.0,0.0,0.0,0.0,0.0,0.0,0.0,0.0,0.0,0.0,0.0,0.0,0.0,0.0,0.0,0.0,0.0,0.0,0.0,0.0,0.0,0.0,0.0,0.0,0.0,0.0,0.0,0.0,0.0,0.885,0.844,0.8695,0.9696,0.7732,0.6741,0.6855,0.0,0.0,0.0,0.0,0.0,0.0,0.0,0.0,0.0,0.0,0.0,0.0,0.0,0.0,0.0,0.0,0.0,0.0,0.0,0.0,0.0,0.0,0.0,0.0,0.0,0.0,0.0,0.0,0.0,0.0,0.0,0.0,0.0,0.0,0.0,0.0,0.0,0.0,0.0,0.0,0.0,0.0,0.0,0.0,0.0,0.0,0.0,0.0,0.0,0.0,0.0,0.0,0.0,0.0,0.0,0.0,0.0,0.0,0.0,0.0,0.0,0.0,0.0,0.0,0.0,0.0,0.0,0.0,0.0,0.0,0.0,0.0,0.0,0.0,0.0,0.0,0.0,0.0,0.0,0.0,0.0,0.0,0.0,0.0,0.0,0.0,0.0,0.0,0.0,0.0,0.0,0.0,0.0,0.0,0.0,0.0,0.0,0.0,0.0,0.0,0.0,0.0,0.0,0.0,0.0,0.0,0.0,0.0,1.0327,1.0065,0.9567,0.8871,0.8294,0.7372,0.0,0.0,0.0,0.0,0.0,0.0,0.0,0.0,0.0,0.0,0.0,0.0,0.0,0.0,0.0,0.0,0.0,0.0,0.0,0.0,0.0,0.0,0.0,0.0,0.0,0.0,0.0,0.0,0.0,0.0,0.0,0.0,0.0,0.0,0.0,0.0,0.0,0.0,0.0,0.0,0.0,0.0,0.0,0.0,0.0,0.0,0.0,0.0,0.0,0.0,0.0,0.0,0.0,0.0,0.0,0.0,0.0,0.0,0.0,0.0,0.0,0.0,0.0,0.0,0.0,0.0,0.0,0.0,0.0,0.0,0.0,0.0,0.0,0.0,0.0,0.0,0.0,0.0,0.0,0.0,0.0,0.0,0.0,0.0,0.0,0.0,0.0,0.0,0.0,0.0,0.0,0.0,0.0,0.0,0.0,0.0,0.0,0.0,0.0,0.0,0.0,0.0,0.0,0.0,0.0,0.0,0.0,0.0,0.0,0.9626,1.0193,1.0703,1.1058,0.925,0.7939,0.0,0.0,0.0,0.0,0.0,0.0,0.0,0.0,0.0,0.0,0.0,0.0,0.0,0.0,0.0,0.0,0.0,0.0,0.0,0.0,0.0,0.0,0.0,0.0,0.0,0.0,0.0,0.0,0.0,0.0,0.0,0.0,0.0,0.0,0.0,0.0,0.0,0.0,0.0,0.0,0.0,0.0,0.0,0.0,0.0,0.0,0.0,0.0,0.0,0.0,0.0,0.0,0.0,0.0,0.0,0.0,0.0,0.0,0.0,0.0,0.0,0.0,0.0,0.0,0.0,0.0,0.0,0.0,0.0,0.0,0.0,0.0,0.0,0.0,0.0,0.0,0.0,0.0,0.0,0.0,0.0,0.0,0.0,0.0,0.0,0.0,0.0,0.0,0.0,0.0,0.0,0.0,0.0,0.0,0.0,0.0,0.0,0.0,0.0,0.0,0.0,0.0,0.0,0.0,0.0,0.0,0.0,0.0,0.8828,0.982,1.0607,1.122,1.1662,0.9987,0.868,0.0,0.0,0.0,0.0,0.0,0.0,0.0,0.0,0.0,0.0,0.0,0.0,0.0,0.0,0.0,0.0,0.0,0.0,0.0,0.0,0.0,0.0,0.0,0.0,0.0,0.0,0.0,0.0,0.0,0.0,0.0,0.0,0.0,0.0,0.0,0.0,0.0,0.0,0.0,0.0,0.0,0.0,0.0,0.0,0.0,0.0,0.0,0.0,0.0,0.0,0.0,0.0,0.0,0.0,0.0,0.0,0.0,0.0,0.0,0.0,0.0,0.0,0.0,0.0,0.0,0.0,0.0,0.0,0.0,0.0,0.0,0.0,0.0,0.0,0.0,0.0,0.0,0.0,0.0,0.0,0.0,0.0,0.0,0.0,0.0,0.0,0.0,0.0,0.0,0.0,0.0,0.0,0.0,0.0,0.0,0.0,0.0,0.0,0.0,0.0,0.0,0.0,0.0,0.0,0.0,0.0,0.0,0.0,0.9356,1.0385,1.1135,1.1419,1.1211,1.0569,0.9477,0.0,0.0,0.0,0.0,0.0,0.0,0.0,0.0,0.0,0.0,0.0,0.0,0.0,0.0,0.0,0.0,0.0,0.0,0.0,0.0,0.0,0.0,0.0,0.0,0.0,0.0,0.0,0.0,0.0,0.0,0.0,0.0,0.0,0.0,0.0,0.0,0.0,0.0,0.0,0.0,0.0,0.0,0.0,0.0,0.0,0.0,0.0,0.0,0.0,0.0,0.0,0.0,0.0,0.0,0.0,0.0,0.0,0.0,0.0,0.0,0.0,0.0,0.0,0.0,0.0,0.0,0.0,0.0,0.0,0.0,0.0,0.0,0.0,0.0,0.0,0.0,0.0,0.0,0.0,0.0,0.0,0.0,0.0,0.0,0.0,0.0,0.0,0.0,0.0,0.0,0.0,0.0,0.0,0.0,0.0,0.0,0.0,0.0,0.0,0.0,0.0,0.0,0.0,0.0,0.0,0.0,0.0,0.0,0.9632,1.0366,1.1135,1.1476,1.1435,1.0634,0.9657,0.0,0.0,0.0,0.0,0.0,0.0,0.0,0.0,0.0,0.0,0.0,0.0,0.0,0.0,0.0,0.0,0.0,0.0,0.0,0.0,0.0,0.0,0.0,0.0,0.0,0.0,0.0,0.0,0.0,0.0,0.0,0.0,0.0,0.0,0.0,0.0,0.0,0.0,0.0,0.0,0.0,0.0,0.0,0.0,0.0,0.0,0.0,0.0,0.76,0.0,0.0,0.0,0.0,0.0,0.0,0.0,0.0,0.0,0.0,0.0,0.0,0.0,0.0,0.0,0.0,0.0,0.0,0.0,0.0,0.0,0.0,0.0,0.0,0.0,0.0,0.0,0.0,0.0,0.0,0.0,0.0,0.0,0.0,0.0,0.0,0.0,0.0,0.0,0.0,0.0,0.0,0.0,0.0,0.0,0.0,0.0,0.0,0.0,0.0,0.0,0.0,0.0,0.0,0.0,0.0,0.0,0.0,0.0,1.0072,1.0652,1.1305,1.163,1.1627,1.0862,0.9934,0.0,0.0,0.0,0.0,0.0,0.0,0.0,0.0,0.0,0.0,0.0,0.0,0.0,0.0,0.0,0.0,0.0,0.0,0.0,0.0,0.0,0.0,0.0,0.0,0.0,0.0,0.0,0.0,0.0,0.0,0.0,0.0,0.0,0.0,0.0,0.0,0.0,0.0,0.0,0.0,0.0,0.0,0.0,0.0,0.0,0.0,0.0,0.0,0.0,0.0,0.0,0.0,0.0,0.0,0.0,0.0,0.0,0.0,0.0,0.0,0.0,0.0,0.0,0.0,0.0,0.0,0.0,0.0,0.0,0.0,0.0,0.0,0.0,0.0,0.0,0.0,0.0,0.0,0.0,0.0,0.0,0.0,0.0,0.0,0.0,0.0,0.0,0.0,0.0,0.0,0.0,0.0,0.0,0.0,0.0,0.0,0.0,0.0,0.0,0.0,0.0,0.0,0.0,0.0,0.0,0.0,0.0,0.9486,1.0422,1.1065,1.1554,1.179,1.1727,1.1053,1.0219,0.9137,0.0,0.0,0.0,0.0,0.0,0.0,0.0,0.0,0.0,0.0,0.0,0.0,0.0,0.0,0.0,0.0,0.0,0.0,0.0,0.0,0.0,0.0,0.0,0.0,0.0,0.0,0.0,0.0,0.0,0.0,0.0,0.0,0.0,0.0,0.0,0.0,0.0,0.0,0.7214,0.7988,0.0,0.0,0.0,0.0,0.0,0.0,0.0,0.0,0.8243,0.0,0.0,0.0,0.0,0.0,0.0,0.0,0.0,0.0,0.0,0.0,0.0,0.0,0.0,0.0,0.0,0.0,0.0,0.0,0.0,0.0,0.0,0.0,0.0,0.0,0.0,0.0,0.0,0.0,0.0,0.0,0.0,0.0,0.0,0.0,0.0,0.0,0.0,0.0,0.0,0.0,0.0,0.0,0.0,0.0,0.0,0.0,0.0,0.0,0.0,0.0,0.0,0.0,0.0,0.0,0.0,0.93,0.9575,1.0266,1.1378,1.1676,1.1733,1.1541,1.0988,1.0193,0.9137,0.0,0.0,0.0,0.0,0.0,0.0,0.0,0.0,0.0,0.0,0.0,0.0,0.0,0.0,0.0,0.0,0.0,0.0,0.0,0.0,0.0,0.0,0.0,0.0,0.0,0.0,0.0,0.0,0.0,0.0,0.0,0.0,0.0,0.0,0.0,0.0,0.0,0.0,0.0,0.9008,0.9364,0.0,0.0,0.0,0.0,0.0,0.0,0.0,0.0,0.8446,0.0,0.0,0.0,0.0,0.0,0.0,0.0,0.0,0.0,0.0,0.0,0.0,0.0,0.0,0.0,0.0,0.0,0.0,0.0,0.0,0.0,0.0,0.0,0.0,0.0,0.0,0.0,0.0,0.0,0.0,0.0,0.0,0.0,0.0,0.0,0.0,0.0,0.0,0.0,0.0,0.0,0.0,0.0,0.0,0.0,0.0,0.0,0.0,0.0,0.0,0.0,0.0,0.0,0.0,0.0,0.9105,0.9826,1.0607,1.1468,1.1679,1.1687,1.1484,1.0615,0.9762,0.0,0.0,0.0,0.0,0.0,0.0,0.0,0.0,0.0,0.0,0.0,0.0,0.0,0.0,0.0,0.0,0.0,0.0,0.0,0.0,0.0,0.0,0.0,0.0,0.0,0.0,0.0,0.0,0.0,0.0,0.0,0.0,0.0,0.0,0.0,0.0,0.0,0.0,0.0,0.0,0.9202,0.9543,0.9641,0.0,0.0,0.0,0.0,0.0,0.0,0.8796,0.8627,0.0,0.0,0.0,0.0,0.0,0.0,0.0,0.0,0.0,0.0,0.0,0.0,0.0,0.0,0.0,0.0,0.0,0.0,0.0,0.0,0.0,0.0,0.0,0.0,0.0,0.0,0.0,0.0,0.0,0.0,0.0,0.0,0.0,0.0,0.0,0.0,0.0,0.0,0.0,0.0,0.0,0.0,0.0,0.0,0.0,0.0,0.0,0.0,0.0,0.0,0.0,0.0,0.0,0.0,0.0,0.8861,1.0006,1.0899,1.1554,1.1703,1.1701,1.1435,1.0377,0.9462,0.0,0.0,0.0,0.0,0.0,0.0,0.0,0.0,0.0,0.0,0.0,0.0,0.0,0.0,0.0,0.0,0.0,0.0,0.0,0.0,0.0,0.0,0.0,0.0,0.0,0.0,0.0,0.0,0.0,0.0,0.0,0.0,0.0,0.0,0.0,0.0,0.0,0.0,0.0,0.0,0.0,0.973,0.9934,0.9747,0.0,0.0,0.0,0.0,0.938,0.9324,0.0,0.0,0.0,0.0,0.0,0.0,0.0,0.0,0.0,0.0,0.0,0.0,0.0,0.0,0.0,0.0,0.0,0.0,0.0,0.0,0.0,0.0,0.0,0.0,0.0,0.0,0.0,0.0,0.0,0.0,0.0,0.0,0.0,0.0,0.0,0.0,0.0,0.0,0.0,0.0,0.0,0.0,0.0,0.0,0.0,0.0,0.0,0.0,0.0,0.0,0.0,0.0,0.0,0.0,0.0,0.0,0.9015,0.9852,1.074,1.1717,1.1798,1.1635,1.1265,1.081,0.9868,0.0,0.0,0.0,0.0,0.0,0.0,0.0,0.0,0.0,0.0,0.0,0.0,0.0,0.0,0.0,0.0,0.0,0.0,0.0,0.0,0.0,0.0,0.0,0.0,0.0,0.0,0.0,0.0,0.0,0.0,0.0,0.0,0.0,0.0,0.0,0.0,0.0,0.0,0.0,0.0,0.0,1.0463,1.0194,1.0147,1.0145,0.0,0.0,1.0154,1.0487,1.065,0.0,0.0,0.0,0.0,0.0,0.0,0.0,0.0,0.0,0.0,0.0,0.0,0.0,0.0,0.0,0.0,0.0,0.0,0.0,0.0,0.0,0.0,0.0,0.0,0.0,0.0,0.0,0.0,0.0,0.0,0.0,0.0,0.0,0.0,0.0,0.0,0.0,0.0,0.0,0.0,0.0,0.0,0.0,0.0,0.0,0.0,0.0,0.0,0.0,0.0,0.0,0.0,0.0,0.0,0.0,0.759,0.9072,1.0129,1.1025,1.1774,1.1806,1.1598,1.1203,1.0485,0.9527,0.0,0.0,0.0,0.0,0.0,0.0,0.0,0.0,0.0,0.0,0.0,0.0,0.0,0.0,0.0,0.0,0.0,0.0,0.0,0.0,0.0,0.0,0.0,0.0,0.0,0.0,0.0,0.0,0.0,0.0,0.0,0.0,0.0,0.0,0.0,0.0,0.0,0.0,0.0,0.0,0.0,0.0,1.0737,1.0761,0.0,0.0,0.0,1.0732,1.0956,0.0,0.0,0.0,0.0,0.0,0.0,0.0,0.0,0.0,0.0,0.0,0.0,0.0,0.0,0.0,0.0,0.0,0.0,0.0,0.0,0.0,0.0,0.0,0.0,0.0,0.0,0.0,0.0,0.0,0.0,0.0,0.0,0.0,0.0,0.0,0.0,0.0,0.0,0.0,0.0,0.0,0.0,0.0,0.0,0.0,0.0,0.0,0.0,0.0,0.0,0.0,0.0,0.0,0.0,0.0,0.0,0.0,0.8971,1.0265,1.1186,1.1661,1.1677,1.1508,1.1187,1.0328,0.0,0.0,0.0,0.0,0.0,0.0,0.0,0.0,0.0,0.0,0.0,0.0,0.0,0.0,0.0,0.0,0.0,0.0,0.0,0.0,0.0,0.0,0.0,0.0,0.0,0.0,0.0,0.5263,0.0,0.0,0.0,0.0,0.0,0.0,0.0,0.0,0.0,0.0,0.0,0.0,0.0,0.0,1.0563,1.1016,1.116,1.124,0.0,0.0,1.1281,1.1373,1.1281,1.0899,0.0,0.0,0.0,0.0,0.0,0.0,0.0,0.0,0.0,0.0,0.0,0.0,0.0,0.0,0.0,0.0,0.0,0.0,0.0,0.0,0.0,0.0,0.0,0.0,0.0,0.0,0.0,0.0,0.0,0.0,0.0,0.0,0.0,0.0,0.0,0.0,0.0,0.0,0.0,0.0,0.0,0.0,0.0,0.0,0.0,0.0,0.0,0.0,0.0,0.0,0.0,0.0,0.0,0.0,0.0,0.8652,1.0,1.0918,1.1322,1.1329,1.1284,1.1195,1.0834,0.9884,0.0,0.0,0.0,0.0,0.0,0.0,0.0,0.0,0.0,0.0,0.0,0.0,0.0,0.0,0.0,0.0,0.0,0.0,0.0,0.0,0.0,0.0,0.0,0.0,0.0,0.0,0.0,0.0,0.0,0.0,0.0,0.0,0.0,0.0,0.0,0.0,0.0,0.0,0.0,0.0,0.0,1.0468,1.0703,1.1013,1.1431,0.0,0.0,1.1932,1.194,1.2231,1.1979,1.0588,0.0,0.0,0.0,0.0,0.0,0.0,0.0,0.0,0.0,0.0,0.0,0.0,0.0,0.0,0.0,0.0,0.0,0.0,0.0,0.0,0.0,0.0,0.0,0.0,0.0,0.0,0.0,0.0,0.0,0.0,0.0,0.0,0.0,0.0,0.0,0.0,0.0,0.0,0.0,0.0,0.0,0.0,0.0,0.0,0.0,0.0,0.0,0.0,0.0,0.0,0.0,0.0,0.0,0.7829,0.8775,0.9872,1.0721,1.1253,1.1299,1.1309,1.1395,1.1082,1.0235,0.0,0.0,0.0,0.0,0.0,0.0,0.0,0.0,0.0,0.0,0.0,0.0,0.0,0.0,0.0,0.0,0.0,0.0,0.0,0.0,0.0,0.0,0.0,0.0,0.0,0.0,0.0,0.0,0.6918,0.7031,0.7114,0.0,0.0,0.0,0.0,0.0,0.0,0.0,0.0,0.0,0.0,1.0673,1.0966,1.1321,0.0,0.0,1.1733,1.1725,1.1865,1.1665,1.1293,1.0669,1.0205,0.0,0.0,0.0,0.0,0.0,0.0,0.0,0.0,0.0,0.0,0.0,0.0,0.0,0.0,0.0,0.0,0.0,0.0,0.0,0.0,0.0,0.0,0.0,0.0,0.0,0.0,0.0,0.0,0.0,0.0,0.0,0.0,0.0,0.0,0.0,0.0,0.0,0.0,0.0,0.0,0.0,0.0,0.0,0.0,0.0,0.0,0.0,0.0,0.0,0.0,0.0,0.0,0.7062,0.777,0.8613,0.9297,0.9825,0.9923,1.0035,1.0184,0.9996,0.9341,0.0,0.0,0.0,0.0,0.0,0.0,0.0,0.0,0.0,0.0,0.0,0.0,0.0,0.0,0.0,0.0,0.0,0.0,0.0,0.0,0.0,0.0,0.0,0.0,0.0,0.0,0.0,0.0,0.7288,0.7342,0.7218,0.0,0.0,0.0,0.0,0.0,0.0,0.0,0.0,0.0,0.0,1.0747,1.1092,1.137,1.1574,1.1587,1.1605,1.1605,1.1635,1.1322,1.0981,1.0684,0.0,0.0,0.0,0.0,0.0,0.0,0.0,0.0,0.0,0.0,0.0,0.0,0.0,0.0,0.0,0.0,0.0,0.0,0.0,0.0,0.0,0.0,0.0,0.0,0.0,0.0,0.0,0.4545,0.0,0.0,0.408,0.0,0.0,0.0,0.0,0.0,0.0,0.0,0.0,0.0,0.0,0.0,0.0,0.0,0.0,0.0,0.0,0.0,0.0,0.0,0.0,0.0,0.0,0.5341,0.53,0.5978,0.6369,0.6586,0.6844,0.7135,0.7264,0.7274,0.6958,0.6207,0.0,0.0,0.0,0.0,0.0,0.0,0.0,0.0,0.0,0.0,0.0,0.0,0.0,0.0,0.0,0.0,0.0,0.0,0.0,0.0,0.0,0.0,0.0,0.0,0.0,0.0,0.7167,0.7537,0.7621,0.0,0.0,0.0,0.0,0.0,0.0,0.0,0.0,0.0,0.0,1.0032,1.0562,1.093,1.1115,1.1361,1.1718,1.1776,1.1672,1.1349,1.1488,1.1414,0.0,0.0,0.0,0.0,0.0,0.0,0.0,0.0,0.0,0.0,0.0,0.0,0.0,0.0,0.0,0.0,0.0,0.0,0.0,0.0,0.0,0.0,0.0,0.0,0.0,0.0,0.0,0.3846,0.3457,0.0,0.0,0.0,0.0,0.0,0.0,0.0,0.0,0.0,0.0,0.0,0.4067,0.3479,0.0,0.0,0.0,0.0,0.0,0.0,0.0,0.0,0.0,0.0,0.0,0.0,0.4822,0.52,0.5628,0.6017,0.6377,0.6503,0.6703,0.6948,0.6862,0.6409,0.56,0.0,0.0,0.0,0.0,0.0,0.0,0.0,0.0,0.0,0.0,0.0,0.0,0.0,0.0,0.0,0.0,0.0,0.0,0.0,0.0,0.0,0.0,0.0,0.0,0.0,0.7118,0.0,0.0,0.0,0.0,0.0,0.0,0.0,0.0,0.0,0.0,0.0,0.9802,1.0231,1.0554,1.0783,1.0919,1.109,1.1254,0.0,0.0,0.0,0.0,0.0,0.0,0.0,0.0,0.0,0.0,0.0,0.0,0.0,0.0,1.1393,1.0171,0.9853,0.9756,0.9756,0.0,0.0,0.0,0.0,0.0,0.0,0.0,0.0,0.0,0.0,0.0,0.0,0.0,0.0,0.3483,0.0,0.2982,0.0,0.0,0.0,0.0,0.0,0.0,0.0,0.0,0.2534,0.2799,0.3491,0.2927,0.2852,0.0,0.3184,0.3427,0.0,0.0,0.0,0.0,0.0,0.0,0.0,0.0,0.3816,0.411,0.4294,0.4543,0.4851,0.4977,0.5161,0.5345,0.5301,0.4974,0.4369,0.4337,0.4256,0.0,0.0,0.0,0.0,0.0,0.0,0.0,0.0,0.0,0.0,0.0,0.0,0.0,0.0,0.0,0.0,0.0,0.0,0.0,0.0,0.0,0.0,0.0,0.633,0.0,0.0,0.0,0.0,0.0,0.0,0.0,0.0,0.0,0.9521,0.9949,1.0433,1.0941,1.105,1.1083,1.1144,0.0,0.0,0.0,0.0,0.0,0.0,0.0,1.1029,1.1393,1.1386,1.1503,1.2059,1.2452,1.2554,1.2169,0.0,0.0,1.1082,1.0841,1.0795,1.0795,1.0909,1.103,1.1119,1.1375,1.1589,0.0,0.0,0.0,0.0,0.0,0.0,0.0,0.0,0.3717,0.3546,0.0,0.3081,0.0,0.0,0.0,0.0,0.0,0.1803,0.0,0.0,0.192,0.1976,0.1956,0.2009,0.1977,0.1926,0.2005,0.235,0.2947,0.3033,0.0,0.0,0.0,0.0,0.0,0.0,0.2279,0.2133,0.2018,0.1977,0.2068,0.2376,0.2529,0.2527,0.2695,0.2766,0.2637,0.3223,0.3332,0.2919,0.3581,0.0,0.0,0.0,0.0,0.0,0.0,0.0,0.0,0.0,0.0,0.0,0.0,0.0,0.0,0.0,0.0,0.0,0.0,0.0,0.0,0.4848,0.0,0.0,0.0,0.0,0.0,0.0,0.0,0.0,0.0,0.0,0.9978,1.0437,1.0968,1.1509,0.0,0.0,0.0,0.0,1.1409,1.1416,1.1538,1.1556,1.145,1.1805,1.1989,1.1708,0.0,0.0,1.2366,1.2737,1.2935,1.2753,1.2901,1.2935,1.2576,1.2261,1.2108,1.2108,1.1955,1.1925,1.2098,1.2312,1.2492,0.3377,0.0,0.0,0.0,0.0,0.3788,0.3602,0.3653,0.3051,0.2587,0.2276,0.2201,0.0,0.0,0.0,0.0,0.0,0.0,0.171,0.1843,0.1966,0.202,0.2045,0.2063,0.2062,0.2045,0.2008,0.2103,0.2282,0.225,0.2394,0.2639,0.0,0.0,0.0,0.0,0.1892,0.1898,0.1943,0.1999,0.2008,0.2099,0.2162,0.216,0.215,0.222,0.2368,0.2515,0.2601,0.2621,0.3051,0.0,0.0,0.0,0.0,0.0,0.0,0.0,0.0,0.0,0.0,0.0,0.0,0.0,0.0,0.0,0.0,0.0,0.0,0.0,0.4719,0.4556,0.4472,0.0,0.0,0.0,0.0,0.0,0.0,0.0,0.0,0.0,0.7892,0.9929,1.1504,0.0,0.0,1.1721,1.1762,1.1692,1.1742,1.1887,1.1999,0.0,1.204,1.2084,1.222,1.2522,1.2983,1.3322,1.3342,1.3505,1.3531,1.3484,1.3518,1.3518,1.3409,1.3044,1.2771,1.2744,1.2785,1.2833,1.2894,1.301,1.3146,0.2744,0.3746,0.341,0.3411,0.3582,0.3049,0.2895,0.2949,0.2463,0.2116,0.1917,0.1904,0.1818,0.17,0.1594,0.0,0.0,0.0,0.1873,0.1985,0.2015,0.208,0.2114,0.2127,0.2127,0.2114,0.2063,0.2049,0.2035,0.1982,0.2096,0.2314,0.0,0.0,0.1557,0.1671,0.1769,0.1845,0.1943,0.2008,0.2008,0.2008,0.2008,0.2006,0.1947,0.1977,0.2122,0.2098,0.2093,0.2209,0.2469,0.249,0.0,0.0,0.0,0.0,0.0,0.0,0.0,0.0,0.0,0.0,0.0,0.3225,0.2691,0.0,0.0,0.0,0.3483,0.3567,0.3435,0.3415,0.0,0.0,0.0,0.0,0.0,0.0,0.0,0.5933,0.6418,0.6884,0.7199,0.8837,1.0378,1.135,1.1855,1.2152,1.2152,0.0,1.2128,1.2223,1.2366,1.2508,1.2617,1.2601,1.271,1.3146,1.3546,1.3817,1.3912,1.3937,1.3977,1.4021,1.4021,1.4,1.3939,1.3634,1.3418,1.3329,1.3424,1.3567,1.3574,1.3649,1.3668,0.2212,0.2194,0.2005,0.1971,0.1997,0.2022,0.2048,0.21,0.2042,0.206,0.2104,0.205,0.2009,0.2009,0.1865,0.0,0.1916,0.1974,0.2048,0.2105,0.2099,0.2113,0.2114,0.2175,0.2174,0.2113,0.2113,0.2098,0.2105,0.21,0.2057,0.1914,0.1859,0.1814,0.1806,0.1809,0.1852,0.1907,0.1966,0.201,0.2008,0.2008,0.1975,0.2003,0.1944,0.1883,0.1883,0.185,0.1808,0.1807,0.1903,0.1869,0.1703,0.0,0.0,0.0,0.0,0.0,0.0,0.0,0.0,0.0,0.0,0.0,0.0,0.0,0.0,0.0,0.2808,0.0,0.186,0.1869,0.0,0.0,0.0,0.2953,0.4874,0.4847,0.5054,0.5897,0.0,0.0,0.7117,0.7349,0.8156,0.9881,1.1514,1.2582,1.2726,1.2637,1.2556,1.2542,1.2684,1.2841,1.3112,1.3234,1.3363,1.3607,1.3899,1.4075,1.4095,1.417,1.4272,1.4251,1.4265,1.4211,1.4119,1.4057,1.4027,1.3815,1.3933,1.4078,1.4071,1.4071,1.4034,0.223,0.2206,0.2157,0.2127,0.2147,0.2154,0.2182,0.2165,0.2159,0.215,0.2108,0.2061,0.2071,0.2074,0.2052,0.2031,0.2067,0.2075,0.2131,0.2165,0.2174,0.2178,0.2178,0.2185,0.2185,0.2178,0.2178,0.2174,0.2165,0.2143,0.2089,0.2033,0.2046,0.199,0.1873,0.192,0.1953,0.1997,0.1974,0.203,0.2009,0.2008,0.1997,0.1943,0.1913,0.1883,0.1822,0.18,0.1792,0.1804,0.1799,0.1752,0.1638,0.1614,0.0,0.0,0.0,0.0,0.0,0.0,0.0,0.0,0.0,0.204,0.1548,0.0,0.2053,0.0,0.1998,0.2023,0.1907,0.1877,0.0,0.0,0.332,0.3667,0.3294,0.4094,0.4375,0.3582,0.3696,0.387,0.3903,0.5158,0.6172,0.6692,0.9216,1.1505,1.2801,1.3077,1.3016,1.2901,1.299,1.3261,1.3225,1.3641,1.3779,1.3953,1.4079,1.4245,1.4245,1.4177,1.4122,1.4116,1.4027,1.3903,1.3862,1.3987,1.4055,1.4021,1.396,1.3933,1.4041,1.4119,1.4153,0.23,0.2248,0.2249,0.2232,0.224,0.2191,0.2203,0.221,0.2208,0.2192,0.2129,0.2129,0.2153,0.2138,0.2136,0.2146,0.2128,0.2129,0.2172,0.2188,0.2189,0.2189,0.2189,0.2189,0.2189,0.2189,0.2189,0.2189,0.2188,0.2171,0.2129,0.2129,0.2146,0.2113,0.2033,0.2037,0.2038,0.2038,0.2026,0.2011,0.2027,0.2013,0.1955,0.1913,0.1895,0.1858,0.1802,0.1794,0.1792,0.1766,0.1718,0.1679,0.1619,0.1583,0.153,0.0,0.0,0.0,0.0,0.0,0.0,0.0,0.0,0.0,0.0,0.0,0.1774,0.1769,0.1851,0.1988,0.2119,0.2155,0.2241,0.2412,0.3124,0.3339,0.267,0.3335,0.3501,0.2728,0.2687,0.2765,0.2824,0.365,0.4664,0.5459,0.7198,0.9281,1.1576,1.2121,1.2096,1.2035,1.2139,1.1921,1.1205,1.1349,1.1608,1.157,1.1626,1.1715,1.1715,1.1659,1.1815,1.2588,1.2774,1.3001,1.3601,1.3966,1.4098,1.3973,1.3899,1.3889,1.4122,1.4122,1.4102,0.2337,0.2296,0.2296,0.2283,0.2294,0.2232,0.2202,0.2206,0.2206,0.2189,0.2195,0.219,0.2189,0.2189,0.2189,0.2189,0.2189,0.2189,0.2189,0.2122,0.2189,0.2155,0.2054,0.2155,0.2189,0.2122,0.2155,0.2189,0.2189,0.2189,0.2189,0.2189,0.2189,0.2189,0.2186,0.2135,0.2106,0.2102,0.2039,0.2023,0.2018,0.2026,0.1951,0.1919,0.1879,0.1862,0.1802,0.1798,0.1747,0.1699,0.1699,0.169,0.1637,0.1605,0.1577,0.0,0.1543,0.0,0.0,0.0,0.0,0.0,0.0,0.0,0.0,0.1913,0.1966,0.2012,0.2076,0.2215,0.2413,0.2482,0.2514,0.2597,0.2597,0.2617,0.262,0.2666,0.2699,0.2696,0.2761,0.2777,0.2776,0.2777,0.3483,0.4873,0.5281,0.6594,0.9412,1.0311,1.0471,1.0466,1.0471,1.0058,0.8852,0.8546,0.8688,0.8544,0.8759,0.8532,0.8742,0.8682,0.9044,1.046,1.088,1.1383,1.2858,1.3311,1.3587,1.3395,1.3604,1.395,1.4177,1.4156,1.4125,0.2354,0.2296,0.2296,0.2293,0.2288,0.2283,0.225,0.2202,0.2202,0.2185,0.2191,0.2199,0.2189,0.2189,0.2189,0.2189,0.2189,0.2189,0.2021,0.1717,0.2054,0.1885,0.138,0.1918,0.2021,0.175,0.2054,0.2189,0.2189,0.2189,0.2189,0.2189,0.2189,0.2189,0.2188,0.0,0.0,0.0,0.2071,0.2044,0.2019,0.2014,0.197,0.1888,0.1838,0.0,0.1718,0.1714,0.1708,0.1699,0.1748,0.0,0.0,0.0,0.0,0.0,0.0,0.0,0.0,0.0,0.0,0.0,0.2016,0.199,0.1887,0.2099,0.2218,0.2173,0.23,0.2387,0.2484,0.2545,0.2568,0.259,0.2646,0.2679,0.268,0.2752,0.2766,0.2697,0.27,0.2704,0.2704,0.2746,0.2887,0.3352,0.3338,0.423,0.6351,0.7955,0.8761,0.8654,0.8692,0.8738,0.8566,0.8405,0.82,0.8521,0.8492,0.8419,0.8307,0.8238,0.8307,0.8848,0.8783,0.8813,0.9248,1.0521,1.1739,1.1705,1.2973,1.419,1.4129,1.4095,1.4153,0.2391,0.2339,0.2361,0.2245,0.0,0.2046,0.1918,0.1753,0.2096,0.2137,0.1924,0.174,0.166,0.1649,0.1649,0.1649,0.1683,0.1649,0.1548,0.1346,0.1582,0.1447,0.1111,0.1481,0.1548,0.138,0.1548,0.175,0.1885,0.1717,0.1851,0.2189,0.1987,0.2021,0.2189,0.2189,0.2181,0.2165,0.2102,0.2079,0.203,0.2002,0.1953,0.1881,0.1849,0.0,0.0,0.0,0.0,0.0,0.0,0.0,0.0,0.0,0.0,0.1838,0.1911,0.1941,0.1959,0.1966,0.2034,0.2159,0.2172,0.2172,0.208,0.2247,0.2341,0.2356,0.2425,0.2492,0.2552,0.2598,0.2649,0.2707,0.2742,0.2712,0.2699,0.2751,0.2748,0.2722,0.2673,0.2673,0.2673,0.2673,0.2685,0.2757,0.2773,0.3094,0.4203,0.5872,0.703,0.6875,0.6086,0.5676,0.5737,0.5731,0.577,0.569,0.5662,0.5632,0.5641,0.5568,0.5762,0.6574,0.6846,0.7105,0.8094,0.9166,0.9891,0.9979,1.0731,1.1871,1.2557,1.3518,1.4204,0.22,0.2194,0.2209,0.1976,0.1676,0.1691,0.1498,0.1239,0.0,0.0,0.0,0.1243,0.1095,0.1115,0.1115,0.1113,0.1111,0.1111,0.1077,0.101,0.1077,0.1043,0.0943,0.1043,0.1077,0.101,0.1043,0.1245,0.1515,0.1245,0.1414,0.1918,0.1683,0.1683,0.1987,0.2021,0.2021,0.1986,0.2096,0.2114,0.2108,0.206,0.1975,0.1918,0.1911,0.1872,0.1823,0.182,0.1842,0.1822,0.1851,0.1851,0.1843,0.1895,0.1945,0.2026,0.2141,0.2179,0.2128,0.217,0.2212,0.2232,0.2268,0.2341,0.2323,0.2367,0.2458,0.2518,0.2508,0.2559,0.2605,0.2682,0.272,0.277,0.278,0.2769,0.2693,0.2688,0.2677,0.2698,0.2694,0.2692,0.2694,0.2694,0.2701,0.2681,0.2695,0.2705,0.2955,0.4228,0.5184,0.5061,0.4154,0.3057,0.2886,0.3004,0.2824,0.3122,0.2927,0.2695,0.2688,0.2687,0.3272,0.4652,0.5012,0.5672,0.6959,0.7637,0.8044,0.8097,0.8409,0.9032,1.0594,1.2127,1.3344,0.1377,0.1363,0.1361,0.1321,0.1283,0.1267,0.1252,0.1203,0.1259,0.125,0.1173,0.1125,0.1111,0.1096,0.1096,0.1089,0.1111,0.1111,0.0909,0.0606,0.0943,0.0774,0.0202,0.0808,0.0909,0.0606,0.0909,0.1111,0.1178,0.1111,0.1178,0.1245,0.1212,0.1212,0.1245,0.1245,0.1245,0.1279,0.1849,0.217,0.211,0.2101,0.2036,0.1978,0.1984,0.1952,0.1884,0.1941,0.1984,0.1977,0.2028,0.2048,0.1996,0.2026,0.2081,0.2092,0.2152,0.2197,0.2187,0.2248,0.2305,0.2387,0.2351,0.242,0.248,0.2489,0.252,0.2579,0.2589,0.2631,0.2675,0.2669,0.2691,0.2701,0.2767,0.2761,0.2707,0.2701,0.2699,0.2692,0.2692,0.2692,0.2692,0.2692,0.2694,0.2702,0.2677,0.2747,0.2813,0.3007,0.3186,0.3225,0.301,0.2792,0.2823,0.2826,0.2772,0.2705,0.2697,0.2684,0.2706,0.2702,0.2875,0.3066,0.3316,0.3484,0.3864,0.4977,0.5906,0.618,0.716,0.8409,0.8899,0.9442,1.0595,0.1281,0.1235,0.1227,0.1071,0.0878,0.0637,0.0556,0.0553,0.0509,0.0648,0.0787,0.0604,0.0493,0.0521,0.0483,0.0514,0.051,0.0507,0.0404,0.0269,0.0404,0.0337,0.0067,0.0337,0.0404,0.0236,0.0404,0.0606,0.0741,0.0606,0.0707,0.1077,0.1111,0.1111,0.1111,0.1111,0.1111,0.1111,0.1414,0.1678,0.1834,0.182,0.1899,0.2036,0.2071,0.2049,0.2035,0.2048,0.2056,0.2056,0.2081,0.2098,0.2068,0.208,0.2104,0.2136,0.218,0.2218,0.2248,0.2305,0.2357,0.2399,0.2431,0.2462,0.2492,0.2493,0.2506,0.2533,0.2562,0.2605,0.2622,0.2668,0.2695,0.2695,0.2708,0.274,0.2702,0.2692,0.2692,0.2692,0.2692,0.2692,0.2692,0.2692,0.2692,0.2694,0.2706,0.272,0.2732,0.2735,0.2742,0.2755,0.2772,0.2766,0.2743,0.2748,0.2744,0.2676,0.2671,0.2665,0.2694,0.2692,0.2699,0.2713,0.275,0.2785,0.2804,0.3508,0.4072,0.4261,0.4751,0.5733,0.6675,0.7769,0.9244,0.1021,0.0981,0.0972,0.0735,0.0462,0.0113,0.0,0.0,0.0,0.0182,0.0396,0.0108,0.0,0.0,0.0,0.0,0.0,0.0,0.0,0.0,0.0,0.0,0.0,0.0,0.0,0.0,0.0,0.0135,0.0337,0.0135,0.0269,0.0808,0.0842,0.0842,0.0875,0.0842,0.0842,0.0842,0.0842,0.1043,0.1481,0.1465,0.1622,0.1853,0.1966,0.1987,0.1987,0.2084,0.2117,0.2117,0.2117,0.2095,0.2117,0.2127,0.2151,0.2196,0.2201,0.2233,0.23,0.2349,0.2429,0.2421,0.2451,0.252,0.251,0.2514,0.2518,0.2529,0.2572,0.2616,0.2617,0.2664,0.2695,0.2695,0.2695,0.2684,0.2698,0.2692,0.2692,0.2692,0.2692,0.2692,0.2692,0.2692,0.2692,0.2692,0.2692,0.2692,0.2692,0.2692,0.2703,0.2722,0.2748,0.2744,0.2701,0.2712,0.2717,0.2694,0.2692,0.2694,0.2692,0.2697,0.2703,0.2713,0.2755,0.2791,0.2799,0.288,0.3003,0.3098,0.3278,0.3549,0.4814,0.6027,0.7701,0.0,0.0118,0.0,0.0078,0.0,0.0,0.0,0.0,0.0,0.0,0.0,0.0,0.0,0.0,0.0,0.0,0.0,0.0,0.0,0.0,0.0,0.0,0.0,0.0,0.0,0.0,0.0,0.0,0.0,0.0,0.0,0.0101,0.0101,0.0,0.0,0.0,0.0,0.0,0.0101,0.0438,0.1111,0.1143,0.1176,0.1209,0.1476,0.1643,0.164,0.2012,0.2179,0.2181,0.2178,0.2181,0.2186,0.221,0.2193,0.2203,0.2255,0.2298,0.2292,0.236,0.2393,0.2421,0.2454,0.2521,0.2511,0.2514,0.2526,0.2551,0.2582,0.2622,0.2682,0.2673,0.2689,0.2691,0.2692,0.2684,0.2699,0.2692,0.2692,0.2692,0.2692,0.2692,0.2692,0.2692,0.2692,0.2692,0.2692,0.2692,0.2692,0.2692,0.2692,0.2697,0.2702,0.2702,0.2694,0.2694,0.2698,0.2692,0.2692,0.2692,0.2695,0.2669,0.2689,0.2687,0.2732,0.2812,0.2827,0.2852,0.2872,0.2919,0.2921,0.2971,0.3174,0.3586,0.4894,0.0,0.0,0.0,0.0,0.0,0.0,0.0,0.0,0.0,0.0,0.0,0.0,0.0,0.0,0.0,0.0,0.0,0.0,0.0,0.0,0.0,0.0,0.0,0.0,0.0,0.0,0.0,0.0,0.0,0.0,0.0,0.0,0.0,0.0,0.0,0.0,0.0,0.0,0.0,0.0168,0.0438,0.064,0.0875,0.1077,0.1212,0.1313,0.1313,0.1481,0.1548,0.1582,0.1717,0.1859,0.1907,0.2091,0.2217,0.2251,0.2293,0.2328,0.2357,0.2388,0.2418,0.2448,0.2478,0.2502,0.2512,0.2514,0.2519,0.2533,0.256,0.2594,0.2635,0.2667,0.2649,0.2706,0.2668,0.2706,0.2694,0.2692,0.2692,0.2692,0.2692,0.2692,0.2692,0.2692,0.2692,0.2692,0.2692,0.2692,0.2692,0.2692,0.2692,0.2692,0.2692,0.2692,0.2692,0.2692,0.2692,0.2692,0.2692,0.2692,0.2695,0.2701,0.2673,0.2691,0.2734,0.2811,0.2825,0.2852,0.2919,0.2919,0.2919,0.2878,0.2889,0.289,0.3827,0.0,0.0,0.0,0.0,0.0,0.0,0.0,0.0,0.0,0.0,0.0,0.0,0.0,0.0,0.0,0.0,0.0,0.0,0.0,0.0,0.0,0.0,0.0,0.0,0.0,0.0,0.0,0.0,0.0,0.0,0.0,0.0,0.0,0.0,0.0,0.0,0.0,0.0,0.0,0.0,0.0,0.0236,0.0505,0.0774,0.0875,0.0943,0.0943,0.1043,0.1111,0.1111,0.1346,0.149,0.1544,0.1759,0.1959,0.2152,0.2249,0.2346,0.2413,0.2406,0.2436,0.2505,0.2497,0.2514,0.2514,0.2514,0.2514,0.2517,0.2575,0.256,0.2598,0.2587,0.2618,0.2687,0.2692,0.2692,0.2692,0.2692,0.2692,0.2692,0.2692,0.2692,0.2692,0.2692,0.2692,0.2692,0.2692,0.2692,0.2692,0.2692,0.2692,0.2692,0.2692,0.2692,0.2692,0.2692,0.2692,0.2692,0.2692,0.2692,0.2694,0.2698,0.2665,0.2696,0.2727,0.2799,0.2825,0.2852,0.2919,0.2919,0.2919,0.2919,0.2878,0.292,0.292,0.0,0.0,0.0,0.0,0.0,0.0,0.0,0.0,0.0,0.0,0.0,0.0,0.0,0.0,0.0,0.0,0.0,0.0,0.0,0.0,0.0,0.0,0.0,0.0,0.0,0.0,0.0,0.0,0.0,0.0,0.0,0.0,0.0,0.0,0.0,0.0,0.0,0.0,0.0,0.0,0.0,0.0,0.0,0.0,0.037,0.0539,0.0572,0.0875,0.1077,0.1077,0.1112,0.1119,0.1134,0.1149,0.1384,0.1778,0.2114,0.2311,0.234,0.2371,0.2401,0.2467,0.2499,0.2514,0.2514,0.2514,0.2514,0.2514,0.2518,0.2541,0.2594,0.2585,0.2657,0.2687,0.2692,0.2692,0.2692,0.2692,0.2692,0.2692,0.2692,0.2692,0.2692,0.2692,0.2692,0.2692,0.2692,0.2692,0.2692,0.2692,0.2692,0.2692,0.2692,0.2692,0.2692,0.2692,0.2692,0.2692,0.2692,0.2692,0.2702,0.2671,0.2683,0.2704,0.274,0.2767,0.2785,0.2848,0.2867,0.2919,0.2919,0.2919,0.2919,0.2919,0.2919,-0.0942,0.0,0.0,0.0,0.0,0.0,0.0,0.0,0.0,0.0,0.0,0.0,0.0,0.0,0.0,0.0,0.0,0.0,0.0,0.0,0.0,0.0,0.0,0.0,0.0,0.0,0.0,0.0,0.0,0.0,0.0,0.0,0.0,0.0,0.0,0.0,0.0,0.0,0.0,0.0,0.0,0.0,0.0,0.0,0.0101,0.0168,0.0202,0.0337,0.0405,0.0375,0.058,0.0724,0.081,0.1036,0.1228,0.1385,0.1506,0.1596,0.1653,0.1864,0.2041,0.2104,0.235,0.2475,0.2514,0.2514,0.2514,0.2514,0.2514,0.2541,0.2587,0.2612,0.2638,0.2682,0.2692,0.2692,0.2692,0.2692,0.2692,0.2692,0.2692,0.2692,0.2692,0.2692,0.2692,0.2692,0.2692,0.2692,0.2692,0.2692,0.2692,0.2692,0.2692,0.2692,0.2692,0.2692,0.2692,0.2692,0.2692,0.2692,0.2698,0.2701,0.2666,0.2695,0.2736,0.2812,0.2826,0.2853,0.2871,0.2829,0.2829,0.2784,0.2919,0.2694,0.2739,-0.2312,-0.0903,-0.0824,-0.0471,0.0,0.0,0.0,0.0,0.0,0.0,0.0,0.0,0.0,0.0,0.0,0.0,0.0,0.0,0.0,0.0,0.0,0.0,0.0,0.0,0.0,0.0,0.0,0.0,0.0,0.0,0.0,0.0,0.0,0.0,0.0,0.0,0.0,0.0,0.0,0.0,0.0,0.0,0.0,0.0,0.0,0.0,0.0,0.0,0.0,0.0,0.0207,0.0349,0.0428,0.0797,0.1022,0.1023,0.1144,0.1195,0.1211,0.1456,0.1628,0.1726,0.2082,0.2318,0.2318,0.2396,0.2475,0.2515,0.2526,0.2551,0.2589,0.2611,0.2638,0.2682,0.2692,0.2692,0.2692,0.2692,0.2692,0.2692,0.2692,0.2692,0.2692,0.2692,0.2692,0.2692,0.2692,0.2692,0.2692,0.2692,0.2692,0.2692,0.2692,0.2692,0.2692,0.2692,0.2692,0.2692,0.2692,0.2692,0.2692,0.2692,0.266,0.2689,0.2722,0.2799,0.2829,0.2857,0.2779,0.2694,0.2604,0.247,0.2425,0.2335,0.238,-0.4033,-0.2585,-0.2468,-0.149,0.0,0.0,0.0,0.0,0.0,0.0,0.0,0.0,0.0,0.0,0.0,0.0,0.0,0.0,0.0,0.0,0.0,0.0,0.0,0.0,0.0,0.0,0.0,0.0,0.0,0.0,0.0,0.0,0.0,0.0,0.0,0.0,0.0,0.0,0.0,0.0,0.0,0.0,0.0,0.0,0.0,0.0,0.0,0.0,0.0,0.0,0.0,0.0,0.0,0.0399,0.062,0.0659,0.0924,0.1122,0.1136,0.115,0.1243,0.1332,0.1689,0.1886,0.1964,0.22,0.2396,0.2439,0.2497,0.2568,0.2597,0.2582,0.261,0.2687,0.2692,0.2692,0.2692,0.2692,0.2692,0.2692,0.2692,0.2692,0.2692,0.2692,0.2692,0.2692,0.2692,0.2692,0.2692,0.2692,0.2692,0.2692,0.2692,0.2692,0.2692,0.2692,0.2692,0.2692,0.2692,0.2692,0.2692,0.2692,0.2573,0.2555,0.2329,0.2402,0.2401,0.2377,0.2333,0.2245,0.22,0.2066,0.1976,0.1886,0.1931,-0.5753,-0.4112,-0.2977,-0.2234,-0.1568,-0.051,0.0,0.0,0.0,0.0,0.0,0.0,0.0,0.0,0.0,0.0,0.0,0.0,0.0,0.0,0.0,0.0,0.0,0.0,0.0,0.0,0.0,0.0,0.0,0.0,0.0,0.0,0.0,0.0,0.0,0.0,0.0,0.0,0.0,0.0,0.0,0.0,0.0,0.0,0.0,0.0,0.0,0.0,0.0,0.0,0.0,0.0,0.0,0.0109,0.0183,0.0185,0.0299,0.0378,0.0421,0.062,0.0782,0.0903,0.1217,0.1453,0.1492,0.161,0.1807,0.2043,0.2129,0.2228,0.2509,0.2609,0.2599,0.2687,0.2692,0.2692,0.2692,0.2692,0.2692,0.2692,0.2692,0.2692,0.2692,0.2692,0.2692,0.2692,0.2692,0.2692,0.2692,0.2692,0.2692,0.2692,0.2692,0.2692,0.2692,0.2692,0.2692,0.2692,0.2692,0.2566,0.2608,0.2568,0.249,0.2297,0.2069,0.1968,0.1959,0.1931,0.1931,0.1795,0.166,0.1525,0.1436,0.139,0.1388,-0.7439,-0.5835,-0.4776,-0.3955,-0.3251,-0.1647,0.0,-0.0824,-0.0236,0.0,0.0,0.0,0.0,0.0,0.0,0.0,0.0,0.0,0.0,0.0,0.0,0.0,0.0,0.0,0.0,0.0,0.0,0.0,0.0,0.0,0.0,0.0,0.0,0.0,0.0,0.0,0.0,0.0,0.0,0.0,0.0,0.0,0.0,0.0,0.0,0.0,0.0,0.0,0.0,0.0,0.0,0.0,0.0,0.0,0.0,0.0,0.0,0.0,0.0,0.0234,0.0393,0.0471,0.0785,0.1021,0.106,0.1139,0.1415,0.1619,0.167,0.1885,0.2283,0.2385,0.2487,0.2687,0.2692,0.2692,0.2692,0.2692,0.2692,0.2692,0.2692,0.2692,0.2692,0.2692,0.2692,0.2692,0.2692,0.2692,0.2692,0.2692,0.2692,0.2692,0.2692,0.2692,0.2692,0.2692,0.2692,0.2692,0.2692,0.2524,0.2397,0.2314,0.2233,0.1921,0.1686,0.1663,0.1647,0.1613,0.1526,0.1346,0.1121,0.0984,0.0849,0.0758,0.0758,-0.908,-0.7712,-0.7478,-0.646,-0.4975,-0.3329,-0.2626,-0.2391,-0.1177,0.0,0.0,0.0,0.0,0.0,0.0,0.0,0.0,0.0,0.0,0.0,0.0,0.0,0.0,0.0,0.0,0.0,0.0,0.0,0.0,0.0,0.0,0.0,0.0,0.0,0.0,0.0,0.0,0.0,0.0,0.0,0.0,0.0,0.0,0.0,0.0,0.0,0.0,0.0,0.0,0.0,0.0,0.0,0.0,0.0,0.0,0.0,0.0,0.0,0.0,0.0,0.0,0.0,0.0353,0.055,0.0628,0.0866,0.1107,0.1236,0.125,0.1469,0.1816,0.1955,0.2137,0.2522,0.2608,0.265,0.2692,0.2692,0.2692,0.2692,0.2692,0.2692,0.2692,0.2692,0.2692,0.2692,0.2692,0.2692,0.265,0.265,0.265,0.2566,0.244,0.2313,0.2187,0.2187,0.2187,0.2187,0.2229,0.2188,0.2064,0.1938,0.1774,0.1497,0.1254,0.1271,0.0,0.0,0.0,0.0763,0.0582,0.0401,0.0,0.0,0.0,-0.9747,-0.9197,-0.8024,-0.724,-0.6616,-0.505,-0.4349,-0.431,-0.3879,-0.2816,-0.2063,-0.1851,-0.118,0.0,0.0,0.0,0.0,0.0,0.0,0.0,0.0,0.0,0.0,0.0,0.0,0.0,0.0,0.0,0.0,0.0,0.0,0.0,0.0,0.0,0.0,0.0,0.0,0.0,0.0,0.0,0.0,0.0,0.0,0.0,0.0,0.0,0.0,0.0,0.0,0.0,0.0,0.0,0.0,0.0,0.0,0.0,0.0,0.0,0.0,0.0,0.0,0.0,0.0,0.0,0.0157,0.0,0.0,0.0681,0.0768,0.0982,0.1363,0.1495,0.1586,0.1722,0.2229,0.2608,0.2608,0.2692,0.2692,0.2692,0.265,0.265,0.265,0.2692,0.265,0.265,0.265,0.2608,0.2482,0.2313,0.2187,0.2061,0.1934,0.1724,0.164,0.164,0.1598,0.1556,0.164,0.1767,0.1603,0.1439,0.1189,0.0899,0.069,0.061,0.0,0.0,0.0,0.0,0.0,0.0,0.0,0.0,0.0,-1.0019,-0.9942,-0.8964,-0.8569,-0.8336,-0.6772,-0.603,-0.5874,-0.5248,-0.4505,-0.3673,-0.356,-0.26,-0.1134,0.0,0.0,0.0,0.0,0.0,0.0,0.0,0.0,0.0,0.0,0.0,0.0,0.0,0.0,0.0,0.0,0.0,0.0,0.0,0.0,0.0,0.0,0.0,0.0,0.0,0.0,0.0,0.0,0.0,0.0,0.0,0.0,0.0,0.0,0.0,0.0,0.0,0.0,0.0,0.0,0.0,0.0,0.0,0.0,0.0,0.0,0.0,0.0,0.0,0.0,0.0,0.0,0.012,0.0284,0.0327,0.0577,0.0956,0.1209,0.1296,0.1428,0.1808,0.2103,0.2103,0.2061,0.2103,0.2145,0.2271,0.2397,0.2397,0.2566,0.2566,0.244,0.2355,0.2229,0.2061,0.185,0.1682,0.1598,0.1514,0.1388,0.1346,0.1346,0.1304,0.122,0.1094,0.122,0.1139,0.0,0.0,0.0,0.0,0.0,0.0,0.0,0.0,0.0,0.0,0.0,0.0,0.0,0.0,-1.0019,-1.0019,-1.0019,-1.0019,-0.9708,-0.8414,-0.7751,-0.7474,-0.642,-0.56,-0.5315,-0.5266,-0.4249,-0.2758,-0.2695,0.0,0.0,0.0,0.0,0.0,0.0,0.0,0.0,0.0,0.0,0.0,0.0,0.0,0.0,0.0,0.0,0.0,0.0,0.0,0.0,0.0,0.0,0.0,0.0,0.0,0.0,0.0,0.0,0.0,0.0,0.0,0.0,0.0,0.0,0.0,0.0,0.0,0.0,0.0,0.0,0.0,0.0,0.0,0.0,0.0,0.0,0.0,0.0,0.0,0.0,0.0,0.0,0.0,0.0,0.0,0.0545,0.0925,0.1051,0.1051,0.1135,0.1135,0.1178,0.1262,0.1304,0.1346,0.1724,0.1892,0.2018,0.2229,0.2355,0.1976,0.1934,0.185,0.164,0.1431,0.1304,0.122,0.1178,0.1093,0.1093,0.1093,0.1009,0.0967,0.0716,0.0631,0.0632,0.0,0.0,0.0,0.0,0.0,0.0,0.0,0.0,0.0,0.0,0.0,0.0,0.0,0.0,-1.0019,-1.0019,-1.0019,-1.0019,-0.9942,-0.963,-0.9431,-0.9353,-0.9041,-0.7985,-0.7197,-0.6983,-0.5928,-0.4303,-0.4322,-0.4052,-0.35,-0.3348,-0.3094,-0.1711,-0.0474,0.0,0.0,0.0,0.0,0.0,0.0,0.0,0.0,0.0,0.0,0.0,0.0,0.0,0.0,0.0,0.0,0.0,0.0,0.0,0.0,0.0,0.0,0.0,0.0,0.0,0.0,0.0,0.0,0.0,0.0,0.0,0.0,0.0,0.0,0.0,0.0,0.0,0.0,0.0,0.0,0.0,0.0,0.0,0.0,0.0,0.0,0.0,0.0,0.0,0.0,0.0,0.0,0.0,0.0,0.0,0.0379,0.0883,0.1178,0.1262,0.1346,0.1472,0.1472,0.1556,0.1598,0.1472,0.143,0.1388,0.0,0.0,0.0884,0.08,0.0674,0.0,0.0,0.0,0.0,0.0,0.0,0.0,0.0,0.0,0.0,0.0,0.0,0.0,0.0,0.0,0.0,0.0,0.0,0.0,0.0,0.0,0.0,-1.0019,-1.0019,-1.0019,-1.0019,-1.0019,-1.0019,-1.0019,-1.0019,-1.0019,-0.9514,-0.8842,-0.8686,-0.7642,-0.604,-0.5917,-0.5583,-0.4825,-0.4693,-0.4257,-0.3385,-0.255,-0.1858,-0.1129,-0.0984,0.0,0.0,0.0,0.0,0.0,0.0,0.0,0.0,0.0,0.0,0.0,0.0,0.0,0.0,0.0,0.0,0.0,0.0,0.0,0.0,0.0,0.0,0.0,0.0,0.0,0.0,0.0,0.0,0.0,0.0,0.0,0.0,0.0,0.0,0.0,0.0,0.0,0.0,0.0,0.0,0.0,0.0,0.0,0.0,0.0,0.0,0.0,0.0,0.0,0.0,0.0,0.0,0.0,0.0,0.0673,0.0757,0.0842,0.0968,0.1052,0.1093,0.1094,0.1094,0.101,0.0,0.0,0.0,0.0,0.0295,0.0168,0.0,0.0,0.0,0.0,0.0,0.0,0.0,0.0,0.0,0.0,0.0,0.0,0.0,0.0,0.0,0.0,0.0,0.0,0.0,0.0,0.0,0.0,-1.0019,-1.0019,-1.0019,-1.0019,-1.0019,-1.0019,-1.0019,-1.0019,-1.0019,-0.9942,-0.998,-1.0019,-0.8919,-0.7918,-0.7657,-0.6734,-0.5816,-0.5165,-0.5129,-0.502,-0.4402,-0.3603,-0.2876,-0.2548,-0.2148,-0.0766,0.0,0.0,0.0,0.0,0.0,0.0,0.0,0.0,0.0,0.0,0.0,0.0,0.0,0.0,0.0,0.0,0.0,0.0,0.0,0.0,0.0,0.0,0.0,0.0,0.0,0.0,0.0,0.0,0.0,0.0,0.0,0.0,0.0,0.0,0.0,0.0,0.0,0.0,0.0,0.0,0.0,0.0,0.0,0.0,0.0,0.0,0.0,0.0,0.0,0.0,0.0,0.0,0.0,0.0126,0.0379,0.0547,0.0674,0.0715,0.0716,0.0,0.0,0.0,0.0,0.0,0.0,0.0,0.0,0.0,0.0,0.0,0.0,0.0,0.0,0.0,0.0,0.0,0.0,0.0,0.0,0.0,0.0,0.0,0.0,0.0,0.0,0.0,0.0,0.0,0.0,-1.0019,-1.0019,-1.0019,-1.0019,-1.0019,-1.0019,-1.0019,-1.0019,-1.0019,-1.0019,-1.0019,-1.0014,-0.9735,-0.9267,-0.9291,-0.8933,-0.7961,-0.7159,-0.6616,-0.6398,-0.5673,-0.469,-0.4439,-0.4293,-0.4039,-0.3239,-0.1749,0.0,0.0,0.0,0.0,0.0,0.0,0.0,0.0,0.0,0.0,0.0,0.0,0.0,0.0,0.0,0.0,0.0,0.0,0.0,0.0,0.0,0.0,0.0,0.0,0.0,0.0,0.0,0.0,0.0,0.0,0.0,0.0,0.0,0.0,0.0,0.0,0.0,0.0,0.0,0.0,0.0,0.0,0.0,0.0,0.0,0.0,0.0,0.0,0.0,0.0,0.0,0.0,0.0,0.0,0.0,0.0,0.0,0.0,0.0,0.0,0.0,0.0,0.0,0.0,0.0,0.0,0.0,0.0,0.0,0.0,0.0,0.0,0.0,0.0,0.0,0.0,0.0,0.0,0.0,0.0,0.0,0.0,0.0,0.0,0.0,0.0,0.0,0.0,-1.0019,-1.0019,-1.0019,-1.0019,-1.0019,-1.0019,-1.0019,-1.0019,-1.0019,-1.0019,-1.0019,-1.0008,-0.9888,-0.978,-0.9725,-0.9536,-0.9066,-0.8646,-0.8177,-0.7923,-0.7412,-0.6543,-0.6,-0.5891,-0.531,-0.4548,-0.3094,-0.1858,0.0,0.0,0.0,0.0,0.0,0.0,0.0,0.0,0.0,0.0,0.0,0.0,0.0,0.0,0.0,0.0,0.0,0.0,0.0,0.0,0.0,0.0,0.0,0.0,0.0,0.0,0.0,0.0,0.0,0.0,0.0,0.0,0.0,0.0,0.0,0.0,0.0,0.0,0.0,0.0,0.0,0.0,0.0,0.0,0.0,0.0,0.0,0.0,0.0,0.0,0.0,0.0,0.0,0.0,0.0,0.0,0.0,0.0,0.0,0.0,0.0,0.0,0.0,0.0,0.0,0.0,0.0,0.0,0.0,0.0,0.0,0.0,0.0,0.0,0.0,0.0,0.0,0.0,0.0,0.0,0.0,0.0,0.0,0.0,0.0,0.0,0.0,-1.0019,-1.0019,-1.0019,-1.0019,-1.0019,-1.0019,-1.0019,-1.0019,-1.0019,-1.0019,-1.0019,-1.0014,-0.9915,-0.9824,-0.9677,-0.9545,-0.9313,-0.923,-0.9157,-0.9121,-0.9013,-0.8466,-0.7779,-0.734,-0.6942,-0.6217,-0.5201,-0.433,-0.2766,-0.1384,-0.062,0.0,0.0,0.0,0.0,0.0,0.0,0.0,0.0,0.0,0.0,0.0,0.0,0.0,0.0,0.0,0.0,0.0,0.0,0.0,0.0,0.0,0.0,0.0,0.0,0.0,0.0,0.0,0.0,0.0,0.0,0.0,0.0,0.0,0.0,0.0,0.0,0.0,0.0,0.0,0.0,0.0,0.0,0.0,0.0,0.0,0.0,0.0,0.0,0.0,0.0,0.0,0.0,0.0,0.0,0.0,0.0,0.0,0.0,0.0,0.0,0.0,0.0,0.0,0.0,0.0,0.0,0.0,0.0,0.0,0.0,0.0,0.0,0.0,0.0,0.0,0.0,0.0,0.0,0.0,0.0,0.0,0.0,0.0,0.0,-1.0019,-1.0019,-1.0019,-1.0019,-1.0019,-1.0019,-1.0019,-1.0019,-1.0019,-1.0019,-1.0019,-1.0014,-0.9949,-0.9802,-0.9606,-0.9438,-0.934,-0.9302,-0.9302,-0.9302,-0.9266,-0.9157,-0.8977,-0.9049,-0.8652,-0.796,-0.7159,-0.5927,-0.4509,-0.2948,-0.1966,-0.1711,0.0,0.0,0.0,0.0,0.0,0.0,0.0,0.0,0.0,0.0,0.0,0.0,0.0,0.0,0.0,0.0,0.0,0.0,0.0,0.0,0.0,0.0,0.0,0.0,0.0,0.0,0.0,0.0,0.0,0.0,0.0,0.0,0.0,0.0,0.0,0.0,0.0,0.0,0.0,0.0,0.0,0.0,0.0,0.0,0.0,0.0,0.0,0.0,0.0,0.0,0.0,0.0,0.0,0.0,0.0,0.0,0.0,0.0,0.0,0.0,0.0,0.0,0.0,0.0,0.0,0.0,0.0,0.0,0.0,0.0,0.0,0.0,0.0,0.0,0.0,0.0,0.0,0.0,0.0,0.0,0.0,0.0,0.0,-1.0019,-1.0019,-1.0019,-1.0019,-1.0019,-1.0019,-1.0019,-1.0019,-1.0019,-1.0019,-1.0019,-1.0019,-0.9921,-0.9731,-0.9557,-0.9421,-0.9323,-0.9302,-0.9302,-0.9302,-0.9302,-0.9302,-0.9266,-0.9302,-0.9302,-0.9121,-0.8688,-0.8177,-0.6688,-0.4875,-0.3348,-0.2365,-0.1602,0.0,-0.0219,0.0,0.0,0.0,0.0,0.0,0.0,0.0,0.0,0.0,0.0,0.0,0.0,0.0,0.0,0.0,0.0,0.0,0.0,0.0,0.0,0.0,0.0,0.0,0.0,0.0,0.0,0.0,0.0,0.0,0.0,0.0,0.0,0.0,0.0,0.0,0.0,0.0,0.0,0.0,0.0,0.0,0.0,0.0,0.0,0.0,0.0,0.0,0.0,0.0,0.0,0.0,0.0,0.0,0.0,0.0,0.0,0.0,0.0,0.0,0.0,0.0,0.0,0.0,0.0,0.0,0.0,0.0,0.0,0.0,0.0,0.0,0.0,0.0,0.0,0.0,0.0,0.0,0.0,0.0,0.0,-1.0019,-1.0019,-1.0019,-1.0019,-1.0019,-1.0019,-1.0019,-1.0019,-1.0019,-1.0019,-1.0008,-0.9981,-0.984,-0.9687,-0.9525,-0.9421,-0.9307,-0.9302,-0.9302,-0.9302,-0.9302,-0.9302,-0.9302,-0.9302,-0.9302,-0.9302,-0.9193,-0.9013,-0.843,-0.7087,-0.5198,-0.3455,-0.2547,-0.1748,-0.0802,0.0,0.0,0.0,0.0,0.0,0.0,0.0,0.0,0.0,0.0,0.0,0.0,0.0,0.0,0.0,0.0,0.0,0.0,0.0,0.0,0.0,0.0,0.0,0.0,0.0,0.0,0.0,0.0,0.0,0.0,0.0,0.0,0.0,0.0,0.0,0.0,0.0,0.0,0.0,0.0,0.0,0.0,0.0,0.0,0.0,0.0,0.0,0.0,0.0,0.0,0.0,0.0,0.0,0.0,0.0,0.0,0.0,0.0,0.0,0.0,0.0,0.0,0.0,0.0,0.0,0.0,0.0,0.0,0.0,0.0,0.0,0.0,0.0,0.0,0.0,0.0,0.0,0.0,0.0,0.0,-1.0019,-1.0019,-1.0019,-1.0019,-1.0019,-1.0019,-1.0019,-1.0003,-1.0008,-1.0003,-0.997,-0.9856,-0.972,-0.9546,-0.9481,-0.9405,-0.9302,-0.9302,-0.9302,-0.9302,-0.9302,-0.9302,-0.9302,-0.9302,-0.9302,-0.9302,-0.9302,-0.9302,-0.9266,-0.8832,-0.763,-0.6612,-0.4255,-0.2801,-0.1603,0.0,0.0,0.0,0.0,0.0,0.0,0.0,0.0,0.0,0.0,0.0,0.0,0.0,0.0,0.0,0.0,0.0,0.0,0.0,0.0,0.0,0.0,0.0,0.0,0.0,0.0,0.0,0.0,0.0,0.0,0.0,0.0,0.0,0.0,0.0,0.0,0.0,0.0,0.0,0.0,0.0,0.0,0.0,0.0,0.0,0.0,0.0,0.0,0.0,0.0,0.0,0.0,0.0,0.0,0.0,0.0,0.0,0.0,0.0,0.0,0.0,0.0,0.0,0.0,0.0,0.0,0.0,0.0,0.0,0.0,0.0,0.0,0.0,0.0,0.0,0.0,0.0,0.0,0.0,0.0,-1.0019,-1.0019,-1.0019,-1.0019,-1.0019,-1.0019,-0.9976,-0.9878,-0.9867,-0.9862,-0.9802,-0.9748,-0.9644,-0.9503,-0.94,-0.9351,-0.9307,-0.9302,-0.9302,-0.9302,-0.9302,-0.9302,-0.9302,-0.9302,-0.9302,-0.9302,-0.9302,-0.9302,-0.9302,-0.9302,-0.9085,-0.7738,-0.5996,-0.4037,-0.2621,-0.1058,0.0,0.0,0.0,0.0,0.0,0.0,0.0,0.0,0.0,0.0,0.0,0.0,0.0,0.0,0.0,0.0,0.0,0.0,0.0,0.0,0.0,0.0,0.0,0.0,0.0,0.0,0.0,0.0,0.0,0.0,0.0,0.0,0.0,0.0,0.0,0.0,0.0,0.0,0.0,0.0,0.0,0.0,0.0,0.0,0.0,0.0,0.0,0.0,0.0,0.0,0.0,0.0,0.0,0.0,0.0,0.0,0.0,0.0,0.0,0.0,0.0,0.0,0.0,0.0,0.0,0.0,0.0,0.0,0.0,0.0,0.0,0.0,0.0,0.0,0.0,0.0,0.0,0.0,0.0,-1.0019,-1.0019,-1.0019,-1.0019,-1.0014,-0.9943,-0.9878,-0.9807,-0.9802,-0.972,-0.9654,-0.9649,-0.9546,-0.9432,-0.9356,-0.9307,-0.9302,-0.9302,-0.9302,-0.9302,-0.9302,-0.9302,-0.9302,-0.9302,-0.9302,-0.9302,-0.9302,-0.9302,-0.9302,-0.9302,-0.9193,-0.8868,-0.814,-0.6105,-0.4078,-0.1719,-0.0513,0.0,0.0,0.0,0.0,0.0,0.0,0.0,0.0,0.0,0.0,0.0,0.0,0.0,0.0,0.0,0.0,0.0,0.0,0.0,0.0,0.0,0.0,0.0,0.0,0.0,0.0,0.0,0.0,0.0,0.0,0.0,0.0,0.0,0.0,0.0,0.0,0.0,0.0,0.0,0.0,0.0,0.0,0.0,0.0,0.0,0.0,0.0,0.0,0.0,0.0,0.0,0.0,0.0,0.0,0.0,0.0,0.0,0.0,0.0,0.0,0.0,0.0,0.0,0.0,0.0,0.0,0.0,0.0,0.0,0.0,0.0,0.0,0.0,0.0,0.0,0.0,0.0,0.0,-0.9975,-1.0019,-0.997,-1.0008,-0.9981,-0.9856,-0.9796,-0.9753,-0.9709,-0.9606,-0.954,-0.9534,-0.9438,-0.9345,-0.9307,-0.9302,-0.9302,-0.9302,-0.9302,-0.9302,-0.9302,-0.9302,-0.9302,-0.9302,-0.9302,-0.9302,-0.9302,-0.9302,-0.9302,-0.9302,-0.9302,-0.9302,-0.8868,-0.8041,-0.6624,-0.3721,-0.1559,0.0,0.0,0.0,0.0,0.0,0.0,0.0,0.0,0.0,0.0,0.0,0.0,0.0,0.0,0.0,0.0,0.0,0.0,0.0,0.0,0.0,0.0,0.0,0.0,0.0,0.0,0.0,0.0,0.0,0.0,0.0,0.0,0.0,0.0,0.0,0.0,0.0,0.0,0.0,0.0,0.0,0.0,0.0,0.0,0.0,0.0,0.0,0.0,0.0,0.0,0.0,0.0,0.0,0.0,0.0,0.0,0.0,0.0,0.0,0.0,0.0,0.0,0.0,0.0,0.0,0.0,0.0,0.0,0.0,0.0,0.0,0.0,0.0,0.0,0.0,0.0,0.0,0.0,-0.9861,-0.9856,-0.9818,-0.9786,-0.9791,-0.9791,-0.9753,-0.9617,-0.9557,-0.9481,-0.9405,-0.9443,-0.9421,-0.9334,-0.9302,-0.9302,-0.9302,-0.9302,-0.9302,-0.9302,-0.9302,-0.9302,-0.9302,-0.9302,-0.9302,-0.9302,-0.9302,-0.9302,-0.9302,-0.9302,-0.9302,-0.9302,-0.921,-0.8474,-0.6672,-0.4213,-0.2029,-0.1504,0.0,0.0,0.0,0.0,0.0,0.0,0.0,0.0,0.0,0.0,0.0,0.0,0.0,0.0,0.0,0.0,0.0,0.0,0.0,0.0,0.0,0.0,0.0,0.0,0.0,0.0,0.0,0.0,0.0,0.0,0.0,0.0,0.0,0.0,0.0,0.0,0.0,0.0,0.0,0.0,0.0,0.0,0.0,0.0,0.0,0.0,0.0,0.0,0.0,0.0,0.0,0.0,0.0,0.0,0.0,0.0,0.0,0.0,0.0,0.0,0.0,0.0,0.0,0.0,0.0,0.0,0.0,0.0,0.0,0.0,0.0,0.0,0.0,0.0,0.0,0.0,0.0,-0.978,-0.9769,-0.9699,-0.9682,-0.9622,-0.9688,-0.9601,-0.9443,-0.9458,-0.9372,-0.9334,-0.9389,-0.9383,-0.9318,-0.9302,-0.9302,-0.9302,-0.9302,-0.9302,-0.9302,-0.9302,-0.9302,-0.9302,-0.9302,-0.9302,-0.9302,-0.9302,-0.9302,-0.9302,-0.9302,-0.9302,-0.9313,-0.9345,-0.893,-0.7458,-0.5727,-0.3597,-0.2733,0.0,0.0,0.0,0.0,0.0,0.0,0.0,0.0,0.0,0.0,0.0,0.0,0.0,0.0,0.0,0.0,0.0,0.0,0.0,0.0,0.0,0.0,0.0,0.0,0.0,0.0,0.0,0.0,0.0,0.0,0.0,0.0,0.0,0.0,0.0,0.0,0.0,0.0,0.0,0.0,0.0,0.0,0.0,0.0,0.0,0.0,0.0,0.0,0.0,0.0,0.0,0.0,0.0,0.0,0.0,0.0,0.0,0.0,0.0,0.0,0.0,0.0,0.0,0.0,0.0,0.0,0.0,0.0,0.0,0.0,0.0,0.0,0.0,0.0,0.0,0.0,0.0,-0.9698,-0.9703,-0.9698,-0.9622,-0.9529,-0.9492,-0.9421,-0.9313,-0.9313,-0.9313,-0.9307,-0.9313,-0.9313,-0.9307,-0.9302,-0.9302,-0.9302,-0.9302,-0.9302,-0.9302,-0.9302,-0.9302,-0.9302,-0.9302,-0.9302,-0.9302,-0.9302,-0.9302,-0.9302,-0.9302,-0.9302,-0.9323,-0.9378,-0.9218,-0.8538,-0.7576,-0.5578,-0.4051,-0.2425,-0.1571,0.0,0.0,0.0,0.0,0.0,0.0,0.0,0.0,0.0,0.0,0.0,0.0,0.0,0.0,0.0,0.0,0.0,0.0,0.0,0.0,0.0,0.0,0.0,0.0,0.0,0.0,0.0,0.0,0.0,0.0,0.0,0.0,0.0,0.0,0.0,0.0,0.0,0.0,0.0,0.0,0.0,0.0,0.0,0.0,0.0,0.0,0.0,0.0,0.0,0.0,0.0,0.0,0.0,0.0,0.0,0.0,0.0,0.0,0.0,0.0,0.0,0.0,0.0,0.0,0.0,0.0,0.0,0.0,0.0,0.0,0.0,0.0,0.0,0.0,0.0,-0.9541,-0.9567,-0.948,-0.9389,-0.9362,-0.9356,-0.9334,-0.9307,-0.9302,-0.9302,-0.9302,-0.9302,-0.9302,-0.9302,-0.9302,-0.9302,-0.9302,-0.9302,-0.9302,-0.9302,-0.9302,-0.9302,-0.9302,-0.9302,-0.9302,-0.9302,-0.9302,-0.9302,-0.9302,-0.9302,-0.9302,-0.9318,-0.9351,-0.9405,-0.9345,-0.9116,-0.7511,-0.5749,-0.3863,-0.2429,-0.1381,-0.0538,0.0,0.0,0.0,0.0,0.0,0.0,0.0,0.0,0.0,0.0,0.0,0.0,0.0,0.0,0.0,0.0,0.0,0.0,0.0,0.0,0.0,0.0,0.0,0.0,0.0,0.0,0.0,0.0,0.0,0.0,0.0,0.0,0.0,0.0,0.0,0.0,0.0,0.0,0.0,0.0,0.0,0.0,0.0,0.0,0.0,0.0,0.0,0.0,0.0,0.0,0.0,0.0,0.0,0.0,0.0,0.0,0.0,0.0,0.0,0.0,0.0,0.0,0.0,0.0,0.0,0.0,0.0,0.0,0.0,0.0,0.0,0.0,0.0,-0.9416,-0.9405,-0.9334,-0.9302,-0.9302,-0.9302,-0.9302,-0.9302,-0.9302,-0.9302,-0.9302,-0.9302,-0.9302,-0.9302,-0.9302,-0.9302,-0.9302,-0.9302,-0.9302,-0.9302,-0.9302,-0.9302,-0.9302,-0.9302,-0.9302,-0.9302,-0.9302,-0.9302,-0.9302,-0.9302,-0.9302,-0.9302,-0.9302,-0.9345,-0.9385,-0.9366,-0.9084,-0.7326,-0.5443,-0.3504,-0.2112,-0.0957,0.0,0.0,0.0,0.0,0.0,0.0,0.0,0.0,0.0,0.0,0.0,0.0,0.0,0.0,0.0,0.0,0.0,0.0,0.0,0.0,0.0,0.0,0.0,0.0,0.0,0.0,0.0,0.0,0.0,0.0,0.0,0.0,0.0,0.0,0.0,0.0,0.0,0.0,0.0,0.0,0.0,0.0,0.0,0.0,0.0,0.0,0.0,0.0,0.0,0.0,0.0,0.0,0.0,0.0,0.0,0.0,0.0,0.0,0.0,0.0,0.0,0.0,0.0,0.0,0.0,0.0,0.0,0.0,0.0,0.0,0.0,0.0,0.0,-0.9307,-0.9307,-0.9302,-0.9302,-0.9302,-0.9302,-0.9302,-0.9302,-0.9302,-0.9302,-0.9302,-0.9302,-0.9302,-0.9302,-0.9302,-0.9302,-0.9302,-0.9302,-0.9302,-0.9302,-0.9302,-0.9302,-0.9302,-0.9302,-0.9302,-0.9302,-0.9302,-0.9302,-0.9302,-0.9302,-0.9302,-0.9302,-0.9302,-0.9323,-0.9351,-0.9459,-0.9261,-0.8637,-0.6567,-0.4492,-0.2725,-0.1286,0.0,0.0,0.0,0.0,0.0,0.0,0.0,0.0,0.0,0.0,0.0,0.0,0.0,0.0,0.0,0.0,0.0,0.0,0.0,0.0,0.0,0.0,0.0,0.0,0.0,0.0,0.0,0.0,0.0,0.0,0.0,0.0,0.0,0.0,0.0,0.0,0.0,0.0,0.0,0.0,0.0,0.0,0.0,0.0,0.0,0.0,0.0,0.0,0.0,0.0,0.0,0.0,0.0,0.0,0.0,0.0,0.0,0.0,0.0,0.0,0.0,0.0,0.0,0.0,0.0,0.0,0.0,0.0,0.0,0.0,0.0,0.0,0.0,-0.9302,-0.9302,-0.9302,-0.9302,-0.9302,-0.9302,-0.9302,-0.9302,-0.9302,-0.9302,-0.9302,-0.9302,-0.9302,-0.9302,-0.9302,-0.9302,-0.9302,-0.9302,-0.9302,-0.9302,-0.9302,-0.9302,-0.9302,-0.9302,-0.9302,-0.9302,-0.9302,-0.9302,-0.9302,-0.9302,-0.9302,-0.9302,-0.9302,-0.9302,-0.9313,-0.9421,-0.937,-0.9243,-0.7781,-0.5724,-0.3989,-0.2497,0.0,0.0,0.0,0.0,0.0,0.0,0.0,0.0,0.0,0.0,0.0,0.0,0.0,0.0,0.0,0.0,0.0,0.0,0.0,0.0,0.0,0.0,0.0,0.0,0.0,0.0,0.0,0.0,0.0,0.0,0.0,0.0,0.0,0.0,0.0,0.0,0.0,0.0,0.0,0.0,0.0,0.0,0.0,0.0,0.0,0.0,0.0,0.0,0.0,0.0,0.0,0.0,0.0,0.0,0.0,0.0,0.0,0.0,0.0,0.0,0.0,0.0,0.0,0.0,0.0,0.0,0.0,0.0,0.0,0.0,0.0,0.0,0.0,-0.9302,-0.9302,-0.9302,-0.9302,-0.9302,-0.9302,-0.9302,-0.9302,-0.9302,-0.9302,-0.9302,-0.9302,-0.9302,-0.9302,-0.9302,-0.9302,-0.9302,-0.9302,-0.9302,-0.9302,-0.9302,-0.9302,-0.9302,-0.9302,-0.9302,-0.9302,-0.9302,-0.9302,-0.9302,-0.9302,-0.9302,-0.9302,-0.9302,-0.9307,-0.9313,-0.9367,-0.9378,-0.9276,-0.8394,-0.6942,-0.4999,-0.3239,-0.159,0.0,0.0,0.0,0.0,0.0,0.0,0.0,0.0,0.0,0.0,0.0,0.0,0.0,0.0,0.0,0.0,0.0,0.0,0.0,0.0,0.0,0.0,0.0,0.0,0.0,0.0,0.0,0.0,0.0,0.0,0.0,0.0,0.0,0.0,0.0,0.0,0.0,0.0,0.0,0.0,0.0,0.0,0.0,0.0,0.0,0.0,0.0,0.0,0.0,0.0,0.0,0.0,0.0,0.0,0.0,0.0,0.0,0.0,0.0,0.0,0.0,0.0,0.0,0.0,0.0,0.0,0.0,0.0,0.0,0.0,0.0,0.0,-0.9302,-0.9302,-0.9302,-0.9302,-0.9302,-0.9302,-0.9302,-0.9302,-0.9302,-0.9302,-0.9302,-0.9302,-0.9302,-0.9302,-0.9302,-0.9302,-0.9302,-0.9302,-0.9302,-0.9302,-0.9302,-0.9302,-0.9302,-0.9302,-0.9302,-0.9302,-0.9302,-0.9302,-0.9302,-0.9302,-0.9302,-0.9302,-0.9302,-0.9302,-0.9302,-0.9307,-0.9302,-0.9302,-0.8672,-0.757,-0.5564,-0.3385,-0.1834,0.0,0.0,0.0,0.0,0.0,0.0,0.0,0.0,0.0,0.0,0.0,0.0,0.0,0.0,0.0,0.0,0.0,0.0,0.0,0.0,0.0,0.0,0.0,0.0,0.0,0.0,0.0,0.0,0.0,0.0,0.0,0.0,0.0,0.0,0.0,0.0,0.0,0.0,0.0,0.0,0.0,0.0,0.0,0.0,0.0,0.0,0.0,0.0,0.0,0.0,0.0,0.0,0.0,0.0,0.0,0.0,0.0,0.0,0.0,0.0,0.0,0.0,0.0,0.0,0.0,0.0,0.0,0.0,0.0,0.0,0.0,0.0,-0.9302,-0.9302,-0.9302,-0.9302,-0.9302,-0.9302,-0.9302,-0.9302,-0.9302,-0.9302,-0.9302,-0.9302,-0.9302,-0.9302,-0.9302,-0.9302,-0.9302,-0.9302,-0.9302,-0.9302,-0.9302,-0.9302,-0.9302,-0.9302,-0.9302,-0.9302,-0.9302,-0.9302,-0.9302,-0.9302,-0.9302,-0.9302,-0.9302,-0.9302,-0.9302,-0.9302,-0.9302,-0.9302,-0.9121,-0.8213,-0.6725,-0.4657,-0.2588,0.0,0.0,0.0,0.0,0.0,0.0,0.0,0.0,0.0,0.0,0.0,0.0,0.0,0.0,0.0,0.0,0.0,0.0,0.0,0.0,0.0,0.0,0.0,0.0,0.0,0.0,0.0,0.0,0.0,0.0,0.0,0.0,0.0,0.0,0.0,0.0,0.0,0.0,0.0,0.0,0.0,0.0,0.0,0.0,0.0,0.0,0.0,0.0,0.0,0.0,0.0,0.0,0.0,0.0,0.0,0.0,0.0,0.0,0.0,0.0,0.0,0.0,0.0,0.0,0.0,0.0,0.0,0.0,0.0,0.0,0.0,0.0]},{"header":{"parameterUnit":"m.s-1","parameterCategory":1,"la1":31.0,"la2":29.5877,"lo1":-88.7671,"lo2":-86.6584,"dy":0.0162,"dx":0.0185,"nx":115,"ny":88,"refTime":"2024-08-18T06:00:00:Z","depth":0,"parameterNumber":3,"parameterNumberName":"V-component_of_WINDS"},"data":[0.0,0.0,0.0,0.0,0.0,0.0,0.0,0.0,0.0,0.0,0.0,0.0,0.0,0.0,0.0,0.0,0.0,0.0,0.0,0.0,0.0,0.0,0.0,0.0,0.0,0.0,0.0,0.0,0.0,0.0,0.0,0.0,0.0,0.0,0.0,0.0,0.0,0.0,0.0,0.0,0.0,0.0,0.0,0.0,0.0,0.0,0.0,0.0,0.0,0.0,0.0,0.0,0.0,0.0,0.0,0.0,0.0,0.0,0.0,0.0,0.0,0.0,0.0,0.0,0.0,0.0,0.0,0.0,0.0,0.0,0.0,0.0,0.0,0.0,0.0,0.0,0.0,0.0,0.0,0.0,0.0,0.0,0.0,0.0,0.0,0.0,0.0,0.0,0.0,0.0,0.0,0.0,0.0,0.0,0.0,0.0,0.0,0.0,0.0,0.0,0.0,0.0,0.0,0.0,0.0,0.0,0.0,0.0,0.0,0.0,0.0,0.0,0.0,0.0,0.0,0.0,0.0,0.0,0.0,0.0,0.0,0.0,0.0,0.0,0.0,0.0,0.0,0.0,0.0,0.0,0.0,0.0,0.0,0.0,0.0,0.0,0.0,0.0,0.0,0.0,0.0,0.0,0.0,0.0,0.0,0.0,0.0,0.0,0.0,0.0,0.0,0.0,0.0,0.0,0.0,0.0,0.0,0.0,0.0,0.0,0.0,0.0,0.0,0.0,0.0,0.0,0.0,0.0,0.0,0.0,0.0,0.0,0.0,0.0,0.0,0.0,0.0,0.0,0.0,0.0,0.0,0.0,0.0,0.0,0.0,0.0,0.0,0.0,0.0,0.0,0.0,0.0,0.0,0.0,0.0,0.0,0.0,0.0,0.0,0.0,0.0,0.0,0.0,0.0,0.0,0.0,0.0,0.0,0.0,0.0,0.0,0.0,0.0,0.0,0.0,0.0,0.0,0.0,0.0,0.0,0.0,0.0,0.0,0.0,0.0,0.0,0.0,0.0,0.0,0.0,0.0,0.0,0.0,0.0,0.0,0.0,0.0,0.0,0.0,0.0,0.0,0.0,0.0,0.0,0.0,0.0,0.0,0.0,0.0,0.0,0.0,0.0,0.0,0.0,0.0,0.0,0.0,0.0,0.0,0.0,0.0,0.0,0.0,0.0,0.0,0.0,0.0,0.0,0.0,0.0,0.0,0.0,0.0,0.0,0.0,0.0,0.0,0.0,0.0,0.0,0.0,0.0,0.0,0.0,0.0,0.0,0.0,0.0,0.0,0.0,0.0,0.0,0.0,0.0,0.0,0.0,0.0,0.0,0.0,0.0,0.0,0.0,0.0,0.0,0.0,0.0,0.0,0.0,0.0,0.0,0.0,0.0,0.0,0.0,0.0,0.0,0.0,0.0,0.0,0.0,0.0,0.0,0.0,0.0,0.0,0.0,0.0,0.0,0.0,0.0,0.0,0.0,0.0,0.0,0.0,0.0,0.0,0.0,0.0,0.0,0.0,0.0,0.0,0.0,0.0,0.0,0.0,0.0,0.0,0.0,0.0,0.0,0.0,0.0,0.0,0.0,0.0,0.0,0.0,0.0,0.0,0.0,0.0,0.0,0.0,0.0,0.0,0.0,0.0,0.0,0.0,0.0,0.0,0.0,0.0,0.0,0.0,0.0,0.0,0.0,0.0,0.0,0.0,0.0,0.0,0.0,0.0,0.0,0.0,0.0,0.0,0.0,0.0,0.0,0.0,0.0,0.0,0.0,0.0,0.0,0.0,0.0,0.0,0.0,0.0,0.0,0.0,0.0,0.0,0.0,0.0,0.0,0.0,0.0,0.0,0.0,0.0,0.0,0.0,0.0,0.0,0.0,0.0,0.0,0.0,0.0,0.0,0.0,0.0,0.0,0.0,0.0,0.0,0.0,0.0,0.0,0.0,0.0,0.0,0.0,0.0,0.0,0.0,0.0,0.0,0.0,0.0,0.0,0.0,0.0,0.0,0.0,0.0,0.0,0.0,0.0,0.0,0.0,0.0,0.0,0.0,0.0,0.0,0.0,0.0,0.0,0.0,0.0,0.0,0.0,0.0,0.0,0.0,0.0,0.0,0.0,0.0,0.0,0.0,0.0,0.0,0.0,0.0,0.0,0.0,0.0,0.0,0.0,0.0,0.0,0.0,0.0,0.0,0.0,0.0,0.0,0.0,0.0,0.0,0.0,0.0,0.0,0.0,0.0,0.0,0.0,0.0,0.0,0.0,0.0,0.0,0.0,0.0,0.0,0.0,0.0,0.0,0.0,0.0,0.0,0.0,0.0,0.0,0.0,0.0,0.0,0.0,0.0,0.0,0.0,0.0,0.0,0.0,0.0,0.0,0.0,0.0,0.0,0.0,0.0,0.0,0.0,0.0,0.0,0.0,0.0,0.0,0.0,0.0,0.0,0.0,0.0,0.0,0.0,0.0,0.0,0.0,0.0,0.0,0.0,0.0,0.0,0.0,0.0,0.0,0.0,0.0,0.0,0.0,0.0,0.0,0.0,0.0,0.0,0.0,0.0,0.0,0.0,0.0,0.0,0.0,0.0,0.0,0.0,0.0,0.0,0.0,0.0,0.0,0.0,0.0,0.0,0.0,0.0,0.0,0.0,0.0,0.0,0.0,0.0,0.0,0.0,0.0,0.0,0.0,0.0,0.0,0.0,0.0,0.0,0.0,0.0,0.0,0.0,0.0,0.0,0.0,0.0,0.0,0.0,0.0,0.0,0.0,0.0,0.0,0.0,0.0,0.0,0.0,0.0,0.0,0.0,0.0,0.0,0.0,0.0,0.0,0.0,0.0,0.0,0.0,0.0,0.0,0.0,0.0,0.0,0.0,0.0,0.0,0.0,0.0,0.0,0.0,0.0,0.0,0.0,0.0,0.0,0.0,0.0,0.0,0.0,0.0,0.0,0.0,0.0,0.0,0.0,0.0,0.0,0.0,0.0,0.0,0.0,0.0,0.0,0.0,0.0,0.0,0.0,0.0,0.0,0.0,0.0,0.0,0.0,0.0,0.0,0.0,0.0,0.0,0.0,0.0,0.0,0.0,0.0,0.0,0.0,0.0,0.0,0.0,0.0,0.0,0.0,0.0,0.0,0.0,0.0,0.0,0.0,0.0,0.0,0.0,0.0,0.0,0.0,0.0,0.0,0.0,0.0,0.0,0.0,0.0,0.0,0.0,0.0,0.0,0.0,0.0,0.0,0.0,0.0,0.0,0.0,0.0,0.0,0.0,0.0,0.0,0.0,0.0,0.0,0.0,0.0,0.0,0.0,0.0,0.0,0.0,0.0,0.0,0.0,0.0,0.0,0.0,0.0,0.0,0.0,0.0,0.0,0.0,0.0,0.0,0.0,0.0,0.0,0.0,0.0,0.0,0.0,0.0,0.0,0.0,0.0,0.0,0.0,0.0,0.0,0.0,0.0,0.0,0.0,0.0,0.0,0.0,0.0,0.0,0.0,0.0,0.0,0.0,0.0,0.0,0.0,0.0,0.0,0.0,0.0,0.0,0.0,0.0,0.0,0.0,0.0,0.0,0.0,0.0,0.0,0.0,0.0,0.0,0.0,0.0,0.0,0.0,0.0,0.0,0.0,0.0,0.0,0.0,0.0,0.0,0.0,0.0,0.0,0.0,0.0,0.0,0.0,0.0,0.0,0.0,0.0,0.0,0.0,0.0,0.0,0.0,0.0,0.0,0.0,0.0,0.0,0.0,0.0,0.0,0.0,0.0,0.0,0.0,0.0,0.0,0.0,0.0,0.0,0.0,0.0,0.0,0.0,0.0,0.0,0.0,0.0,0.0,0.0,0.0,0.0,0.0,0.0,0.0,0.0,0.0,0.0,0.0,0.0,0.0,0.0,0.0,0.0,0.0,0.0,0.0,0.0,0.0,0.0,0.0,0.0,0.0,0.0,0.0,0.0,0.0,0.0,0.0,0.0,0.0,0.0,0.0,0.0,0.0,0.0,0.0,0.0,0.0,0.0,0.0,0.0,0.0,0.0,0.0,0.0,0.0,0.0,0.0,0.0,0.0,0.0,0.0,0.0,0.0,0.0,0.0,0.0,0.0,0.0,0.0,0.0,0.0,0.0,0.0,0.0,0.0,0.0,0.0,0.0,0.0,0.0,0.0,0.0,0.0,0.0,0.0,0.0,0.0,0.0,0.0,0.0,0.0,0.0,0.0,0.0,0.0,0.0,0.0,0.0,0.0,0.0,0.0,0.0,0.0,0.0,0.0,0.0,0.0,0.0,2.5188,0.0,0.0,0.0,0.0,0.0,0.0,0.0,0.0,0.0,0.0,0.0,0.0,0.0,0.0,0.0,0.0,0.0,0.0,0.0,0.0,0.0,0.0,0.0,0.0,0.0,0.0,0.0,0.0,0.0,0.0,0.0,0.0,0.0,0.0,0.0,0.0,0.0,0.0,0.0,0.0,0.0,0.0,0.0,0.0,0.0,0.0,0.0,0.0,0.0,0.0,0.0,0.0,0.0,0.0,0.0,0.0,0.0,0.0,0.0,0.0,0.0,0.0,0.0,0.0,0.0,0.0,0.0,0.0,0.0,0.0,0.0,0.0,0.0,0.0,0.0,0.0,0.0,0.0,0.0,0.0,0.0,0.0,0.0,0.0,0.0,0.0,0.0,0.0,0.0,0.0,0.0,0.0,0.0,0.0,0.0,0.0,0.0,0.0,0.0,0.0,0.0,0.0,0.0,0.0,0.0,0.0,0.0,0.0,0.0,0.0,2.5188,2.5188,2.5188,2.5188,2.5188,0.0,0.0,0.0,0.0,0.0,0.0,0.0,0.0,0.0,0.0,0.0,0.0,0.0,0.0,0.0,0.0,0.0,0.0,0.0,0.0,0.0,0.0,0.0,0.0,0.0,0.0,0.0,0.0,0.0,0.0,0.0,0.0,0.0,0.0,0.0,0.0,0.0,0.0,0.0,0.0,0.0,0.0,0.0,0.0,0.0,0.0,0.0,0.0,0.0,0.0,0.0,0.0,0.0,0.0,0.0,0.0,0.0,0.0,0.0,0.0,0.0,0.0,0.0,0.0,0.0,0.0,0.0,0.0,0.0,0.0,0.0,0.0,0.0,0.0,0.0,0.0,0.0,0.0,0.0,0.0,0.0,0.0,0.0,0.0,0.0,0.0,0.0,0.0,0.0,0.0,0.0,0.0,0.0,0.0,0.0,0.0,0.0,0.0,0.0,0.0,0.0,0.0,0.0,0.0,0.0,0.0,0.0,0.0,0.0,0.0,0.0,0.0,2.6338,2.6335,2.6338,0.0,0.0,0.0,0.0,0.0,0.0,0.0,0.0,0.0,0.0,0.0,0.0,0.0,0.0,0.0,0.0,0.0,0.0,0.0,0.0,0.0,0.0,0.0,0.0,0.0,0.0,0.0,0.0,0.0,0.0,0.0,0.0,0.0,0.0,0.0,0.0,0.0,0.0,0.0,0.0,0.0,0.0,0.0,0.0,0.0,0.0,0.0,0.0,0.0,0.0,0.0,0.0,0.0,0.0,0.0,0.0,0.0,0.0,0.0,0.0,0.0,0.0,0.0,0.0,0.0,0.0,0.0,0.0,0.0,0.0,0.0,0.0,0.0,0.0,0.0,0.0,0.0,0.0,0.0,0.0,0.0,0.0,0.0,0.0,0.0,0.0,0.0,0.0,0.0,0.0,0.0,0.0,0.0,0.0,0.0,0.0,0.0,0.0,0.0,0.0,0.0,0.0,0.0,0.0,0.0,0.0,0.0,0.0,0.0,0.0,2.6641,2.9657,2.973,0.0,2.9768,0.0,0.0,0.0,0.0,0.0,0.0,0.0,0.0,0.0,0.0,0.0,0.0,0.0,0.0,0.0,0.0,0.0,0.0,0.0,0.0,0.0,0.0,0.0,0.0,0.0,0.0,0.0,0.0,0.0,0.0,0.0,0.0,0.0,0.0,0.0,0.0,0.0,0.0,0.0,0.0,0.0,0.0,0.0,0.0,0.0,0.0,0.0,0.0,0.0,0.0,0.0,0.0,0.0,0.0,0.0,0.0,0.0,0.0,0.0,0.0,0.0,0.0,0.0,0.0,0.0,0.0,0.0,0.0,0.0,0.0,0.0,0.0,0.0,0.0,0.0,0.0,0.0,0.0,0.0,0.0,0.0,0.0,0.0,0.0,0.0,0.0,0.0,0.0,0.0,0.0,0.0,0.0,0.0,0.0,0.0,0.0,0.0,0.0,0.0,0.0,0.0,0.0,0.0,0.0,0.0,0.0,0.0,0.0,0.0,0.0,2.8813,3.0147,3.0227,2.9959,0.0,0.0,0.0,0.0,0.0,0.0,0.0,0.0,0.0,0.0,0.0,0.0,0.0,0.0,0.0,0.0,0.0,0.0,0.0,0.0,0.0,0.0,0.0,0.0,0.0,0.0,0.0,0.0,0.0,0.0,0.0,0.0,0.0,0.0,0.0,0.0,0.0,0.0,0.0,0.0,0.0,0.0,0.0,0.0,0.0,0.0,0.0,0.0,0.0,0.0,0.0,0.0,0.0,0.0,0.0,0.0,0.0,0.0,0.0,0.0,0.0,0.0,0.0,0.0,0.0,0.0,0.0,0.0,0.0,0.0,0.0,0.0,0.0,0.0,0.0,0.0,0.0,0.0,0.0,0.0,0.0,0.0,0.0,0.0,0.0,0.0,0.0,0.0,0.0,0.0,0.0,0.0,0.0,0.0,0.0,0.0,0.0,0.0,0.0,0.0,0.0,0.0,0.0,0.0,0.0,0.0,0.0,0.0,0.0,0.0,2.9397,0.0,3.1522,3.1564,3.072,2.8959,0.0,0.0,0.0,0.0,0.0,0.0,0.0,0.0,0.0,0.0,0.0,0.0,0.0,0.0,0.0,0.0,0.0,0.0,0.0,0.0,0.0,0.0,0.0,0.0,0.0,0.0,0.0,0.0,0.0,0.0,0.0,0.0,0.0,0.0,0.0,0.0,0.0,0.0,0.0,0.0,0.0,0.0,0.0,0.0,0.0,0.0,0.0,0.0,0.0,0.0,0.0,0.0,0.0,0.0,0.0,0.0,0.0,0.0,0.0,0.0,0.0,0.0,0.0,0.0,0.0,0.0,0.0,0.0,0.0,0.0,0.0,0.0,0.0,0.0,0.0,0.0,0.0,0.0,0.0,0.0,0.0,0.0,0.0,0.0,0.0,0.0,0.0,0.0,0.0,0.0,0.0,0.0,0.0,0.0,0.0,0.0,0.0,0.0,0.0,0.0,0.0,0.0,0.0,0.0,0.0,0.0,0.0,0.0,0.0,3.1569,3.1752,3.4842,3.4957,3.3051,0.0,0.0,0.0,0.0,0.0,0.0,0.0,0.0,0.0,0.0,0.0,0.0,0.0,0.0,0.0,0.0,0.0,0.0,0.0,0.0,0.0,0.0,0.0,0.0,0.0,0.0,0.0,0.0,0.0,0.0,0.0,0.0,0.0,0.0,0.0,0.0,0.0,0.0,0.0,0.0,0.0,0.0,0.0,0.0,0.0,0.0,0.0,0.0,0.0,0.0,0.0,0.0,0.0,0.0,0.0,0.0,0.0,0.0,0.0,0.0,0.0,0.0,0.0,0.0,0.0,0.0,0.0,0.0,0.0,0.0,0.0,0.0,0.0,0.0,0.0,0.0,0.0,0.0,0.0,0.0,0.0,0.0,0.0,0.0,0.0,0.0,0.0,0.0,0.0,0.0,0.0,0.0,0.0,0.0,0.0,0.0,0.0,0.0,0.0,0.0,0.0,0.0,0.0,0.0,0.0,0.0,0.0,0.0,0.0,2.855,2.9653,3.286,3.8052,3.3769,3.1209,0.0,0.0,0.0,0.0,0.0,0.0,0.0,0.0,0.0,0.0,0.0,0.0,0.0,0.0,0.0,0.0,0.0,0.0,0.0,0.0,0.0,0.0,0.0,0.0,0.0,0.0,0.0,0.0,0.0,0.0,0.0,0.0,0.0,0.0,0.0,0.0,0.0,0.0,0.0,0.0,0.0,0.0,0.0,0.0,0.0,0.0,0.0,0.0,0.0,0.0,0.0,0.0,0.0,0.0,0.0,0.0,0.0,0.0,0.0,0.0,0.0,0.0,0.0,0.0,0.0,0.0,0.0,0.0,0.0,0.0,0.0,0.0,0.0,0.0,0.0,0.0,0.0,0.0,0.0,0.0,0.0,0.0,0.0,0.0,0.0,0.0,0.0,0.0,0.0,0.0,0.0,0.0,0.0,0.0,0.0,0.0,0.0,0.0,0.0,0.0,0.0,0.0,0.0,0.0,0.0,0.0,0.0,0.0,0.0,2.8431,0.0,3.5039,0.0,3.3692,3.0484,0.0,0.0,0.0,0.0,0.0,0.0,0.0,0.0,0.0,0.0,0.0,0.0,0.0,0.0,0.0,0.0,0.0,0.0,0.0,0.0,0.0,0.0,0.0,0.0,0.0,0.0,0.0,0.0,0.0,0.0,0.0,0.0,0.0,0.0,0.0,0.0,0.0,0.0,0.0,0.0,0.0,0.0,0.0,0.0,0.0,0.0,0.0,0.0,0.0,0.0,0.0,0.0,0.0,0.0,0.0,0.0,0.0,0.0,0.0,0.0,0.0,0.0,0.0,0.0,0.0,0.0,0.0,0.0,0.0,0.0,0.0,0.0,0.0,0.0,0.0,0.0,0.0,0.0,0.0,0.0,0.0,0.0,0.0,0.0,0.0,0.0,0.0,0.0,0.0,0.0,0.0,0.0,0.0,0.0,0.0,0.0,0.0,0.0,0.0,0.0,0.0,0.0,0.0,0.0,0.0,0.0,0.0,0.0,2.8469,3.4754,3.7831,3.8021,3.5441,3.5029,3.114,0.0,0.0,0.0,0.0,0.0,0.0,0.0,0.0,0.0,0.0,0.0,0.0,0.0,0.0,0.0,0.0,0.0,0.0,0.0,0.0,0.0,0.0,0.0,0.0,0.0,0.0,0.0,0.0,0.0,0.0,0.0,0.0,0.0,0.0,0.0,0.0,0.0,0.0,0.0,0.0,0.0,0.0,0.0,0.0,0.0,0.0,0.0,0.0,0.0,0.0,0.0,0.0,0.0,0.0,0.0,0.0,0.0,0.0,0.0,0.0,0.0,0.0,0.0,0.0,0.0,0.0,0.0,0.0,0.0,0.0,0.0,0.0,0.0,0.0,0.0,0.0,0.0,0.0,0.0,0.0,0.0,0.0,0.0,0.0,0.0,0.0,0.0,0.0,0.0,0.0,0.0,0.0,0.0,0.0,0.0,0.0,0.0,0.0,0.0,0.0,0.0,0.0,0.0,0.0,0.0,0.0,0.0,0.0,0.0,3.1467,3.4271,3.6915,3.8922,3.3269,3.0411,0.0,0.0,0.0,0.0,0.0,0.0,0.0,0.0,0.0,0.0,0.0,0.0,0.0,0.0,0.0,0.0,0.0,0.0,0.0,0.0,0.0,0.0,0.0,0.0,0.0,0.0,0.0,0.0,0.0,0.0,0.0,0.0,0.0,0.0,0.0,0.0,0.0,0.0,0.0,0.0,0.0,0.0,0.0,0.0,0.0,0.0,0.0,0.0,0.0,0.0,0.0,0.0,0.0,0.0,0.0,0.0,0.0,0.0,0.0,0.0,0.0,0.0,0.0,0.0,0.0,0.0,0.0,0.0,0.0,0.0,0.0,0.0,0.0,0.0,0.0,0.0,0.0,0.0,0.0,0.0,0.0,0.0,0.0,0.0,0.0,0.0,0.0,0.0,0.0,0.0,0.0,0.0,0.0,0.0,0.0,0.0,0.0,0.0,0.0,0.0,0.0,0.0,0.0,0.0,0.0,0.0,0.0,0.0,0.0,3.4145,3.7019,3.9323,4.0777,3.4696,3.1713,3.2248,0.0,0.0,0.0,0.0,0.0,0.0,0.0,0.0,0.0,0.0,0.0,0.0,0.0,0.0,0.0,0.0,0.0,0.0,0.0,0.0,0.0,0.0,0.0,0.0,0.0,0.0,0.0,0.0,0.0,0.0,0.0,0.0,0.0,0.0,0.0,0.0,0.0,0.0,0.0,0.0,0.0,0.0,0.0,0.0,0.0,0.0,0.0,0.0,0.0,0.0,0.0,0.0,0.0,0.0,0.0,0.0,0.0,0.0,0.0,0.0,0.0,0.0,0.0,0.0,0.0,0.0,0.0,0.0,0.0,0.0,0.0,0.0,0.0,0.0,0.0,0.0,0.0,0.0,0.0,0.0,0.0,0.0,0.0,0.0,0.0,0.0,0.0,0.0,0.0,0.0,0.0,0.0,0.0,0.0,0.0,0.0,0.0,0.0,0.0,0.0,0.0,0.0,0.0,0.0,0.0,0.0,0.0,0.0,4.1226,4.4821,4.477,4.0964,3.8811,3.4774,0.0,0.0,0.0,0.0,0.0,0.0,0.0,0.0,0.0,0.0,0.0,0.0,0.0,0.0,0.0,0.0,0.0,0.0,0.0,0.0,0.0,0.0,0.0,0.0,0.0,0.0,0.0,0.0,0.0,0.0,0.0,0.0,0.0,0.0,0.0,0.0,0.0,0.0,0.0,0.0,0.0,0.0,0.0,0.0,0.0,0.0,0.0,0.0,0.0,0.0,0.0,0.0,0.0,0.0,0.0,0.0,0.0,0.0,0.0,0.0,0.0,0.0,0.0,0.0,0.0,0.0,0.0,0.0,0.0,0.0,0.0,0.0,0.0,0.0,0.0,0.0,0.0,0.0,0.0,0.0,0.0,0.0,0.0,0.0,0.0,0.0,0.0,0.0,0.0,0.0,0.0,0.0,0.0,0.0,0.0,0.0,0.0,0.0,0.0,0.0,0.0,0.0,0.0,0.0,0.0,0.0,0.0,0.0,0.0,4.3198,4.7193,4.8401,4.6396,4.1401,3.7249,0.0,0.0,0.0,0.0,0.0,0.0,0.0,0.0,0.0,0.0,0.0,0.0,0.0,0.0,0.0,0.0,0.0,0.0,0.0,0.0,0.0,0.0,0.0,0.0,0.0,0.0,0.0,0.0,0.0,0.0,0.0,0.0,0.0,0.0,0.0,0.0,0.0,0.0,0.0,0.0,0.0,0.0,0.0,0.0,0.0,0.0,0.0,0.0,0.0,0.0,0.0,0.0,0.0,0.0,0.0,0.0,0.0,0.0,0.0,0.0,0.0,0.0,0.0,0.0,0.0,0.0,0.0,0.0,0.0,0.0,0.0,0.0,0.0,0.0,0.0,0.0,0.0,0.0,0.0,0.0,0.0,0.0,0.0,0.0,0.0,0.0,0.0,0.0,0.0,0.0,0.0,0.0,0.0,0.0,0.0,0.0,0.0,0.0,0.0,0.0,0.0,0.0,0.0,0.0,0.0,0.0,0.0,0.0,4.1533,4.6074,4.9901,5.1407,5.0387,4.5399,4.0726,0.0,0.0,0.0,0.0,0.0,0.0,0.0,0.0,0.0,0.0,0.0,0.0,0.0,0.0,0.0,0.0,0.0,0.0,0.0,0.0,0.0,0.0,0.0,0.0,0.0,0.0,0.0,0.0,0.0,0.0,0.0,0.0,0.0,0.0,0.0,0.0,0.0,0.0,0.0,0.0,0.0,0.0,0.0,0.0,0.0,0.0,0.0,0.0,0.0,0.0,0.0,0.0,0.0,0.0,0.0,0.0,0.0,0.0,0.0,0.0,0.0,0.0,0.0,0.0,0.0,0.0,0.0,0.0,0.0,0.0,0.0,0.0,0.0,0.0,0.0,0.0,0.0,0.0,0.0,0.0,0.0,0.0,0.0,0.0,0.0,0.0,0.0,0.0,0.0,0.0,0.0,0.0,0.0,0.0,0.0,0.0,0.0,0.0,0.0,0.0,0.0,0.0,0.0,0.0,0.0,0.0,0.0,0.0,4.4136,4.8989,5.2384,5.3722,5.2887,4.9589,4.435,0.0,0.0,0.0,0.0,0.0,0.0,0.0,0.0,0.0,0.0,0.0,0.0,0.0,0.0,0.0,0.0,0.0,0.0,0.0,0.0,0.0,0.0,0.0,0.0,0.0,0.0,0.0,0.0,0.0,0.0,0.0,0.0,0.0,0.0,0.0,0.0,0.0,0.0,0.0,0.0,0.0,0.0,0.0,0.0,0.0,0.0,0.0,0.0,0.0,0.0,0.0,0.0,0.0,0.0,0.0,0.0,0.0,0.0,0.0,0.0,0.0,0.0,0.0,0.0,0.0,0.0,0.0,0.0,0.0,0.0,0.0,0.0,0.0,0.0,0.0,0.0,0.0,0.0,0.0,0.0,0.0,0.0,0.0,0.0,0.0,0.0,0.0,0.0,0.0,0.0,0.0,0.0,0.0,0.0,0.0,0.0,0.0,0.0,0.0,0.0,0.0,0.0,0.0,0.0,0.0,0.0,0.0,0.0,4.5316,4.9033,5.2384,5.3989,5.3798,4.9895,4.5191,0.0,0.0,0.0,0.0,0.0,0.0,0.0,0.0,0.0,0.0,0.0,0.0,0.0,0.0,0.0,0.0,0.0,0.0,0.0,0.0,0.0,0.0,0.0,0.0,0.0,0.0,0.0,0.0,0.0,0.0,0.0,0.0,0.0,0.0,0.0,0.0,0.0,0.0,0.0,0.0,0.0,0.0,0.0,0.0,0.0,0.0,0.0,0.0,3.5564,0.0,0.0,0.0,0.0,0.0,0.0,0.0,0.0,0.0,0.0,0.0,0.0,0.0,0.0,0.0,0.0,0.0,0.0,0.0,0.0,0.0,0.0,0.0,0.0,0.0,0.0,0.0,0.0,0.0,0.0,0.0,0.0,0.0,0.0,0.0,0.0,0.0,0.0,0.0,0.0,0.0,0.0,0.0,0.0,0.0,0.0,0.0,0.0,0.0,0.0,0.0,0.0,0.0,0.0,0.0,0.0,0.0,0.0,0.0,4.7259,5.025,5.3187,5.4715,5.4556,5.0965,4.6609,0.0,0.0,0.0,0.0,0.0,0.0,0.0,0.0,0.0,0.0,0.0,0.0,0.0,0.0,0.0,0.0,0.0,0.0,0.0,0.0,0.0,0.0,0.0,0.0,0.0,0.0,0.0,0.0,0.0,0.0,0.0,0.0,0.0,0.0,0.0,0.0,0.0,0.0,0.0,0.0,0.0,0.0,0.0,0.0,0.0,0.0,0.0,0.0,0.0,0.0,0.0,0.0,0.0,0.0,0.0,0.0,0.0,0.0,0.0,0.0,0.0,0.0,0.0,0.0,0.0,0.0,0.0,0.0,0.0,0.0,0.0,0.0,0.0,0.0,0.0,0.0,0.0,0.0,0.0,0.0,0.0,0.0,0.0,0.0,0.0,0.0,0.0,0.0,0.0,0.0,0.0,0.0,0.0,0.0,0.0,0.0,0.0,0.0,0.0,0.0,0.0,0.0,0.0,0.0,0.0,0.0,0.0,4.4508,4.8902,5.192,5.4212,5.532,5.5174,5.2002,4.7946,4.2985,0.0,0.0,0.0,0.0,0.0,0.0,0.0,0.0,0.0,0.0,0.0,0.0,0.0,0.0,0.0,0.0,0.0,0.0,0.0,0.0,0.0,0.0,0.0,0.0,0.0,0.0,0.0,0.0,0.0,0.0,0.0,0.0,0.0,0.0,0.0,0.0,0.0,0.0,3.3849,3.7478,0.0,0.0,0.0,0.0,0.0,0.0,0.0,0.0,3.8782,0.0,0.0,0.0,0.0,0.0,0.0,0.0,0.0,0.0,0.0,0.0,0.0,0.0,0.0,0.0,0.0,0.0,0.0,0.0,0.0,0.0,0.0,0.0,0.0,0.0,0.0,0.0,0.0,0.0,0.0,0.0,0.0,0.0,0.0,0.0,0.0,0.0,0.0,0.0,0.0,0.0,0.0,0.0,0.0,0.0,0.0,0.0,0.0,0.0,0.0,0.0,0.0,0.0,0.0,0.0,0.0,4.3869,4.5168,4.8296,5.3531,5.4785,5.5052,5.4295,5.1697,4.7952,4.2985,0.0,0.0,0.0,0.0,0.0,0.0,0.0,0.0,0.0,0.0,0.0,0.0,0.0,0.0,0.0,0.0,0.0,0.0,0.0,0.0,0.0,0.0,0.0,0.0,0.0,0.0,0.0,0.0,0.0,0.0,0.0,0.0,0.0,0.0,0.0,0.0,0.0,0.0,0.0,4.2493,4.4055,0.0,0.0,0.0,0.0,0.0,0.0,0.0,0.0,3.9737,0.0,0.0,0.0,0.0,0.0,0.0,0.0,0.0,0.0,0.0,0.0,0.0,0.0,0.0,0.0,0.0,0.0,0.0,0.0,0.0,0.0,0.0,0.0,0.0,0.0,0.0,0.0,0.0,0.0,0.0,0.0,0.0,0.0,0.0,0.0,0.0,0.0,0.0,0.0,0.0,0.0,0.0,0.0,0.0,0.0,0.0,0.0,0.0,0.0,0.0,0.0,0.0,0.0,0.0,0.0,4.2952,4.6353,4.9901,5.3951,5.4944,5.4982,5.4027,4.9939,4.5927,0.0,0.0,0.0,0.0,0.0,0.0,0.0,0.0,0.0,0.0,0.0,0.0,0.0,0.0,0.0,0.0,0.0,0.0,0.0,0.0,0.0,0.0,0.0,0.0,0.0,0.0,0.0,0.0,0.0,0.0,0.0,0.0,0.0,0.0,0.0,0.0,0.0,0.0,0.0,0.0,4.3291,4.4776,4.5234,0.0,0.0,0.0,0.0,0.0,0.0,4.138,4.0697,0.0,0.0,0.0,0.0,0.0,0.0,0.0,0.0,0.0,0.0,0.0,0.0,0.0,0.0,0.0,0.0,0.0,0.0,0.0,0.0,0.0,0.0,0.0,0.0,0.0,0.0,0.0,0.0,0.0,0.0,0.0,0.0,0.0,0.0,0.0,0.0,0.0,0.0,0.0,0.0,0.0,0.0,0.0,0.0,0.0,0.0,0.0,0.0,0.0,0.0,0.0,0.0,0.0,0.0,0.0,4.1686,4.7073,5.1276,5.4212,5.5059,5.49,5.3798,4.8951,4.4633,0.0,0.0,0.0,0.0,0.0,0.0,0.0,0.0,0.0,0.0,0.0,0.0,0.0,0.0,0.0,0.0,0.0,0.0,0.0,0.0,0.0,0.0,0.0,0.0,0.0,0.0,0.0,0.0,0.0,0.0,0.0,0.0,0.0,0.0,0.0,0.0,0.0,0.0,0.0,0.0,0.0,4.5654,4.6609,4.5611,0.0,0.0,0.0,0.0,4.4131,4.3864,0.0,0.0,0.0,0.0,0.0,0.0,0.0,0.0,0.0,0.0,0.0,0.0,0.0,0.0,0.0,0.0,0.0,0.0,0.0,0.0,0.0,0.0,0.0,0.0,0.0,0.0,0.0,0.0,0.0,0.0,0.0,0.0,0.0,0.0,0.0,0.0,0.0,0.0,0.0,0.0,0.0,0.0,0.0,0.0,0.0,0.0,0.0,0.0,0.0,0.0,0.0,0.0,0.0,0.0,0.0,0.0,4.2412,4.6227,5.0392,5.4976,5.5358,5.4594,5.2996,5.0856,4.6424,0.0,0.0,0.0,0.0,0.0,0.0,0.0,0.0,0.0,0.0,0.0,0.0,0.0,0.0,0.0,0.0,0.0,0.0,0.0,0.0,0.0,0.0,0.0,0.0,0.0,0.0,0.0,0.0,0.0,0.0,0.0,0.0,0.0,0.0,0.0,0.0,0.0,0.0,0.0,0.0,0.0,4.9093,4.7832,4.7483,4.7603,0.0,0.0,4.7641,4.9207,4.9971,0.0,0.0,0.0,0.0,0.0,0.0,0.0,0.0,0.0,0.0,0.0,0.0,0.0,0.0,0.0,0.0,0.0,0.0,0.0,0.0,0.0,0.0,0.0,0.0,0.0,0.0,0.0,0.0,0.0,0.0,0.0,0.0,0.0,0.0,0.0,0.0,0.0,0.0,0.0,0.0,0.0,0.0,0.0,0.0,0.0,0.0,0.0,0.0,0.0,0.0,0.0,0.0,0.0,0.0,0.0,3.5806,4.2679,4.7526,5.1729,5.5244,5.5396,5.4562,5.2849,4.9328,4.4819,0.0,0.0,0.0,0.0,0.0,0.0,0.0,0.0,0.0,0.0,0.0,0.0,0.0,0.0,0.0,0.0,0.0,0.0,0.0,0.0,0.0,0.0,0.0,0.0,0.0,0.0,0.0,0.0,0.0,0.0,0.0,0.0,0.0,0.0,0.0,0.0,0.0,0.0,0.0,0.0,0.0,0.0,5.0512,5.0627,0.0,0.0,0.0,5.0353,5.1544,0.0,0.0,0.0,0.0,0.0,0.0,0.0,0.0,0.0,0.0,0.0,0.0,0.0,0.0,0.0,0.0,0.0,0.0,0.0,0.0,0.0,0.0,0.0,0.0,0.0,0.0,0.0,0.0,0.0,0.0,0.0,0.0,0.0,0.0,0.0,0.0,0.0,0.0,0.0,0.0,0.0,0.0,0.0,0.0,0.0,0.0,0.0,0.0,0.0,0.0,0.0,0.0,0.0,0.0,0.0,0.0,0.0,4.278,4.8815,5.3052,5.5307,5.5384,5.4581,5.2772,4.8722,0.0,0.0,0.0,0.0,0.0,0.0,0.0,0.0,0.0,0.0,0.0,0.0,0.0,0.0,0.0,0.0,0.0,0.0,0.0,0.0,0.0,0.0,0.0,0.0,0.0,0.0,0.0,2.4759,0.0,0.0,0.0,0.0,0.0,0.0,0.0,0.0,0.0,0.0,0.0,0.0,0.0,0.0,5.0509,5.2529,5.3217,5.36,0.0,0.0,5.3072,5.3651,5.3072,5.1276,0.0,0.0,0.0,0.0,0.0,0.0,0.0,0.0,0.0,0.0,0.0,0.0,0.0,0.0,0.0,0.0,0.0,0.0,0.0,0.0,0.0,0.0,0.0,0.0,0.0,0.0,0.0,0.0,0.0,0.0,0.0,0.0,0.0,0.0,0.0,0.0,0.0,0.0,0.0,0.0,0.0,0.0,0.0,0.0,0.0,0.0,0.0,0.0,0.0,0.0,0.0,0.0,0.0,0.0,0.0,4.2886,4.9428,5.3666,5.5338,5.5376,5.4548,5.2811,5.0971,4.65,0.0,0.0,0.0,0.0,0.0,0.0,0.0,0.0,0.0,0.0,0.0,0.0,0.0,0.0,0.0,0.0,0.0,0.0,0.0,0.0,0.0,0.0,0.0,0.0,0.0,0.0,0.0,0.0,0.0,0.0,0.0,0.0,0.0,0.0,0.0,0.0,0.0,0.0,0.0,0.0,0.0,5.1884,5.2753,5.4285,5.5874,0.0,0.0,5.6288,5.6326,5.7542,5.6358,4.9945,0.0,0.0,0.0,0.0,0.0,0.0,0.0,0.0,0.0,0.0,0.0,0.0,0.0,0.0,0.0,0.0,0.0,0.0,0.0,0.0,0.0,0.0,0.0,0.0,0.0,0.0,0.0,0.0,0.0,0.0,0.0,0.0,0.0,0.0,0.0,0.0,0.0,0.0,0.0,0.0,0.0,0.0,0.0,0.0,0.0,0.0,0.0,0.0,0.0,0.0,0.0,0.0,0.0,3.8589,4.3618,4.9772,5.3746,5.5312,5.5382,5.4822,5.3607,5.1996,4.8023,0.0,0.0,0.0,0.0,0.0,0.0,0.0,0.0,0.0,0.0,0.0,0.0,0.0,0.0,0.0,0.0,0.0,0.0,0.0,0.0,0.0,0.0,0.0,0.0,0.0,0.0,0.0,0.0,3.2634,3.3169,3.3471,0.0,0.0,0.0,0.0,0.0,0.0,0.0,0.0,0.0,0.0,5.4591,5.5927,5.7569,0.0,0.0,5.8483,5.8445,5.8974,5.7819,5.5663,5.2003,4.9466,0.0,0.0,0.0,0.0,0.0,0.0,0.0,0.0,0.0,0.0,0.0,0.0,0.0,0.0,0.0,0.0,0.0,0.0,0.0,0.0,0.0,0.0,0.0,0.0,0.0,0.0,0.0,0.0,0.0,0.0,0.0,0.0,0.0,0.0,0.0,0.0,0.0,0.0,0.0,0.0,0.0,0.0,0.0,0.0,0.0,0.0,0.0,0.0,0.0,0.0,0.0,0.0,3.9173,4.4205,5.0125,5.3931,5.5544,5.5566,5.5149,5.4287,5.2653,4.9199,0.0,0.0,0.0,0.0,0.0,0.0,0.0,0.0,0.0,0.0,0.0,0.0,0.0,0.0,0.0,0.0,0.0,0.0,0.0,0.0,0.0,0.0,0.0,0.0,0.0,0.0,0.0,0.0,3.4472,3.4541,3.4048,0.0,0.0,0.0,0.0,0.0,0.0,0.0,0.0,0.0,0.0,5.6606,5.825,5.9708,6.0425,5.9786,5.9703,5.9703,5.9856,5.8246,5.6163,5.3713,0.0,0.0,0.0,0.0,0.0,0.0,0.0,0.0,0.0,0.0,0.0,0.0,0.0,0.0,0.0,0.0,0.0,0.0,0.0,0.0,0.0,0.0,0.0,0.0,0.0,0.0,0.0,2.3868,0.0,0.0,2.1491,0.0,0.0,0.0,0.0,0.0,0.0,0.0,0.0,0.0,0.0,0.0,0.0,0.0,0.0,0.0,0.0,0.0,0.0,0.0,0.0,0.0,0.0,3.9405,4.4569,5.0507,5.4315,5.5902,5.5989,5.5599,5.4715,5.3019,5.0105,4.5792,0.0,0.0,0.0,0.0,0.0,0.0,0.0,0.0,0.0,0.0,0.0,0.0,0.0,0.0,0.0,0.0,0.0,0.0,0.0,0.0,0.0,0.0,0.0,0.0,0.0,0.0,3.3899,3.5458,3.5759,0.0,0.0,0.0,0.0,0.0,0.0,0.0,0.0,0.0,0.0,5.4792,5.7515,5.9155,6.0153,6.0743,6.0636,6.0585,6.0048,5.8559,5.9447,5.9063,0.0,0.0,0.0,0.0,0.0,0.0,0.0,0.0,0.0,0.0,0.0,0.0,0.0,0.0,0.0,0.0,0.0,0.0,0.0,0.0,0.0,0.0,0.0,0.0,0.0,0.0,0.0,3.1327,2.921,0.0,0.0,0.0,0.0,0.0,0.0,0.0,0.0,0.0,0.0,0.0,4.2972,4.4513,0.0,0.0,0.0,0.0,0.0,0.0,0.0,0.0,0.0,0.0,0.0,0.0,4.1714,4.631,5.1647,5.4945,5.5966,5.5991,5.5849,5.5583,5.4413,5.1044,4.5201,0.0,0.0,0.0,0.0,0.0,0.0,0.0,0.0,0.0,0.0,0.0,0.0,0.0,0.0,0.0,0.0,0.0,0.0,0.0,0.0,0.0,0.0,0.0,0.0,0.0,3.367,0.0,0.0,0.0,0.0,0.0,0.0,0.0,0.0,0.0,0.0,0.0,5.2888,5.5709,5.8548,6.0571,6.1142,6.1905,6.2431,0.0,0.0,0.0,0.0,0.0,0.0,0.0,0.0,0.0,0.0,0.0,0.0,0.0,0.0,6.32,5.5045,5.2362,5.1387,5.1387,0.0,0.0,0.0,0.0,0.0,0.0,0.0,0.0,0.0,0.0,0.0,0.0,0.0,0.0,3.7456,0.0,3.4088,0.0,0.0,0.0,0.0,0.0,0.0,0.0,0.0,4.5946,4.8356,4.8781,5.0579,5.0231,0.0,4.7393,4.3851,0.0,0.0,0.0,0.0,0.0,0.0,0.0,0.0,4.3897,4.8184,5.2716,5.54,5.6158,5.6186,5.6169,5.6152,5.5058,5.195,4.671,4.428,4.158,0.0,0.0,0.0,0.0,0.0,0.0,0.0,0.0,0.0,0.0,0.0,0.0,0.0,0.0,0.0,0.0,0.0,0.0,0.0,0.0,0.0,0.0,0.0,3.5336,0.0,0.0,0.0,0.0,0.0,0.0,0.0,0.0,0.0,5.0755,5.4172,5.7697,6.0503,6.2071,6.3057,6.3403,0.0,0.0,0.0,0.0,0.0,0.0,0.0,6.2154,6.32,6.2963,6.322,6.5064,6.801,6.9857,6.9013,0.0,0.0,6.1668,5.9211,5.8425,5.8425,5.904,5.9693,5.9994,6.1376,6.2529,0.0,0.0,0.0,0.0,0.0,0.0,0.0,0.0,4.2219,4.2391,0.0,4.0273,0.0,0.0,0.0,0.0,0.0,4.3478,0.0,0.0,5.3325,5.5707,5.4301,5.5784,5.5746,5.4302,5.5667,5.3816,4.8622,4.0512,0.0,0.0,0.0,0.0,0.0,0.0,4.5881,5.0111,5.3595,5.5746,5.6564,5.6552,5.6506,5.6467,5.4856,5.2779,5.0321,4.8369,4.5503,4.1421,3.7839,0.0,0.0,0.0,0.0,0.0,0.0,0.0,0.0,0.0,0.0,0.0,0.0,0.0,0.0,0.0,0.0,0.0,0.0,0.0,0.0,3.6673,0.0,0.0,0.0,0.0,0.0,0.0,0.0,0.0,0.0,0.0,5.6588,5.9006,6.2204,6.548,0.0,0.0,0.0,0.0,6.4705,6.4743,6.5436,6.575,6.4936,6.6737,6.7776,6.6397,0.0,0.0,7.0129,7.2007,7.336,7.2559,7.3168,7.3122,7.1321,6.9314,6.8231,6.8231,6.7583,6.7628,6.8391,6.9385,7.0622,5.0669,0.0,0.0,0.0,0.0,4.8132,4.9948,5.2647,5.2216,5.095,4.9049,4.7449,0.0,0.0,0.0,0.0,0.0,0.0,4.9736,5.278,5.5434,5.6956,5.7659,5.8166,5.8127,5.7659,5.7504,5.668,5.5031,5.0888,4.521,3.8347,0.0,0.0,0.0,0.0,4.883,5.1918,5.477,5.6371,5.6605,5.6563,5.6599,5.656,5.5505,5.4251,5.2916,5.1188,4.9111,4.6606,4.2625,0.0,0.0,0.0,0.0,0.0,0.0,0.0,0.0,0.0,0.0,0.0,0.0,0.0,0.0,0.0,0.0,0.0,0.0,0.0,3.7753,3.8678,4.0024,0.0,0.0,0.0,0.0,0.0,0.0,0.0,0.0,0.0,6.6683,6.5462,6.5243,0.0,0.0,6.6474,6.6705,6.6519,6.659,6.7199,6.8052,0.0,6.8282,6.8314,6.9084,7.1014,7.363,7.5553,7.5907,7.6592,7.6984,7.6714,7.6907,7.6907,7.6291,7.3976,7.2199,7.2045,7.2276,7.2545,7.2892,7.3783,7.4553,5.8451,5.5303,5.2467,5.2037,5.3317,5.3702,5.5237,5.7463,5.7134,5.621,5.4888,5.3677,5.1257,4.7938,4.6379,0.0,0.0,0.0,5.3639,5.684,5.7699,5.8635,5.9611,5.9962,5.9962,5.9611,5.9065,5.8675,5.8285,5.6762,5.2614,4.6075,0.0,0.0,4.5286,4.8604,5.1454,5.3679,5.563,5.6605,5.6605,5.6605,5.6605,5.6566,5.5747,5.4886,5.4021,5.2653,5.1129,4.9365,4.6145,4.2623,0.0,0.0,0.0,0.0,0.0,0.0,0.0,0.0,0.0,0.0,0.0,3.2928,2.8938,0.0,0.0,0.0,3.5964,3.9527,4.3341,4.4635,0.0,0.0,0.0,0.0,0.0,0.0,0.0,6.3434,6.7429,7.0681,7.2691,7.1329,7.049,7.1408,7.0138,6.9135,6.9135,0.0,6.8783,6.9321,7.0129,7.0937,7.1552,7.1238,7.1853,7.4553,7.6823,7.8361,7.89,7.9292,7.9523,7.9515,7.9515,7.94,7.9054,7.7323,7.5853,7.5592,7.613,7.67,7.6738,7.7161,7.7515,6.4337,6.3829,5.8325,5.645,5.7192,5.7894,5.8636,5.922,5.848,5.8987,6.0237,5.8714,5.7543,5.6644,5.4265,0.0,5.5748,5.6528,5.7737,5.9338,6.0119,6.051,6.0549,6.1328,6.1289,6.051,6.051,6.008,5.9338,5.922,5.801,5.567,5.2428,5.114,5.1726,5.2625,5.3874,5.5475,5.6294,5.6683,5.6605,5.6605,5.6567,5.6488,5.5669,5.4772,5.3912,5.2975,5.1765,5.0163,4.8439,4.5665,4.1606,0.0,0.0,0.0,0.0,0.0,0.0,0.0,0.0,0.0,0.0,0.0,0.0,0.0,0.0,0.0,4.2133,0.0,5.0122,5.2701,0.0,0.0,0.0,5.8793,5.9841,6.427,6.7506,6.8261,0.0,0.0,7.5642,7.6326,7.6794,7.667,7.4269,7.251,7.2406,7.1668,7.1206,7.1129,7.1937,7.306,7.4361,7.4815,7.5546,7.7169,7.8823,7.9823,7.9939,8.0362,8.0939,8.0823,8.09,8.0592,7.9815,7.9469,7.9554,7.86,7.9015,7.9585,7.9546,7.9546,7.9592,6.4883,6.4181,6.2736,6.1877,6.1486,6.1681,6.1524,6.1055,6.086,6.0626,6.0354,5.9964,5.93,5.8479,5.7854,5.8168,5.9183,5.9417,6.0079,6.1055,6.1289,6.1407,6.1407,6.1602,6.1602,6.1407,6.1407,6.1289,6.1055,6.0431,5.9807,5.9145,5.7698,5.6097,5.4499,5.5865,5.6802,5.7192,5.7427,5.723,5.6644,5.6605,5.6293,5.563,5.4771,5.3912,5.3015,5.1531,5.0515,5.0085,4.8482,4.6529,4.4149,3.9967,0.0,0.0,0.0,0.0,0.0,0.0,0.0,0.0,0.0,4.2959,3.5904,0.0,4.6439,0.0,4.7536,5.078,5.3755,5.4616,0.0,0.0,6.335,6.5209,6.9375,7.1406,7.2837,7.3741,7.6082,7.7912,7.8575,7.8698,7.8978,7.9484,7.7147,7.5021,7.4256,7.393,7.3584,7.3168,7.4144,7.5207,7.5729,7.7361,7.8646,7.9131,8.01,8.0785,8.0785,8.04,8.0092,8.0054,7.9554,7.91,7.8869,7.9323,7.9708,7.9515,7.9169,7.9015,7.9631,7.9815,8.0008,6.5858,6.5391,6.543,6.4922,6.414,6.3751,6.3086,6.2304,6.2265,6.1797,6.0978,6.0978,6.0704,6.0274,6.0235,6.0509,6.0939,6.0978,6.125,6.168,6.1719,6.1719,6.1719,6.1719,6.1719,6.1719,6.1719,6.1719,6.168,6.1211,6.0978,6.0978,6.0509,5.9572,5.8207,5.8324,5.8363,5.8363,5.8011,5.7582,5.7151,5.6761,5.5981,5.4771,5.4264,5.321,5.1609,5.0593,4.9772,4.9031,4.8446,4.7353,4.5635,4.3291,4.1222,0.0,0.0,0.0,0.0,0.0,0.0,0.0,0.0,0.0,0.0,0.0,5.161,5.1454,5.3835,5.6918,6.0666,6.172,6.4179,6.9059,6.9813,7.1132,7.4131,7.5434,7.6365,7.6905,7.8157,7.917,7.9637,7.9604,7.9825,8.0596,7.9283,7.769,7.6314,7.5992,7.5838,7.5452,7.6108,7.6894,7.7278,7.8875,8.0061,8.0106,8.0493,8.0796,8.0796,8.0409,7.9952,7.9478,7.925,7.9015,7.8637,7.9208,7.97,7.9246,7.8823,7.9023,8.0092,8.0092,7.9977,6.6912,6.6796,6.6796,6.6406,6.5702,6.4922,6.4064,6.3164,6.3164,6.2696,6.1875,6.1758,6.1719,6.1719,6.1719,6.1719,6.1719,6.1719,6.1719,6.1721,6.1719,6.172,6.1723,6.172,6.1719,6.1721,6.172,6.1719,6.1719,6.1719,6.1719,6.1719,6.1719,6.1719,6.1641,6.0196,5.9377,5.9259,5.8402,5.7933,5.7777,5.7112,5.5864,5.4106,5.3795,5.2506,5.0046,4.9928,4.9266,4.7899,4.8642,4.8408,4.6885,4.6691,4.5871,0.0,4.4192,0.0,0.0,0.0,0.0,0.0,0.0,0.0,0.0,5.4771,5.7193,5.852,6.0394,6.3438,6.8043,6.9995,7.1987,7.4369,7.5541,7.6127,7.6205,7.7571,7.8508,7.843,7.9053,7.9522,7.9483,7.9522,7.9768,8.0399,8.0569,7.9884,7.8421,7.7993,7.7893,7.7854,7.7893,7.8381,7.9233,8.0053,8.0548,8.0446,8.0383,8.0329,8.0228,8.0077,7.9762,7.9116,7.9296,7.9423,7.8683,7.9281,7.9591,7.8989,7.8914,7.9369,8.04,8.0285,7.9854,6.742,6.6796,6.6796,6.6718,6.6562,6.6406,6.5469,6.4064,6.4064,6.3556,6.2735,6.1992,6.1719,6.1719,6.1719,6.1719,6.1719,6.1719,6.1725,6.1695,6.1723,6.169,6.1703,6.1689,6.1725,6.1694,6.1723,6.1719,6.1719,6.1719,6.1719,6.1719,6.1719,6.1719,6.168,0.0,0.0,0.0,5.93,5.8519,5.7816,5.766,5.6411,5.4068,5.2624,0.0,4.9189,4.9072,4.8915,4.8642,5.0048,0.0,0.0,0.0,0.0,0.0,0.0,0.0,0.0,0.0,0.0,0.0,5.6839,5.6097,5.4889,6.0119,6.3516,6.3205,6.5858,6.8357,7.0034,7.1752,7.3549,7.5346,7.6986,7.7923,7.7962,7.8819,7.9209,7.8469,7.8547,7.8664,7.8664,7.8624,7.897,7.9773,8.0477,8.0709,8.0139,7.9878,7.9597,7.902,7.9369,8.0189,8.1072,8.1246,8.0992,8.0645,8.0373,8.0105,7.945,7.8789,7.8625,7.8802,7.8612,7.8491,7.8874,7.9581,8.0042,7.981,8.0207,8.0477,8.0131,7.9939,8.0008,6.8474,6.8046,6.7615,6.7462,0.0,6.6961,6.6339,6.5562,6.5122,6.4222,6.2978,6.2554,6.2087,6.1697,6.1697,6.1697,6.1696,6.1697,6.1699,6.1704,6.1698,6.1702,6.1709,6.1701,6.1699,6.1703,6.1699,6.1694,6.169,6.1695,6.1691,6.1719,6.1726,6.1725,6.1719,6.1719,6.1485,6.1055,6.0198,5.9534,5.9067,5.8247,5.6802,5.4733,5.3796,0.0,0.0,0.0,0.0,0.0,0.0,0.0,0.0,0.0,0.0,5.2624,5.3872,5.4731,5.5239,5.7193,5.9184,6.086,6.2189,6.2189,6.0511,6.4336,6.7029,6.7459,6.945,7.1363,7.308,7.4408,7.5852,7.7531,7.8507,7.8899,7.8508,7.878,7.8702,7.796,7.7766,7.7766,7.7766,7.7766,7.8118,7.8936,7.9405,7.9862,8.0202,8.0802,8.0867,8.0096,8.0708,8.1169,8.0773,8.0695,8.0614,8.0111,7.9721,7.9292,7.8822,7.8396,7.8108,7.8083,7.8256,7.8742,7.9079,8.0063,8.0921,8.091,8.1169,8.1247,8.0708,8.0513,8.0554,6.9535,6.934,6.8636,6.8331,6.8261,6.7401,6.6975,6.6824,0.0,0.0,0.0,6.3308,6.2725,6.1943,6.1943,6.1826,6.1709,6.1709,6.1709,6.171,6.1709,6.171,6.1711,6.171,6.1709,6.171,6.171,6.1706,6.17,6.1706,6.1702,6.1689,6.1696,6.1696,6.1726,6.1725,6.1725,6.1687,6.0979,6.0549,6.0354,5.8987,5.7466,5.5787,5.5592,5.446,5.2195,5.2937,5.2741,5.1374,5.2194,5.3014,5.3601,5.5124,5.6568,5.8011,6.0353,6.1446,6.0939,6.3127,6.4337,6.3906,6.5977,6.7029,6.6522,6.7771,6.9292,7.101,7.1831,7.3275,7.5775,7.6789,7.7882,7.9326,7.96,7.9287,7.8352,7.8196,7.7884,7.7257,7.714,7.7101,7.714,7.714,7.7335,7.8001,7.8391,7.8703,7.9633,8.067,8.1123,8.0583,8.0948,8.1192,8.0143,7.9787,7.9637,7.947,7.8891,7.8391,7.8196,7.8157,7.7861,7.7438,7.8434,7.925,7.954,8.0694,8.1675,8.1748,8.1717,8.165,8.1502,8.1446,8.1374,7.0104,6.9401,6.9283,6.9206,6.9168,6.8308,6.7527,6.6825,6.5964,6.5457,6.5185,6.4443,6.3662,6.2803,6.2803,6.2412,6.1709,6.1709,6.1712,6.1716,6.1711,6.1714,6.1718,6.1713,6.1712,6.1716,6.1712,6.1709,6.1707,6.1709,6.1707,6.1706,6.1707,6.1707,6.1706,6.1706,6.1706,6.1705,6.1613,6.1172,6.0432,6.0159,5.9223,5.7544,5.6801,5.5903,5.4811,5.5591,5.5941,5.5746,5.719,5.7737,5.7153,5.8011,5.8674,5.8986,6.0665,6.1953,6.2618,6.4375,6.6014,6.7301,6.8397,6.9294,6.9917,7.019,7.1049,7.2728,7.3001,7.4172,7.6594,7.7649,7.8274,7.8586,7.9248,7.9053,7.7531,7.7335,7.7296,7.7101,7.7101,7.7101,7.7101,7.7101,7.714,7.7375,7.7884,7.8663,7.9325,7.9865,7.9975,7.9857,7.9943,7.9951,7.9598,7.9676,7.9366,7.8703,7.8469,7.8079,7.7492,7.7375,7.7486,7.8026,7.8915,7.9807,8.0454,8.1371,8.1896,8.1955,8.1836,8.1717,8.1665,8.2076,8.221,7.116,7.077,7.0302,7.0109,6.9994,6.8708,6.7927,6.7537,6.6678,6.6012,6.5581,6.5192,6.4529,6.367,6.3201,6.2771,6.2381,6.1912,6.1717,6.1718,6.1717,6.1718,6.1719,6.1718,6.1717,6.1718,6.1717,6.1716,6.1714,6.1716,6.1715,6.1709,6.1709,6.1709,6.1709,6.1709,6.1709,6.1709,6.1702,6.15,6.1105,6.0637,6.0009,5.9223,5.8401,5.7776,5.7386,5.7737,5.7971,5.7971,5.8674,5.9142,5.9222,5.9573,6.0237,6.1174,6.2423,6.3516,6.4375,6.6014,6.7498,6.8708,6.9606,7.0504,7.1363,7.1402,7.1753,7.2534,7.3354,7.4603,7.6283,7.761,7.8391,7.8391,7.8781,7.8468,7.7375,7.7101,7.7101,7.7101,7.7101,7.7101,7.7101,7.7101,7.7101,7.714,7.7492,7.7882,7.8233,7.8311,7.8507,7.8897,7.9366,7.9209,7.8546,7.8702,7.8585,7.7844,7.7688,7.7532,7.714,7.7101,7.7296,7.7687,7.8741,7.9756,8.0302,8.137,8.1969,8.2155,8.2089,8.1987,8.1955,8.2094,8.2334,7.1985,7.1907,7.1282,7.0894,7.0584,6.9297,6.8555,6.8164,6.7461,6.6718,6.5936,6.5898,6.539,6.457,6.3867,6.3476,6.3203,6.2578,6.2187,6.1992,6.1992,6.1875,6.1719,6.1719,6.1719,6.1719,6.1719,6.1718,6.1718,6.1718,6.1718,6.1713,6.1713,6.1713,6.1712,6.1713,6.1713,6.1713,6.1713,6.171,6.1701,6.1037,6.0681,6.0636,6.0046,5.9693,5.9693,5.969,5.9689,5.9689,5.9689,6.0002,6.0627,6.09,6.1603,6.2891,6.4025,6.4961,6.5858,6.7264,6.8472,6.9333,7.0191,7.1049,7.187,7.1987,7.2104,7.2417,7.3666,7.4915,7.6127,7.7493,7.8391,7.8391,7.8391,7.8079,7.7257,7.7101,7.7101,7.7101,7.7101,7.7101,7.7101,7.7101,7.7101,7.7101,7.7101,7.7101,7.7101,7.7101,7.7414,7.796,7.8702,7.8585,7.7335,7.7648,7.7804,7.714,7.7101,7.714,7.7101,7.7218,7.7414,7.7687,7.8897,7.9912,8.0146,8.1199,8.2132,8.2285,8.2278,8.2306,8.2398,8.2319,8.2336,7.1992,7.1992,7.1875,7.1406,7.0742,7.0508,6.957,6.832,6.8125,6.7578,6.6797,6.6758,6.6289,6.5547,6.5351,6.4883,6.418,6.4101,6.3594,6.293,6.289,6.2461,6.1836,6.1719,6.1719,6.1719,6.1719,6.1719,6.1719,6.1719,6.1719,6.1719,6.1719,6.1719,6.1719,6.1719,6.1719,6.1719,6.1719,6.1717,6.1709,6.163,6.159,6.159,6.1506,6.1462,6.1345,6.1451,6.1446,6.1485,6.1407,6.1485,6.1641,6.2304,6.2813,6.3086,6.457,6.5819,6.6679,6.7576,6.8513,6.9333,7.027,7.1088,7.1909,7.1987,7.2339,7.3041,7.3939,7.5071,7.6789,7.7766,7.8235,7.8274,7.8313,7.8079,7.7296,7.7101,7.7101,7.7101,7.7101,7.7101,7.7101,7.7101,7.7101,7.7101,7.7101,7.7101,7.7101,7.7101,7.7101,7.7218,7.7375,7.7375,7.714,7.714,7.7257,7.7101,7.7101,7.7101,7.7179,7.7649,7.8235,7.8157,7.9484,8.0537,8.0966,8.1669,8.2254,8.2292,8.237,8.2485,8.3103,8.3165,8.2981,7.1992,7.1992,7.1992,7.1797,7.1445,7.0937,7.0312,6.9609,6.8633,6.8008,6.7617,6.7148,6.668,6.6328,6.5859,6.539,6.5039,6.4531,6.4101,6.3789,6.375,6.3555,6.3242,6.2695,6.2461,6.2422,6.1953,6.1719,6.1719,6.1719,6.1719,6.1719,6.1719,6.1719,6.1719,6.1719,6.1719,6.1719,6.1719,6.1718,6.1717,6.1715,6.1712,6.1709,6.1707,6.1705,6.1705,6.1701,6.1699,6.1698,6.1695,6.1964,6.2432,6.2817,6.3477,6.4453,6.5663,6.6678,6.7498,6.8396,6.9255,7.0113,7.0972,7.1636,7.1948,7.1987,7.2143,7.2534,7.3315,7.429,7.5462,7.636,7.7064,7.7492,7.761,7.7492,7.714,7.7101,7.7101,7.7101,7.7101,7.7101,7.7101,7.7101,7.7101,7.7101,7.7101,7.7101,7.7101,7.7101,7.7101,7.7101,7.7101,7.7101,7.7101,7.7101,7.7101,7.7101,7.7101,7.7101,7.7179,7.7335,7.7766,7.8274,7.9523,8.0498,8.0888,8.1669,8.2292,8.2292,8.2292,8.2411,8.2723,8.2762,8.2489,7.1992,7.1992,7.1992,7.1992,7.1953,7.1328,7.0937,7.0547,6.918,6.8437,6.8125,6.7265,6.6914,6.6797,6.625,6.5937,6.5859,6.5312,6.4883,6.4687,6.4648,6.4531,6.4258,6.3672,6.3359,6.3242,6.2734,6.2305,6.207,6.1797,6.1719,6.1719,6.1719,6.1719,6.1719,6.1719,6.1719,6.1719,6.1719,6.1719,6.1719,6.1718,6.1717,6.1714,6.1712,6.1711,6.1711,6.171,6.1709,6.1709,6.1704,6.2091,6.2911,6.3218,6.4111,6.5746,6.6485,6.7185,6.8043,6.8903,6.9762,7.0619,7.1519,7.1987,7.1987,7.1987,7.1987,7.2065,7.261,7.3315,7.4408,7.5268,7.6166,7.6945,7.7101,7.7101,7.7101,7.7101,7.7101,7.7101,7.7101,7.7101,7.7101,7.7101,7.7101,7.7101,7.7101,7.7101,7.7101,7.7101,7.7101,7.7101,7.7101,7.7101,7.7101,7.7101,7.7101,7.7101,7.7101,7.7101,7.714,7.7257,7.7532,7.843,7.9328,8.0146,8.0888,8.1669,8.2292,8.2292,8.2292,8.2292,8.2411,8.2331,8.2331,7.1992,7.1992,7.1992,7.1992,7.1992,7.1914,7.1445,7.0703,6.9805,6.8984,6.8203,6.7344,6.6914,6.6875,6.6797,6.6836,6.6797,6.668,6.6211,6.5586,6.5547,6.5117,6.4336,6.4258,6.4258,6.4219,6.3945,6.3515,6.2812,6.207,6.1719,6.1719,6.1719,6.1719,6.1719,6.1719,6.1719,6.1719,6.1719,6.1719,6.1719,6.1719,6.1719,6.1719,6.1717,6.1716,6.1716,6.1712,6.1709,6.1709,6.1787,6.2138,6.2997,6.3857,6.5063,6.65,6.6802,6.7226,6.8085,6.8983,6.9841,7.066,7.1558,7.1987,7.1987,7.1987,7.1987,7.1987,7.2104,7.2768,7.429,7.519,7.6086,7.6945,7.7101,7.7101,7.7101,7.7101,7.7101,7.7101,7.7101,7.7101,7.7101,7.7101,7.7101,7.7101,7.7101,7.7101,7.7101,7.7101,7.7101,7.7101,7.7101,7.7101,7.7101,7.7101,7.7101,7.7101,7.7101,7.7101,7.7375,7.7688,7.804,7.8664,7.9718,8.0499,8.1007,8.1552,8.2098,8.2292,8.2292,8.2292,8.2292,8.2292,8.2292,7.1947,7.1992,7.1992,7.1992,7.1992,7.1992,7.1797,7.1445,7.0625,6.9765,6.8906,6.8086,6.7422,6.6914,6.6914,6.6914,6.6914,6.6914,6.6719,6.6445,6.6445,6.625,6.5937,6.539,6.5117,6.4961,6.3984,6.3008,6.2226,6.1836,6.1719,6.1719,6.1719,6.1719,6.1719,6.1719,6.1719,6.1719,6.1719,6.1719,6.1719,6.1719,6.1719,6.1719,6.1719,6.1718,6.1718,6.1718,6.1952,6.2499,6.2536,6.3199,6.4565,6.5499,6.6199,6.6821,6.7327,6.8028,6.8886,6.9741,7.0595,7.1414,7.1797,7.1989,7.1987,7.1987,7.1987,7.1987,7.1987,7.2768,7.4095,7.4798,7.554,7.6789,7.7101,7.7101,7.7101,7.7101,7.7101,7.7101,7.7101,7.7101,7.7101,7.7101,7.7101,7.7101,7.7101,7.7101,7.7101,7.7101,7.7101,7.7101,7.7101,7.7101,7.7101,7.7101,7.7101,7.7101,7.7101,7.7101,7.7257,7.7335,7.7571,7.8391,7.9601,8.0537,8.0927,8.1708,8.2215,8.2295,8.2295,8.2296,8.2292,8.2299,8.2298,7.1838,7.1947,7.1948,7.1951,7.1992,7.1992,7.1992,7.1875,7.1094,7.0195,6.9375,6.8555,6.7734,6.6992,6.6914,6.6914,6.6914,6.6914,6.6914,6.6914,6.6914,6.6914,6.6797,6.6289,6.6015,6.5742,6.4258,6.2969,6.2148,6.1836,6.1719,6.1719,6.1719,6.1719,6.1719,6.1719,6.1719,6.1719,6.1719,6.1797,6.207,6.2109,6.2265,6.25,6.2539,6.2265,6.1758,6.1953,6.2383,6.293,6.3242,6.4061,6.5467,6.6401,6.6906,6.6984,6.7646,6.8466,6.9364,7.0219,7.1075,7.1893,7.2001,7.1994,7.1994,7.1991,7.1989,7.2026,7.2339,7.3041,7.4134,7.4759,7.554,7.6789,7.7101,7.7101,7.7101,7.7101,7.7101,7.7101,7.7101,7.7101,7.7101,7.7101,7.7101,7.7101,7.7101,7.7101,7.7101,7.7101,7.7101,7.7101,7.7101,7.7101,7.7101,7.7101,7.7101,7.7101,7.7101,7.7101,7.7101,7.7101,7.7376,7.8235,7.9172,8.0146,8.1005,8.1825,8.214,8.2299,8.2302,8.2307,8.2308,8.231,8.2309,7.1722,7.1789,7.1793,7.1859,7.1992,7.1992,7.1992,7.1875,7.1133,7.0351,6.9531,6.8633,6.7851,6.7109,6.6953,6.6914,6.6914,6.6914,6.6914,6.6914,6.6914,6.6914,6.6875,6.6797,6.668,6.6562,6.5078,6.3867,6.3008,6.2265,6.1836,6.1836,6.1875,6.1953,6.1797,6.1992,6.1875,6.1953,6.1992,6.2265,6.289,6.3008,6.3359,6.4023,6.4101,6.3398,6.1953,6.2578,6.3086,6.3242,6.3906,6.4687,6.5664,6.6483,6.6911,6.7106,6.7728,6.8545,6.9405,7.0303,7.12,7.1823,7.2011,7.2006,7.2004,7.1997,7.1991,7.2107,7.2652,7.3549,7.4369,7.5112,7.5932,7.6945,7.7101,7.7101,7.7101,7.7101,7.7101,7.7101,7.7101,7.7101,7.7101,7.7101,7.7101,7.7101,7.7101,7.7101,7.7101,7.7101,7.7101,7.7101,7.7101,7.7101,7.7101,7.7101,7.7101,7.7101,7.7101,7.7101,7.7101,7.7101,7.7301,7.8044,7.9067,8.0042,8.1488,8.2192,8.2232,8.2313,8.2314,8.2318,8.232,8.2322,8.2321,7.1605,7.1718,7.1774,7.184,7.1858,7.1951,7.1992,7.1992,7.168,7.1094,7.0273,6.9453,6.8633,6.7773,6.7187,6.6914,6.6914,6.6914,6.6914,6.6914,6.6914,6.6914,6.6914,6.6914,6.6562,6.6015,6.5469,6.4726,6.3867,6.3008,6.2851,6.3281,6.2851,6.293,6.3398,6.3515,6.3476,6.3515,6.3476,6.3633,6.3867,6.3906,6.4023,6.4258,6.4297,6.3984,6.3555,6.375,6.418,6.4726,6.5039,6.5586,6.6367,6.6758,6.7187,6.7773,6.8554,6.9374,7.0233,7.1052,7.1675,7.1947,7.1982,7.1977,7.1977,7.1974,7.2008,7.2002,7.2273,7.2935,7.4176,7.472,7.5619,7.6945,7.7101,7.7101,7.7101,7.7101,7.7101,7.7101,7.7101,7.7101,7.7101,7.7101,7.7101,7.7101,7.7101,7.7101,7.7101,7.7101,7.7101,7.7101,7.7101,7.7101,7.7101,7.7101,7.7101,7.7101,7.7101,7.7106,7.7104,7.7145,7.7343,7.7974,7.8996,8.0171,8.1617,8.2321,8.2321,8.2285,8.2249,8.2251,8.2292,8.2215,8.2097,7.1528,7.1638,7.1677,7.1727,7.1762,7.1895,7.1914,7.1948,7.1992,7.1484,7.0664,6.9844,6.9023,6.8164,6.7305,6.6914,6.6914,6.6914,6.6914,6.6914,6.6914,6.6914,6.6914,6.6914,6.6445,6.5742,6.5625,6.5156,6.4297,6.3789,6.375,6.4062,6.375,6.3711,6.4258,6.4297,6.4297,6.4297,6.4297,6.4453,6.4726,6.4805,6.4961,6.5195,6.5273,6.5273,6.5273,6.5273,6.5351,6.5625,6.5898,6.6484,6.7265,6.7422,6.7773,6.8594,6.9414,7.0156,7.0703,7.1445,7.1991,7.199,7.1988,7.1985,7.1984,7.1983,7.2056,7.2404,7.2871,7.353,7.4731,7.5353,7.5975,7.6945,7.7101,7.7101,7.7101,7.7101,7.7101,7.7101,7.7101,7.7101,7.7101,7.7101,7.7101,7.7101,7.7101,7.7101,7.7101,7.7101,7.7101,7.7101,7.7101,7.7101,7.7101,7.7101,7.7101,7.7101,7.7101,7.7107,7.7072,7.7114,7.7233,7.8257,7.924,8.0217,8.1585,8.2132,8.229,8.2254,8.218,8.2025,8.1949,8.1754,8.1715,7.1378,7.1499,7.1524,7.1584,7.1702,7.1759,7.1827,7.1835,7.1904,7.1523,7.0742,7.0039,6.914,6.8242,6.75,6.7031,6.6914,6.6914,6.6914,6.6914,6.6914,6.6914,6.6914,6.6914,6.6484,6.5898,6.5781,6.5312,6.4765,6.4492,6.4414,6.4609,6.4531,6.4453,6.4687,6.4531,6.4648,6.4726,6.4609,6.5,6.5625,6.5664,6.5976,6.668,6.668,6.668,6.664,6.6601,6.6367,6.5898,6.6523,6.7305,6.8008,6.8203,6.8672,6.9492,7.0273,7.0664,7.0937,7.1562,7.1992,7.1992,7.1991,7.199,7.1989,7.2143,7.2491,7.3114,7.3896,7.479,7.5642,7.6264,7.6806,7.7029,7.7104,7.7103,7.7101,7.7101,7.7101,7.7101,7.7101,7.7101,7.7101,7.7101,7.7101,7.7101,7.7101,7.7101,7.7103,7.7103,7.7103,7.7106,7.711,7.7075,7.7078,7.7078,7.7078,7.7078,7.7077,7.7117,7.7199,7.7241,7.744,7.8423,7.9287,8.0341,8.1172,8.1679,8.2148,8.2262,8.2068,8.1757,8.1601,8.1562,8.1523,7.1329,7.1363,7.1465,7.1509,7.157,7.1658,7.1743,7.1746,7.177,7.1663,7.1337,7.0679,6.9795,6.9062,6.8203,6.7539,6.7031,6.6914,6.6914,6.6914,6.6914,6.6914,6.6914,6.6914,6.6797,6.6523,6.6484,6.6445,6.6172,6.5547,6.5586,6.6172,6.5508,6.5586,6.6094,6.6133,6.6211,6.6211,6.6172,6.6211,6.6445,6.6523,6.664,6.6836,6.6914,6.6914,6.6914,6.6914,6.6836,6.668,6.7383,6.793,6.8281,6.8828,6.9492,7.0273,7.0586,7.1015,7.1562,7.1836,7.1992,7.1992,7.1992,7.1992,7.2031,7.2578,7.3008,7.3434,7.4097,7.4993,7.573,7.6118,7.6507,7.6973,7.7077,7.7104,7.7104,7.7101,7.7101,7.7101,7.7103,7.7103,7.7103,7.7101,7.7103,7.7103,7.7103,7.7104,7.7108,7.7075,7.7078,7.7082,7.7085,7.709,7.7092,7.7092,7.7093,7.7093,7.7092,7.7128,7.7327,7.7565,7.7881,7.851,7.902,7.9919,8.0625,8.1211,8.164,8.1953,8.1484,8.0976,8.1523,8.1679,8.1562,7.1291,7.1302,7.1392,7.1401,7.1429,7.1555,7.1621,7.1634,7.1683,7.1733,7.1585,7.0887,7.0069,6.9326,6.8476,6.7695,6.6953,6.6914,6.6914,6.6914,6.6914,6.6914,6.6914,6.6914,6.6914,6.6914,6.6914,6.6875,6.6797,6.6367,6.6484,6.668,6.6406,6.6445,6.6758,6.6914,6.6914,6.6875,6.6914,6.6914,6.6914,6.6914,6.6875,6.6914,6.6914,6.6914,6.6914,6.6914,6.7031,6.7422,6.793,6.8476,6.9219,6.9687,7.0351,7.1172,7.125,7.1523,7.1875,7.1992,7.1992,7.1992,7.1992,7.2187,7.2539,7.3047,7.3398,7.4413,7.4882,7.5544,7.6244,7.6436,7.6629,7.6979,7.7088,7.7081,7.7081,7.7082,7.7081,7.7079,7.7076,7.7072,7.7072,7.7106,7.7106,7.711,7.7073,7.7077,7.7082,7.7087,7.7091,7.7093,7.7094,7.7097,7.7097,7.7097,7.7098,7.71,7.7141,7.7139,7.7335,7.7656,7.7773,7.8125,7.875,7.9414,8.0039,8.0547,8.0859,8.0898,8.0469,8.039,8.0781,8.0937,8.0937,7.1291,7.1291,7.1291,7.1291,7.1334,7.142,7.1495,7.1485,7.1587,7.1656,7.1521,7.0859,7.0106,6.9242,6.858,6.7695,6.6875,6.6836,6.6836,6.6875,6.6875,6.6914,6.6914,6.6914,6.6914,6.6914,6.6914,6.6914,6.6875,6.6836,6.6875,6.6875,6.6836,6.6875,6.6914,6.6914,6.6914,6.6914,6.6914,6.6914,6.6914,6.6914,6.6914,6.6914,6.6914,6.6914,6.6953,6.707,6.7461,6.8281,6.832,6.914,7.039,7.0703,7.1172,7.1719,7.1875,7.1914,7.1992,7.1992,7.2109,7.2187,7.2226,7.25,7.3242,7.3711,7.4336,7.5469,7.5937,7.6367,7.6873,7.7104,7.7063,7.7102,7.7101,7.7101,7.71,7.7099,7.7098,7.7097,7.709,7.7086,7.7083,7.7077,7.7073,7.7084,7.7085,7.7087,7.7092,7.7135,7.7137,7.7139,7.7139,7.7101,7.7101,7.7101,7.7103,7.7103,7.7184,7.7185,7.7302,7.7461,7.7383,7.7656,7.8359,7.8906,7.9375,7.9805,8.0039,8.0117,7.9844,7.9648,7.9531,7.9531,7.9531,7.1291,7.1291,7.1291,7.1291,7.1302,7.1345,7.1332,7.1343,7.1383,7.1469,7.1474,7.1299,7.0415,6.9124,6.881,6.8082,6.6783,6.6674,6.6686,6.6736,6.6873,6.6914,6.6914,6.6914,6.6914,6.6914,6.6914,6.6914,6.6914,6.6914,6.6914,6.6914,6.6914,6.6914,6.6914,6.6914,6.6914,6.6914,6.6914,6.6914,6.6914,6.6914,6.6914,6.6914,6.6914,6.6914,6.707,6.7578,6.832,6.8906,6.9219,6.9687,7.0664,7.1367,7.1719,7.1875,7.1992,7.1992,7.1992,7.2031,7.2305,7.2851,7.293,7.3398,7.4258,7.4922,7.539,7.6015,7.6484,7.6914,7.7148,7.7187,7.7187,7.7187,7.7148,7.7148,7.7186,7.7104,7.71,7.7099,7.7097,7.7095,7.7095,7.7093,7.7093,7.7095,7.7096,7.7097,7.7109,7.7148,7.7143,7.7183,7.7184,7.7148,7.7148,7.7148,7.7148,7.7148,7.7187,7.7226,7.7305,7.7461,7.7461,7.7656,7.8008,7.8476,7.8906,7.8789,7.9023,7.9101,7.9219,7.9023,7.8789,7.8515,7.8594,7.1291,7.1291,7.1291,7.1291,7.1291,7.1291,7.1291,7.1291,7.1291,7.1361,7.1368,7.1387,7.0485,6.9033,6.8926,6.8092,6.6896,6.6592,6.6622,6.6672,6.6748,6.6771,6.6787,6.6829,6.6836,6.6875,6.6914,6.6914,6.6914,6.6914,6.6914,6.6914,6.6914,6.6914,6.6914,6.6914,6.6914,6.6914,6.6914,6.6914,6.6914,6.6914,6.6914,6.6914,6.6914,6.7031,6.7539,6.789,6.8828,6.9687,7.0039,7.039,7.1172,7.1719,7.1953,7.1992,7.1992,7.1992,7.1992,7.2031,7.2383,7.3242,7.332,7.4062,7.4844,7.5664,7.6094,7.6484,7.6914,7.7187,7.7226,7.7226,7.7226,7.7226,7.7226,7.7226,7.7187,7.7148,7.7145,7.7145,7.7144,7.7142,7.7141,7.7101,7.7141,7.7141,7.7142,7.7148,7.7148,7.7187,7.7187,7.7187,7.7187,7.7187,7.7187,7.7187,7.7187,7.7187,7.7187,7.7226,7.7226,7.7422,7.7617,7.7695,7.7734,7.8086,7.8398,7.8203,7.8203,7.8515,7.8633,7.8437,7.8164,7.789,7.8125,7.1291,7.1291,7.1291,7.1291,7.1291,7.1291,7.1291,7.1291,7.1291,7.1302,7.1297,7.1291,7.0414,6.9157,6.8872,6.7988,6.6896,6.6558,6.656,6.6569,6.6612,6.666,6.6696,6.6709,6.6723,6.6831,6.6875,6.6914,6.6914,6.6914,6.6914,6.6914,6.6914,6.6914,6.6914,6.6914,6.6914,6.6914,6.6914,6.6914,6.6914,6.6914,6.6914,6.6914,6.6914,6.7305,6.793,6.8398,6.9101,7.0547,7.082,7.1289,7.1758,7.1992,7.1992,7.1992,7.1992,7.1992,7.207,7.2187,7.2656,7.3398,7.3711,7.4492,7.5703,7.6172,7.6484,7.6875,7.7226,7.7226,7.7226,7.7226,7.7226,7.7226,7.7226,7.7226,7.7226,7.7226,7.7187,7.7187,7.7186,7.7185,7.7184,7.7145,7.7184,7.7187,7.7187,7.7226,7.7226,7.7226,7.7226,7.7226,7.7226,7.7226,7.7226,7.7226,7.7226,7.7226,7.7226,7.7226,7.7226,7.7305,7.7422,7.7344,7.7461,7.7773,7.789,7.7734,7.7812,7.8086,7.8008,7.7812,7.7539,7.7265,7.7695,7.1291,7.1291,7.1291,7.1291,7.1291,7.1291,7.1291,7.1291,7.1291,7.1291,7.1291,7.1253,7.0384,6.9226,6.8829,6.7852,6.6635,6.6373,6.6429,6.645,6.6516,6.6554,6.661,6.6619,6.6635,6.6679,6.6774,6.6875,6.6875,6.6914,6.6914,6.6914,6.6914,6.6914,6.6914,6.6914,6.6914,6.6914,6.6914,6.6914,6.6914,6.6914,6.6914,6.6914,6.6992,6.75,6.8242,6.8906,6.9687,7.0625,7.1406,7.1797,7.1953,7.1992,7.1992,7.1992,7.1992,7.1992,7.2031,7.2617,7.3398,7.4297,7.4805,7.5664,7.6601,7.6953,7.6953,7.707,7.7226,7.7226,7.7226,7.7226,7.7226,7.7226,7.7226,7.7226,7.7226,7.7226,7.7226,7.7226,7.7226,7.7226,7.7187,7.7187,7.7187,7.7187,7.7187,7.7226,7.7226,7.7226,7.7226,7.7226,7.7226,7.7226,7.7226,7.7226,7.7226,7.7226,7.7226,7.7226,7.7226,7.7226,7.7226,7.7226,7.7226,7.7383,7.7383,7.7305,7.7383,7.7617,7.7422,7.7226,7.7226,7.7226,7.7226,7.1291,7.1291,7.1291,7.1291,7.1291,7.1291,7.1291,7.1291,7.1291,7.1291,7.1291,7.1214,7.0639,6.9589,6.8926,6.7849,6.6612,6.6235,6.6294,6.6325,6.6345,6.6436,6.6488,6.6497,6.6546,6.6603,6.6686,6.6771,6.6797,6.6875,6.6875,6.6914,6.6914,6.6914,6.6914,6.6914,6.6914,6.6914,6.6914,6.6914,6.6914,6.6914,6.6914,6.6992,6.7383,6.8008,6.8789,6.9648,7.0469,7.125,7.1758,7.1953,7.1992,7.1992,7.1992,7.1992,7.1992,7.1992,7.1992,7.25,7.3125,7.4414,7.5039,7.5859,7.6797,7.7187,7.7226,7.7226,7.7226,7.7226,7.7226,7.7226,7.7226,7.7226,7.7226,7.7226,7.7226,7.7226,7.7226,7.7226,7.7226,7.7226,7.7226,7.7226,7.7226,7.7226,7.7226,7.7226,7.7226,7.7226,7.7226,7.7226,7.7226,7.7226,7.7226,7.7226,7.7226,7.7226,7.7226,7.7226,7.7226,7.7226,7.7226,7.7226,7.7226,7.7226,7.7226,7.7265,7.7226,7.7226,7.7226,7.7226,7.7226,7.7226,7.7226,7.1291,7.1291,7.1291,7.1291,7.1291,7.1291,7.1291,7.1291,7.1291,7.1291,7.1291,7.1253,7.0833,6.9899,6.8854,6.765,6.6263,6.6195,6.6205,6.621,6.6225,6.6258,6.6342,6.6353,6.6396,6.6468,6.6555,6.6617,6.67,6.6782,6.6833,6.6875,6.6875,6.6914,6.6914,6.6914,6.6914,6.6914,6.6914,6.6914,6.6914,6.6914,6.7031,6.7187,6.7851,6.8594,6.9609,7.0234,7.1015,7.164,7.1953,7.1992,7.1992,7.1992,7.1992,7.1992,7.1992,7.1992,7.2031,7.2344,7.3047,7.4101,7.4687,7.5664,7.6484,7.7031,7.7226,7.7226,7.7226,7.7226,7.7226,7.7226,7.7226,7.7226,7.7226,7.7226,7.7226,7.7226,7.7226,7.7226,7.7226,7.7226,7.7226,7.7226,7.7226,7.7226,7.7226,7.7226,7.7226,7.7226,7.7226,7.7226,7.7226,7.7226,7.7226,7.7226,7.7226,7.7226,7.7226,7.7226,7.7226,7.7226,7.7226,7.7226,7.7226,7.7226,7.7226,7.7226,7.7226,7.7226,7.7226,7.7226,7.7226,7.7226,7.7226,7.1291,7.1291,7.1291,7.1291,7.1291,7.1291,7.1291,7.1291,7.1291,7.1291,7.1291,7.1253,7.0789,6.9744,6.8352,6.7152,6.6456,6.6185,6.6185,6.6185,6.619,6.6205,6.623,6.622,6.6273,6.6321,6.6373,6.6494,6.6566,6.6693,6.6729,6.6736,6.6836,6.6914,6.6914,6.6914,6.6914,6.6914,6.6914,6.6914,6.6914,6.6953,6.7344,6.7812,6.832,6.9023,7.0234,7.0703,7.1211,7.1875,7.1992,7.1992,7.1992,7.1992,7.1992,7.1992,7.1992,7.1992,7.2109,7.25,7.3008,7.375,7.4648,7.5625,7.625,7.6875,7.7226,7.7226,7.7226,7.7226,7.7226,7.7226,7.7226,7.7226,7.7226,7.7226,7.7226,7.7226,7.7226,7.7226,7.7226,7.7226,7.7226,7.7226,7.7226,7.7226,7.7226,7.7226,7.7226,7.7226,7.7226,7.7226,7.7226,7.7226,7.7226,7.7226,7.7226,7.7226,7.7226,7.7226,7.7226,7.7226,7.7226,7.7226,7.7226,7.7226,7.7226,7.7226,7.7226,7.7226,7.7226,7.7226,7.7226,7.7226,7.7226,7.1291,7.1291,7.1291,7.1291,7.1291,7.1291,7.1291,7.1291,7.1291,7.1291,7.1291,7.1291,7.0595,6.9241,6.8003,6.7036,6.634,6.6185,6.6185,6.6185,6.6185,6.6185,6.619,6.6185,6.6185,6.621,6.6269,6.6294,6.6422,6.6579,6.6674,6.6677,6.6738,6.6836,6.6874,6.6914,6.6914,6.6914,6.6914,6.6914,6.7031,6.7383,6.7812,6.8242,6.9062,6.9961,7.0586,7.125,7.1523,7.1992,7.1992,7.1992,7.1992,7.1992,7.1992,7.1992,7.1992,7.1992,7.2031,7.2383,7.2773,7.3242,7.4101,7.4726,7.5703,7.668,7.7226,7.7226,7.7226,7.7226,7.7226,7.7226,7.7226,7.7226,7.7226,7.7226,7.7226,7.7226,7.7226,7.7226,7.7226,7.7226,7.7226,7.7226,7.7226,7.7226,7.7226,7.7226,7.7226,7.7226,7.7226,7.7226,7.7226,7.7226,7.7226,7.7226,7.7226,7.7226,7.7226,7.7226,7.7226,7.7226,7.7226,7.7226,7.7226,7.7226,7.7226,7.7226,7.7226,7.7226,7.7226,7.7226,7.7226,7.7226,7.7265,7.1291,7.1291,7.1291,7.1291,7.1291,7.1291,7.1291,7.1291,7.1291,7.1291,7.1214,7.1021,7.0015,6.8656,6.7771,6.7036,6.6224,6.6185,6.6185,6.6185,6.6185,6.6185,6.6185,6.6185,6.6185,6.6185,6.62,6.6225,6.6263,6.638,6.6516,6.6629,6.667,6.6735,6.6831,6.6875,6.6914,6.6914,6.6914,6.6914,6.7031,6.7734,6.8203,6.8867,6.9805,7.0781,7.1094,7.1562,7.1953,7.1992,7.1992,7.1992,7.1992,7.1992,7.1992,7.1992,7.1992,7.1992,7.1992,7.2148,7.2383,7.2851,7.3672,7.4648,7.6094,7.6914,7.7226,7.7226,7.7226,7.7226,7.7226,7.7226,7.7226,7.7226,7.7226,7.7226,7.7226,7.7226,7.7226,7.7226,7.7226,7.7226,7.7226,7.7226,7.7226,7.7226,7.7226,7.7226,7.7226,7.7226,7.7226,7.7226,7.7226,7.7226,7.7226,7.7226,7.7226,7.7226,7.7226,7.7226,7.7226,7.7226,7.7226,7.7226,7.7226,7.7226,7.7226,7.7226,7.7226,7.7226,7.7226,7.7226,7.7226,7.7226,7.7226,7.1291,7.1291,7.1291,7.1291,7.1291,7.1291,7.1291,7.1175,7.1214,7.1175,7.0943,7.0407,6.9164,6.7926,6.7462,6.692,6.6185,6.6185,6.6185,6.6185,6.6185,6.6185,6.6185,6.6185,6.6185,6.6185,6.6185,6.6185,6.619,6.625,6.632,6.639,6.6583,6.666,6.6777,6.6836,6.6875,6.6914,6.6914,6.6914,6.7148,6.7812,6.8594,6.9336,7.0195,7.1055,7.1836,7.1953,7.1992,7.1992,7.1992,7.1992,7.1992,7.1992,7.1992,7.1992,7.1992,7.1992,7.1992,7.1992,7.2031,7.2539,7.3594,7.5117,7.6445,7.6992,7.7187,7.7226,7.7226,7.7226,7.7226,7.7226,7.7226,7.7226,7.7226,7.7226,7.7226,7.7226,7.7226,7.7226,7.7226,7.7226,7.7226,7.7226,7.7226,7.7226,7.7226,7.7226,7.7226,7.7226,7.7226,7.7226,7.7226,7.7226,7.7226,7.7226,7.7226,7.7226,7.7226,7.7226,7.7226,7.7226,7.7226,7.7226,7.7226,7.7226,7.7226,7.7226,7.7226,7.7226,7.7226,7.7226,7.7226,7.7226,7.7226,7.1291,7.1291,7.1291,7.1291,7.1291,7.1291,7.0982,7.0562,7.0484,7.017,6.9744,6.9357,6.8622,6.7617,6.6882,6.6533,6.6224,6.6185,6.6185,6.6185,6.6185,6.6185,6.6185,6.6185,6.6185,6.6185,6.6185,6.6185,6.6185,6.6185,6.6215,6.6308,6.6449,6.6596,6.6706,6.6866,6.6953,6.6953,6.6914,6.6914,6.7187,6.8281,6.914,6.9414,7.0898,7.1562,7.1953,7.1992,7.1992,7.1992,7.1992,7.1992,7.1992,7.1992,7.1992,7.1992,7.1992,7.1992,7.1992,7.2031,7.2226,7.3086,7.4375,7.5664,7.6406,7.6797,7.7148,7.7226,7.7148,7.707,7.7226,7.7226,7.7226,7.7226,7.7226,7.7226,7.7226,7.7226,7.7226,7.7226,7.7226,7.7226,7.7226,7.7226,7.7226,7.7226,7.7226,7.7226,7.7226,7.7226,7.7226,7.7226,7.7226,7.7226,7.7226,7.7226,7.7226,7.7226,7.7226,7.7226,7.7226,7.7226,7.7226,7.7226,7.7226,7.7226,7.7226,7.7226,7.7226,7.7226,7.7226,7.7226,7.7226,7.7226,7.7226,7.1291,7.1291,7.1291,7.1291,7.1253,7.1026,7.0562,7.0059,6.9744,6.9164,6.8424,6.8385,6.7926,6.7114,6.6572,6.6224,6.6185,6.6185,6.6185,6.6185,6.6185,6.6185,6.6185,6.6185,6.6185,6.6185,6.6185,6.6185,6.6185,6.6185,6.62,6.6245,6.6299,6.6439,6.6672,6.7048,6.7224,6.7265,6.7265,6.707,6.7226,6.8476,6.9375,6.9648,7.1015,7.1836,7.1992,7.1992,7.1992,7.1992,7.1992,7.1992,7.1992,7.1992,7.1992,7.1992,7.1992,7.1992,7.1992,7.207,7.2422,7.3242,7.4062,7.5,7.5625,7.6133,7.6211,7.6719,7.6758,7.6914,7.707,7.7226,7.7226,7.7226,7.7226,7.7226,7.7226,7.7226,7.7226,7.7226,7.7226,7.7226,7.7226,7.7226,7.7226,7.7226,7.7226,7.7226,7.7226,7.7226,7.7226,7.7226,7.7226,7.7226,7.7226,7.7226,7.7226,7.7226,7.7226,7.7226,7.7226,7.7226,7.7226,7.7226,7.7226,7.7226,7.7226,7.7226,7.7226,7.7226,7.7226,7.7226,7.7226,7.7226,7.7226,7.1258,7.1291,7.1219,7.1214,7.1021,7.0407,6.9982,6.9672,6.9087,6.8352,6.7611,6.7573,6.7152,6.6495,6.6224,6.6185,6.6185,6.6185,6.6185,6.6185,6.6185,6.6185,6.6185,6.6185,6.6185,6.6185,6.6185,6.6185,6.6185,6.6185,6.6185,6.6185,6.6245,6.639,6.6507,6.7475,6.8029,6.8125,6.8164,6.7773,6.7734,6.8828,6.9492,7.0,7.1133,7.1992,7.1992,7.1992,7.1992,7.1992,7.1992,7.1992,7.1992,7.1992,7.1992,7.1992,7.1992,7.1992,7.1992,7.1992,7.2461,7.3203,7.3945,7.4258,7.457,7.4844,7.5312,7.6133,7.6133,7.6484,7.6836,7.7226,7.7226,7.7226,7.7226,7.7226,7.7226,7.7226,7.7226,7.7226,7.7226,7.7226,7.7226,7.7226,7.7226,7.7226,7.7226,7.7226,7.7226,7.7226,7.7226,7.7226,7.7226,7.7226,7.7226,7.7226,7.7226,7.7226,7.7226,7.7226,7.7226,7.7226,7.7226,7.7226,7.7226,7.7226,7.7226,7.7226,7.7226,7.7226,7.7226,7.7226,7.7226,7.7226,7.7226,7.0446,7.0407,6.986,6.9628,6.9667,6.9943,6.9396,6.8429,6.8003,6.7462,6.692,6.7191,6.7036,6.6417,6.6185,6.6185,6.6185,6.6185,6.6185,6.6185,6.6185,6.6185,6.6185,6.6185,6.6185,6.6185,6.6185,6.6185,6.6185,6.6185,6.6185,6.6185,6.6317,6.6611,6.7366,6.8268,6.8876,6.8929,6.8945,6.8867,6.8711,6.957,7.0234,7.0273,7.1406,7.1992,7.1992,7.1992,7.1992,7.1992,7.1992,7.1992,7.1992,7.1992,7.1992,7.1992,7.1992,7.1992,7.1992,7.207,7.2422,7.3086,7.3672,7.4023,7.4531,7.457,7.5078,7.5625,7.5859,7.6328,7.6992,7.7187,7.7226,7.7226,7.7226,7.7226,7.7226,7.7226,7.7226,7.7226,7.7226,7.7226,7.7226,7.7226,7.7226,7.7226,7.7226,7.7226,7.7226,7.7226,7.7226,7.7226,7.7226,7.7226,7.7226,7.7226,7.7226,7.7226,7.7226,7.7226,7.7226,7.7226,7.7226,7.7226,7.7226,7.7226,7.7226,7.7226,7.7226,7.7226,7.7226,7.7226,7.7226,7.7226,7.7226,6.9589,6.9512,6.9009,6.8617,6.8468,6.8932,6.8313,6.7191,6.7031,6.6688,6.6417,6.6804,6.6766,6.6301,6.6185,6.6185,6.6185,6.6185,6.6185,6.6185,6.6185,6.6185,6.6185,6.6185,6.6185,6.6185,6.6185,6.6185,6.6185,6.6185,6.6185,6.6263,6.6495,6.6985,6.7755,6.8472,6.936,6.9556,6.9765,6.9648,6.9648,7.0117,7.0664,7.0898,7.1445,7.1992,7.1992,7.1992,7.1992,7.1992,7.1992,7.1992,7.1992,7.1992,7.1992,7.1992,7.1992,7.1992,7.1992,7.1992,7.2305,7.2695,7.3437,7.3672,7.3828,7.3828,7.4531,7.5117,7.5664,7.6367,7.6992,7.7148,7.7226,7.7226,7.7226,7.7226,7.7226,7.7226,7.7226,7.7226,7.7226,7.7226,7.7226,7.7226,7.7226,7.7226,7.7226,7.7226,7.7226,7.7226,7.7226,7.7226,7.7226,7.7226,7.7226,7.7226,7.7226,7.7226,7.7226,7.7226,7.7226,7.7226,7.7226,7.7226,7.7226,7.7226,7.7226,7.7226,7.7226,7.7226,7.7226,7.7226,7.7226,7.7226,7.7226,6.8733,6.8772,6.8733,6.8192,6.7534,6.7539,6.7036,6.6263,6.6263,6.6263,6.6224,6.6263,6.6263,6.6224,6.6185,6.6185,6.6185,6.6185,6.6185,6.6185,6.6185,6.6185,6.6185,6.6185,6.6185,6.6185,6.6185,6.6185,6.6185,6.6185,6.6185,6.634,6.6727,6.7183,6.7706,6.8488,6.9425,7.0,7.0544,7.0256,7.0078,7.0312,7.0664,7.0937,7.1328,7.1797,7.1914,7.1992,7.1992,7.1992,7.1992,7.1992,7.1992,7.1992,7.1992,7.1992,7.1992,7.1992,7.1992,7.1992,7.1992,7.2226,7.2226,7.2109,7.2422,7.3125,7.3984,7.4805,7.5469,7.6289,7.6992,7.7109,7.7226,7.7226,7.7226,7.7226,7.7226,7.7226,7.7226,7.7226,7.7226,7.7226,7.7226,7.7226,7.7226,7.7226,7.7226,7.7226,7.7226,7.7226,7.7226,7.7226,7.7226,7.7226,7.7226,7.7226,7.7226,7.7226,7.7226,7.7226,7.7226,7.7226,7.7226,7.7226,7.7226,7.7226,7.7226,7.7226,7.7226,7.7226,7.7226,7.7226,7.7226,7.7226,7.7226,6.7887,6.7805,6.7186,6.6804,6.6611,6.6572,6.6417,6.6224,6.6185,6.6185,6.6185,6.6185,6.6185,6.6185,6.6185,6.6185,6.6185,6.6185,6.6185,6.6185,6.6185,6.6185,6.6185,6.6185,6.6185,6.6185,6.6185,6.6185,6.6185,6.6185,6.6185,6.6301,6.6533,6.692,6.756,6.8379,6.9281,7.0116,7.0754,7.0661,7.0338,7.0427,7.0625,7.0859,7.0976,7.1445,7.1875,7.1992,7.1992,7.1992,7.1992,7.1992,7.1992,7.1992,7.1992,7.1992,7.1992,7.1992,7.1992,7.1992,7.1992,7.1992,7.1992,7.1992,7.2226,7.2773,7.3633,7.4414,7.5351,7.6211,7.6836,7.7031,7.7148,7.7226,7.7226,7.7226,7.7226,7.7226,7.7226,7.7226,7.7226,7.7226,7.7226,7.7226,7.7226,7.7226,7.7226,7.7226,7.7226,7.7226,7.7226,7.7226,7.7226,7.7226,7.7226,7.7226,7.7226,7.7226,7.7226,7.7226,7.7226,7.7226,7.7226,7.7226,7.7226,7.7226,7.7226,7.7226,7.7226,7.7226,7.7226,7.7226,7.7226,7.7226,7.7226,6.6998,6.692,6.6417,6.6185,6.6185,6.6185,6.6185,6.6185,6.6185,6.6185,6.6185,6.6185,6.6185,6.6185,6.6185,6.6185,6.6185,6.6185,6.6185,6.6185,6.6185,6.6185,6.6185,6.6185,6.6185,6.6185,6.6185,6.6185,6.6185,6.6185,6.6185,6.6185,6.6185,6.6495,6.7041,6.7715,6.8423,6.934,7.0141,7.0538,7.0398,7.0189,7.0351,7.0586,7.0625,7.1172,7.1836,7.1953,7.1992,7.1992,7.1992,7.1992,7.1992,7.1992,7.1992,7.1992,7.1992,7.1992,7.1992,7.1992,7.1992,7.1992,7.1992,7.1992,7.2305,7.2812,7.3398,7.4062,7.5156,7.6094,7.6562,7.6953,7.707,7.7226,7.7226,7.7226,7.7226,7.7226,7.7226,7.7226,7.7226,7.7226,7.7226,7.7226,7.7226,7.7226,7.7226,7.7226,7.7226,7.7226,7.7226,7.7226,7.7226,7.7226,7.7226,7.7226,7.7226,7.7226,7.7226,7.7226,7.7226,7.7226,7.7226,7.7226,7.7226,7.7226,7.7226,7.7226,7.7226,7.7226,7.7226,7.7226,7.7226,7.7226,7.7226,6.6224,6.6224,6.6185,6.6185,6.6185,6.6185,6.6185,6.6185,6.6185,6.6185,6.6185,6.6185,6.6185,6.6185,6.6185,6.6185,6.6185,6.6185,6.6185,6.6185,6.6185,6.6185,6.6185,6.6185,6.6185,6.6185,6.6185,6.6185,6.6185,6.6185,6.6185,6.6185,6.6185,6.634,6.6533,6.7307,6.7768,6.789,6.8985,6.9699,6.936,6.9324,6.9648,7.0234,7.0547,7.0898,7.1601,7.1914,7.1992,7.1992,7.1992,7.1992,7.1992,7.1992,7.1992,7.1992,7.1992,7.1992,7.1992,7.1992,7.1992,7.1992,7.1992,7.1992,7.2265,7.2812,7.3398,7.375,7.4726,7.5351,7.582,7.6406,7.6719,7.6875,7.6992,7.7109,7.7226,7.7226,7.7226,7.7226,7.7226,7.7226,7.7226,7.7226,7.7226,7.7226,7.7226,7.7226,7.7226,7.7226,7.7226,7.7226,7.7226,7.7226,7.7226,7.7226,7.7226,7.7226,7.7226,7.7226,7.7226,7.7226,7.7226,7.7226,7.7226,7.7226,7.7226,7.7226,7.7226,7.7226,7.7226,7.7226,7.7226,7.7226,7.7226,6.6185,6.6185,6.6185,6.6185,6.6185,6.6185,6.6185,6.6185,6.6185,6.6185,6.6185,6.6185,6.6185,6.6185,6.6185,6.6185,6.6185,6.6185,6.6185,6.6185,6.6185,6.6185,6.6185,6.6185,6.6185,6.6185,6.6185,6.6185,6.6185,6.6185,6.6185,6.6185,6.6185,6.6185,6.6263,6.7036,6.7201,6.6825,6.764,6.8433,6.8282,6.8314,6.8555,6.9023,6.9336,7.0117,7.0898,7.164,7.1836,7.1992,7.1992,7.1992,7.1992,7.1992,7.1992,7.1992,7.1992,7.1992,7.1992,7.1992,7.1992,7.1992,7.1992,7.1992,7.2265,7.293,7.3359,7.3633,7.4023,7.457,7.5117,7.5742,7.6328,7.6562,7.6797,7.7031,7.7226,7.7226,7.7226,7.7226,7.7226,7.7226,7.7226,7.7226,7.7226,7.7226,7.7226,7.7226,7.7226,7.7226,7.7226,7.7226,7.7226,7.7226,7.7226,7.7226,7.7226,7.7226,7.7226,7.7226,7.7226,7.7226,7.7226,7.7226,7.7226,7.7226,7.7226,7.7226,7.7226,7.7226,7.7226,7.7226,7.7226,7.7226,7.7226,6.6185,6.6185,6.6185,6.6185,6.6185,6.6185,6.6185,6.6185,6.6185,6.6185,6.6185,6.6185,6.6185,6.6185,6.6185,6.6185,6.6185,6.6185,6.6185,6.6185,6.6185,6.6185,6.6185,6.6185,6.6185,6.6185,6.6185,6.6185,6.6185,6.6185,6.6185,6.6185,6.6185,6.6224,6.6263,6.665,6.6727,6.6268,6.6858,6.7103,6.7275,6.7422,6.7794,6.8164,6.8711,6.9375,7.0078,7.0898,7.1289,7.1601,7.1758,7.1953,7.1992,7.1992,7.1992,7.1992,7.1992,7.1992,7.1992,7.1992,7.1992,7.1992,7.1992,7.1992,7.1992,7.2539,7.2578,7.2851,7.3437,7.3984,7.4453,7.5039,7.5781,7.6211,7.6719,7.7148,7.7226,7.7226,7.7226,7.7226,7.7226,7.7226,7.7226,7.7226,7.7226,7.7226,7.7226,7.7226,7.7226,7.7226,7.7226,7.7226,7.7226,7.7226,7.7226,7.7226,7.7226,7.7226,7.7226,7.7226,7.7226,7.7226,7.7226,7.7226,7.7226,7.7226,7.7226,7.7226,7.7226,7.7226,7.7226,7.7226,7.7226,7.7226,7.7226,6.6185,6.6185,6.6185,6.6185,6.6185,6.6185,6.6185,6.6185,6.6185,6.6185,6.6185,6.6185,6.6185,6.6185,6.6185,6.6185,6.6185,6.6185,6.6185,6.6185,6.6185,6.6185,6.6185,6.6185,6.6185,6.6185,6.6185,6.6185,6.6185,6.6185,6.6185,6.6185,6.6185,6.6185,6.6185,6.6224,6.6185,6.6185,6.6428,6.6445,6.6525,6.6672,6.724,6.7734,6.8203,6.8555,6.9297,6.9961,7.0469,7.0859,7.125,7.1719,7.1953,7.1992,7.1992,7.1992,7.1992,7.1992,7.1992,7.1992,7.1992,7.1992,7.1992,7.1992,7.2031,7.2031,7.207,7.2344,7.293,7.3281,7.375,7.4297,7.5039,7.582,7.6445,7.707,7.7109,7.707,7.7031,7.7031,7.7187,7.7187,7.7226,7.7226,7.7226,7.7226,7.7226,7.7226,7.7226,7.7226,7.7226,7.7226,7.7226,7.7226,7.7226,7.7226,7.7226,7.7226,7.7226,7.7226,7.7226,7.7226,7.7226,7.7226,7.7226,7.7226,7.7226,7.7226,7.7226,7.7226,7.7226,7.7226,7.7226,7.7226,7.7226,6.6185,6.6185,6.6185,6.6185,6.6185,6.6185,6.6185,6.6185,6.6185,6.6185,6.6185,6.6185,6.6185,6.6185,6.6185,6.6185,6.6185,6.6185,6.6185,6.6185,6.6185,6.6185,6.6185,6.6185,6.6185,6.6185,6.6185,6.6185,6.6185,6.6185,6.6185,6.6185,6.6185,6.6185,6.6185,6.6185,6.6185,6.6185,6.621,6.629,6.6418,6.6595,6.6786,6.7265,6.7851,6.8164,6.8633,6.9297,6.957,6.9922,7.0508,7.125,7.168,7.1914,7.1992,7.1992,7.1992,7.1992,7.1992,7.1992,7.1992,7.1992,7.1992,7.1992,7.1992,7.1992,7.2031,7.2031,7.2383,7.2383,7.2812,7.3398,7.4101,7.4922,7.5625,7.6328,7.6719,7.6484,7.6328,7.668,7.7031,7.7109,7.7226,7.7226,7.7226,7.7226,7.7226,7.7226,7.7226,7.7226,7.7226,7.7226,7.7226,7.7226,7.7226,7.7226,7.7226,7.7226,7.7226,7.7226,7.7226,7.7226,7.7226,7.7226,7.7226,7.7226,7.7226,7.7226,7.7226,7.7226,7.7226,7.7226,7.7226,7.7226,7.7226]}]]